     2              OBSERVATION DATA    GPS                 RINEX VERSION / TYPE
teqc 1997Jul24 19970814                                     PGM / RUN BY / DATE
                                                            COMMENT
Original Marker Name: 0704                                  COMMENT
Campaign Name: HPGN 1991                                    COMMENT
4-Character Station Name: 0704                              COMMENT
6-Character Antenna Code: TRMSST                            COMMENT
Vertical Measurement Point: BPA                             COMMENT
Vertical Offset to Rinex Ref. Point: 0.0000                 COMMENT
Radial Measurement Point: RRP                               COMMENT
Radial Offset to Rinex Ref. Point: 0.0000                   COMMENT
Antenna Height from Field Measurement: 2.2200 m             COMMENT
Original XYZ: -2516979.7085 -4627966.8347 3583981.7871      COMMENT
New XYZ position is based on association with SCEC monument COMMENT
E1E9I9U4+0011. Position of that monument is believed to be  COMMENT
valid to within 1 m horizontally; vertical accuracy         COMMENT
should be no worse than 3-times this value.                 COMMENT
                                                            COMMENT
Revised Rinex header created by UCSD GPS archive for        COMMENT
GSAC on 19-Apr-1999 (1999:109) 05:23:10 GMT                 COMMENT
For assistance contact dagnew@ucsd.edu or hjohnson@ucsd.edu COMMENT
                                                            COMMENT
HPGN-CALIF STA 07-04 1991                                   MARKER NAME
unknown CALIF DEPT TRANSPORTATION                           OBSERVER / AGENCY
621 TRIMBLE 4000 SST NP 4.30 / SP 4.20                      REC # / TYPE / VERS
9 TR 4000SST L1/L2 GEO                                      ANT # / TYPE
 -2516978.0000 -4627970.0000  3583979.0000                  APPROX POSITION XYZ
        2.2200        0.0000        0.0000                  ANTENNA: DELTA H/E/N
     1     1     0                                          WAVELENGTH FACT L1/2
     3    C1    L1    L2                                    # / TYPES OF OBSERV
     0                                                      INTERVAL
  1991     4    24    19    51   15.000000                  TIME OF FIRST OBS
  1991     4    25     1    53   60.000000                  TIME OF LAST OBS
     0                                                      # OF SATELLITES
                                                            END OF HEADER
 91  4 24 19 51 15.0000000  0  4G18G 2G11G19
  20778702.8204         -0.41858        -0.23873
  23871655.5864         -0.86256        -0.27771
  23878348.063          -0.37716        -0.36131
  20990084.4534         -0.09156        -0.49272
 91  4 24 19 51 30.0000000  0  4G18G 2G11G19
  20780361.8444       8722.02848      6796.44063
  23860991.523      -56071.206 6    -43691.28721
  23870654.7814     -40407.47346    -31486.31461
  20987879.6254     -11583.50746     -9026.52562
 91  4 24 19 51 45.0000000  0  4G18G 2G11G19
  20782039.2974      17534.82148     13663.51863
  23850321.414     -112115.685 5    -87362.14121
  23862983.7504     -80740.47146    -62914.50361
  20985679.859      -23145.028 6    -18035.49422
 91  4 24 19 52  0.0000000  0  4G18G 2G11G19
  20783732.7274      26441.94848     20604.10863
  23839661.094     -168130.224 6   -131009.65921
  23855323.211     -120994.879 6    -94281.46421
  20983485.1644     -34680.70746    -27024.32762
 91  4 24 19 52 15.0000000  0  4G18G 2G11G19
  20785447.3524      35447.25348     27621.19864
  23829008.461     -224110.555 5   -174630.53021
  23847677.063     -161166.251 6   -125583.71821
  20981296.4534     -46186.30446    -35989.72262
 91  4 24 19 52 30.0000000  0  4G18G 2G11G19
  20787178.3054      44547.53148     34712.29363
  23818364.859     -280060.066 5   -218227.39521
  23840050.305     -201257.766 6   -156823.74321
  20979110.7424     -57665.45346    -44934.50762
 91  4 24 19 52 45.0000000  0  4G18G 2G11G19
  20788930.3284      53748.43348     41881.79463
  23807718.320     -335972.518 5   -261795.36921
  23832436.531     -241263.142 6   -187996.65321
  20976934.6954     -69112.32446    -53854.14362
 91  4 24 19 53  0.0000000  0  4G18G 2G11G19
  20790700.4384      63060.12048     49137.62563
  23797090.898     -391837.661 6   -305326.48621
  23824843.7664    -281171.92446   -219094.29361
  20974761.8674     -80516.91446    -62740.83162
 91  4 24 19 53 15.0000000  0  4G18G 2G11G19
  20792493.0394      72475.38148     56474.15963
  23786470.203     -447662.125 6   -348825.92421
  23817265.531     -320990.544 6   -250121.68121
  20972602.7734     -91885.98746    -71599.84462
 91  4 24 19 53 30.0000000  0  4G18G 2G11G19
  20794304.7504      81994.26548     63891.44063
  23775854.234     -503446.107 6   -392293.79621
  23809705.2894    -360718.97646   -281078.80061
  20970444.0554    -103219.70946    -80431.31062
 91  4 24 19 53 45.0000000  0  4G18G 2G11G19
  20796133.7274      91612.08348     71385.80963
  23765248.0314    -559194.05446   -435733.60261
  23802163.891     -400361.636 6   -311969.08821
  20968294.5784    -114522.85546    -89238.95362
 91  4 24 19 54  0.0000000  0  4G18G 2G11G19
  20797986.0704     101337.66048     78964.15363
  23754643.1804    -614896.98146   -479138.32161
  23794634.4454    -439909.06046   -342785.16861
  20966148.7814    -125786.66546    -98015.94662
 91  4 24 19 54 15.0000000  0  4G18G 2G11G19
  20799857.4454     111173.40748     86628.34263
  23744054.5784    -670552.10546   -522505.80861
  23787125.375     -479358.463 6   -373524.85221
  20964011.9534    -137008.61746   -106760.31562
 91  4 24 19 54 30.0000000  0  4G18G 2G11G19
  20801750.5634     121118.82348     94377.98063
  23733478.8524    -726159.65446   -565836.22161
  23779638.5784    -518709.94446   -404188.21361
  20961885.3054    -148189.14246   -115472.41362
 91  4 24 19 54 45.0000000  0  4G18G 2G11G19
  20803660.6564     131168.52848    102208.88863
  23722902.477     -781724.721 6   -609133.51621
  23772167.047     -557968.272 6   -434779.01421
  20959766.3984    -159333.36846   -124156.22162
 91  4 24 19 55  0.0000000  0  4G18G 2G11G19
  20805594.1804     141325.44748    110123.33063
  23712328.6954    -837244.48846   -652395.52161
  23764718.3444    -597130.44146   -465294.88361
  20957650.0784    -170438.69246   -132809.72062
 91  4 24 19 55 15.0000000  0  4G18G 2G11G19
  20807549.9924     151590.24948    118121.84163
  23701777.1174    -892718.20145   -695621.64661
  23757282.3444    -636195.44546   -495735.02661
  20955546.1254    -181504.43346   -141432.37262
 91  4 24 19 55 30.0000000  0  4G18G 2G11G19
  20809519.5474     161961.42248    126203.23763
  23691226.484     -948147.081 6   -738812.84021
  23749867.758     -675164.138 6   -526100.13221
  20953446.2664    -192531.70346   -150025.04763
 91  4 24 19 55 45.0000000  0  4G18G 2G11G19
  20811517.3594     172441.09548    134369.17663
  23680690.4774   -1003528.84846   -781967.30061
  23742470.375     -714034.290 6   -556388.45421
  20951358.7034    -203518.81846   -158586.43262
 91  4 24 19 56  0.0000000  0  4G18G 2G11G19
  20813529.8444     183033.23348    142622.75164
  23670164.6884   -1058859.36046   -825081.83661
  23735092.289     -752801.592 6   -586596.63621
  20949271.8914    -214461.84146   -167113.45662
 91  4 24 19 56 15.0000000  0  4G18G 2G11G19
  20815570.2734     193736.47348    150962.89563
  23659636.953    -1114139.606 6   -868157.22321
  23727733.688     -791466.769 6   -616725.24121
  20947202.7034    -225361.82046   -175606.94662
 91  4 24 19 56 30.0000000  0  4G18G 2G11G19
  20817626.3134     204552.53948    159390.96064
  23649129.656    -1169367.670 6   -911191.93521
  23720397.461     -830027.841 6   -646772.73021
  20945133.1484    -236217.12446   -184065.62263
 91  4 24 19 56 45.0000000  0  4G18G 2G11G19
  20819705.8984     215483.63648    167908.66164
  23638635.516    -1224541.040 6   -954184.03621
  23713077.078     -868482.232 6   -676737.07821
  20943078.9534    -247025.50846   -192487.72862
 91  4 24 19 57  0.0000000  0  4G18G 2G11G19
  20821807.5784     226521.39048    176509.47164
  23628141.398    -1279667.941 6   -997139.92421
  23705778.5164    -906837.89546   -706624.49461
  20941027.1254    -257795.19547   -200879.69463
 91  4 24 19 57 15.0000000  0  4G18G 2G11G19
  20823930.8444     237669.98348    185196.64464
  23617662.6024   -1334744.21446  -1040056.36161
  23698498.789     -945090.219 5   -736431.39221
  20938990.0164    -268522.07646   -209238.30463
 91  4 24 19 57 30.0000000  0  4G18G 2G11G19
  20826072.6884     248929.98748    193970.63564
  23607189.461    -1389768.544 6  -1082932.32221
  23691238.836     -983237.902 6   -766156.75821
  20936953.7894    -279205.10147   -217562.74163
 91  4 24 19 57 45.0000000  0  4G18G 2G11G19
  20828235.789      260297.717 8    202828.56224
  23596725.9384   -1444744.75546  -1125770.80461
  23684002.227    -1021284.677 6   -795803.49521
  20934930.8134    -289848.44946   -225856.25863
 91  4 24 19 58  0.0000000  0  4G18G 2G11G19
  20830419.5394     271770.80848    211768.59363
  23586273.016    -1499675.055 6  -1168573.51721
  23676784.086    -1059232.450 6   -825373.08121
  20932908.6644    -300454.54447   -234120.74062
 91  4 24 19 58 15.0000000  0  4G18G 2G11G19
  20832621.1564     283349.61348    220790.99864
  23575831.3444   -1554558.78146  -1211339.92261
  23669578.594    -1097080.338 6   -854864.84021
  20930899.9384    -311022.87146   -242355.79662
 91  4 24 19 58 30.0000000  0  4G18G 2G11G19
  20834846.2504     295035.15748    229896.57963
  23565399.547    -1609394.730 6  -1254069.10721
  23662389.516    -1134826.996 5   -884277.70321
  20928897.9384    -321552.27846   -250560.52662
 91  4 24 19 58 45.0000000  0  4G18G 2G11G19
  20837088.9534     306831.04548    239088.13963
  23554975.1334   -1664179.13346  -1296758.12561
  23655232.2194   -1172468.36346   -913608.54861
  20926900.8754    -332038.99646   -258731.98962
 91  4 24 19 59  0.0000000  0  4G18G 2G11G19
  20839356.1724     318730.79548    248360.62963
  23544553.984    -1718918.226 6  -1339411.84821
  23648083.6254   -1210010.52945   -942862.08861
  20924912.7194    -342489.69346   -266875.38862
 91  4 24 19 59 15.0000000  0  4G18G 2G11G19
  20841637.8204     330738.35548    257717.13163
  23534145.875    -1773607.986 6  -1382027.11921
  23640965.1804   -1247449.37346   -972035.11461
  20922932.1484    -352900.49146   -274987.69762
 91  4 24 19 59 30.0000000  0  4G18G 2G11G19
  20843946.148      342855.118 8    267158.72323
  23523751.648    -1828246.770 6  -1424602.65521
  23633857.0004   -1284782.90246  -1001126.07461
  20920956.2424    -363269.79047   -283067.66662
 91  4 24 19 59 45.0000000  0  4G18G 2G11G19
  20846272.8444     355078.50348    276683.39863
  23513361.6334   -1882836.74446  -1467140.17061
  23626775.414    -1322013.268 6  -1030136.66221
  20918993.2734    -373599.96546   -291117.15562
 91  4 24 20  0  0.0000000  0  4G18G 2G11G19
  20848617.422      367403.790 8    286287.47123
  23502984.742    -1937382.368 6  -1509643.11921
  23619710.258    -1359144.765 6  -1059070.22621
  20917029.9454    -383895.76447   -299139.85962
 91  4 24 20  0 15.0000000  0  4G18G 2G11G19
  20850983.3914     379838.09648    295976.49963
  23492614.695    -1991876.417 6  -1552105.87321
  23612662.8284   -1396170.00046  -1087920.95861
  20915078.9144    -394149.99546   -307130.16762
 91  4 24 20  0 30.0000000  0  4G18G 2G11G19
  20853370.8054     392382.99248    305751.70263
  23482256.047    -2046316.966 6  -1594526.95521
  23605639.3914   -1433086.81346  -1116687.21561
  20913138.9774    -404360.99546   -315086.79463
 91  4 24 20  0 45.0000000  0  4G18G 2G11G19
  20855781.008      405041.985 8    315615.80823
  23471903.4064   -2100700.61746  -1636903.71461
  23598632.5634   -1469891.56246  -1145366.15261
  20911202.2034    -414525.43147   -323007.13263
 91  4 24 20  1  0.0000000  0  4G18G 2G11G19
  20858210.016      417807.793 8    325563.13923
  23461565.2504   -2155034.54546  -1679241.71061
  23591647.617    -1506591.101 6  -1173963.09321
  20909277.3364    -424650.45746   -330896.76462
 91  4 24 20  1 15.0000000  0  4G18G 2G11G19
  20860657.2274     430679.46948    335592.97763
  23451233.0474   -2209319.31646  -1721541.40461
  23584684.8834   -1543185.85346  -1202478.38361
  20907357.0554    -434736.88747   -338756.31762
 91  4 24 20  1 30.0000000  0  4G18G 2G11G19
  20863132.086      443674.460 8    345718.90123
  23440915.305    -2263537.121 6  -1763788.92221
  23577746.2584   -1579658.00746  -1230898.14661
  20905450.5784    -444767.24146   -346572.18562
 91  4 24 20  1 45.0000000  0  4G18G 2G11G19
  20865628.180      456798.621 8    355945.47023
  23430611.9144   -2317681.78946  -1805979.45661
  23570829.7974   -1616001.22046  -1259217.43561
  20903551.9924    -454735.41447   -354339.58762
 91  4 24 20  2  0.0000000  0  4G18G 2G11G19
  20868146.641      470028.880 8    366254.71723
  23420319.5314   -2371776.39746  -1848130.97361
  23563935.117    -1652238.269 6  -1287454.01221
  20901664.0554    -464664.71146   -362076.70763
 91  4 24 20  2 15.0000000  0  4G18G 2G11G19
  20870684.781      483369.591 8    376650.02623
  23410037.1254   -2425816.34446  -1890239.90961
  23557059.930    -1688364.456 6  -1315604.20521
  20899777.9454    -474550.77046   -369780.12863
 91  4 24 20  2 30.0000000  0  4G18G 2G11G19
  20873239.734      496816.500 7    387128.09223
  23399760.2734   -2479805.88646  -1932309.55161
  23550204.727    -1724383.857 6  -1343671.19721
  20897905.9304    -484397.94146   -377453.24963
 91  4 24 20  2 45.0000000  0  4G18G 2G11G19
  20875823.578      510376.695 8    397694.42723
  23389497.3444   -2533737.13746  -1974333.78461
  23543370.703    -1760288.534 6  -1371648.77821
  20896039.4224    -494198.61646   -385090.14562
 91  4 24 20  3  0.0000000  0  4G18G 2G11G19
  20878426.875      524054.368 8    408352.30623
  23379247.063    -2587605.768 6  -2016309.23321
  23536563.719    -1796073.846 6  -1399533.36421
  20894188.1724    -503948.47946   -392687.43763
 91  4 24 20  3 15.0000000  0  4G18G 2G11G19
  20881055.836      537876.097 8    419122.43923
  23369015.9064   -2641385.33446  -2058215.26661
  23529781.164    -1831713.093 6  -1427304.12121
  20892344.7584    -513621.12746   -400224.57062
 91  4 24 20  3 30.0000000  0  4G18G 2G11G19
  20883710.750      551804.140 8    429975.40723
  23358788.188    -2695113.084 6  -2100080.90921
  23523018.8284   -1867243.44146  -1454990.01261
  20890509.8204    -523254.27546   -407730.91663
 91  4 24 20  3 45.0000000  0  4G18G 2G11G19
  20886377.500      565836.688 8    440909.81623
  23348575.4924   -2748790.99846  -2141907.74161
  23516278.047    -1902666.684 6  -1482592.44721
  20888685.9454    -532849.86246   -415208.00362
 91  4 24 20  4  0.0000000  0  5G18G 2G11G19G16
  20889067.8134     579976.19347    451927.57163
  23338375.1954   -2802416.26246  -2183693.53261
  23509558.086    -1937979.918 6  -1510109.17721
  20886868.5474    -542405.17246   -422653.69762
  24325010.6024         -0.56355
 91  4 24 20  4 15.0000000  0  5G18G 2G11G19G16
  20891779.164      594225.606 7    463030.96123
  23328178.906    -2855985.648 6  -2225435.78821
  23502861.0234   -1973179.72947  -1537537.51561
  20885058.6024    -551917.26446   -430065.72162
  24317909.8914     -37281.21044
 91  4 24 20  4 30.0000000  0  5G18G 2G11G19G16
  20894512.867      608584.960 8    474220.02423
  23317990.5944   -2909498.86846  -2267134.27761
  23496183.859    -2008265.610 7  -1564877.08221
  20883255.9224    -561385.97646   -437443.93762
  24310829.4774     -74444.65744
 91  4 24 20  4 45.0000000  0  5G18G 2G11G19G16
  20897265.3134     623050.12547    485491.53963
  23307821.133    -2962959.880 6  -2308792.07621
  23489527.8674   -2043241.22147  -1592130.73761
  20881460.8754    -570815.47546   -444791.60263
  24303788.0784    -111494.84743
 91  4 24 20  5  0.0000000  0  5G18G 2G11G19G16
  20900038.945      637624.955 7    496848.50423
  23297659.5944   -3016364.61446  -2350406.04361
  23482896.320    -2078102.324 7  -1619295.16221
  20879676.1414    -580201.57946   -452105.44462
  24296752.008     -148427.635 4
 91  4 24 20  5 15.0000000  0  5G18G 2G11G19G16
  20902833.9614     652303.58548    508286.35263
  23287505.4924   -3069718.55146  -2391980.41761
  23476282.9144   -2112854.26347  -1646374.52361
  20877897.1954    -589550.08746   -459390.00663
  24289735.2734    -185248.47643
 91  4 24 20  5 30.0000000  0  5G18G 2G11G19G16
  20905644.930      667085.362 8    519804.57623
  23277357.906    -3123022.313 6  -2433515.69321
  23469688.719    -2147497.547 6  -1673369.20621
  20876123.9144    -598861.61946   -466645.74162
  24282763.8594    -221957.64444        -0.48071
 91  4 24 20  5 45.0000000  0  5G18G 2G11G19G16
  20908477.453      681971.983 7    531404.49523
  23267227.0084   -3176273.91546  -2475010.31361
  23463115.4454   -2182030.05246  -1700277.57161
  20874362.4534    -608134.42846   -473871.31263
  24275807.2034    -258553.40544    -28516.65261
 91  4 24 20  6  0.0000000  0  5G18G 2G11G19G16
  20911329.266      696955.065 7    543079.57323
  23257103.1954   -3229481.52346  -2516470.65961
  23456567.156    -2216459.625 6  -1727105.73821
  20872602.4774    -617376.80746   -481073.16662
  24268852.180     -295043.779 5    -56950.73221
 91  4 24 20  6 15.0000000  0  5G18G 2G11G19G16
  20914200.578      712044.526 7    554837.54923
  23246984.8984   -3282634.95746  -2557888.80961
  23450034.234    -2250776.145 6  -1753845.80321
  20870851.1644    -626578.88646   -488243.62263
  24261927.055     -331418.885 4    -85294.97721
 91  4 24 20  6 30.0000000  0  5G18G 2G11G19G16
  20917092.305      727240.943 7    566678.86723
  23236884.7114   -3335733.41646  -2599264.11261
  23443525.047    -2284978.520 6  -1780496.91921
  20869110.0634    -635739.84046   -495382.03363
  24255037.8444    -367677.49645   -113548.46061
 91  4 24 20  6 45.0000000  0  5G18G 2G11G19G16
  20920005.734      742539.859 8    578600.04824
  23226788.3054   -3388781.04746  -2640599.80261
  23437037.688    -2319070.955 6  -1807062.38121
  20867369.5474    -644864.04146   -502491.80263
  24248150.016     -403823.874 5   -141714.48721
 91  4 24 20  7  0.0000000  0  5G18G 2G11G19G16
  20922935.703      757948.752 7    590606.92623
  23216705.086    -3441769.997 6  -2681889.78521
  23430573.188    -2353045.299 6  -1833535.82021
  20865641.3524    -653943.86246   -509566.98962
  24241304.0864    -439850.27845   -169787.00761
 91  4 24 20  7 15.0000000  0  5G18G 2G11G19G16
  20925890.773      773473.871 8    602704.37624
  23206633.5474   -3494693.92246  -2723129.07961
  23424131.992    -2386894.862 6  -1859912.01821
  20863923.2664    -662973.02546   -516602.69763
  24234470.5634    -475749.88945   -197760.72861
 91  4 24 20  7 30.0000000  0  5G18G 2G11G19G16
  20928863.070      789097.069 7    614878.24424
  23196569.594    -3547571.120 6  -2764331.98321
  23417712.523    -2420637.816 6  -1886205.15021
  20862212.8364    -671969.88146   -523613.24362
  24227657.6334    -511541.33444   -225650.14861
 91  4 24 20  7 45.0000000  0  5G18G 2G11G19G16
  20931855.047      804822.161 7    627131.50924
  23186518.9064   -3600397.43746  -2805495.21561
  23411313.672    -2454269.841 6  -1912411.83821
  20860506.8284    -680930.40346   -530595.47063
  24220871.922     -547220.358 5   -253452.02321
 91  4 24 20  8  0.0000000  0  5G18G 2G11G19G16
  20934868.719      820651.620 8    639466.09724
  23176475.070    -3653170.065 6  -2846616.63921
  23404932.086    -2487788.087 6  -1938529.87921
  20858811.3524    -689852.06046   -537547.41363
  24214094.203     -582783.968 4   -281163.95621
 91  4 24 20  8 15.0000000  0  5G18G 2G11G19G16
  20937903.070      836592.602 8    651887.59724
  23166444.328    -3705881.313 6  -2887690.21821
  23398577.4144   -2521184.76046  -1964553.18961
  20857118.2974    -698727.27246   -544463.16362
  24207353.0784    -618224.56344   -308780.04261
 91  4 24 20  8 30.0000000  0  5G18G 2G11G19G16
  20940954.781      852638.096 7    664390.53024
  23156425.6484   -3758538.29046  -2928721.50661
  23392242.758    -2554466.703 6  -1990487.08921
  20855439.5394    -707563.23446   -551348.33163
  24200632.508     -653549.279 3   -336305.79621
 91  4 24 20  8 45.0000000  0  5G18G 2G11G19G16
  20944031.508      868791.259 8    676977.35324
  23146415.0634   -3811137.56546  -2969707.83061
  23385933.9224   -2587630.19946  -2016328.71061
  20853767.0704    -716356.72946   -558200.40763
  24193937.133     -688754.503 3   -363738.40021
 91  4 24 20  9  0.0000000  0  5G18G 2G11G19G16
  20947124.727      885050.786 7    689647.07324
  23136420.7584   -3863680.28846  -3010650.08961
  23379647.008    -2620676.317 6  -2042078.84521
  20852102.6644    -725108.93446   -565020.31063
  24187258.3914    -723841.32944   -391078.80061
 91  4 24 20  9 15.0000000  0  5G18G 2G11G19G16
  20950240.641      901421.240 8    702403.21723
  23126428.6954   -3916161.49046  -3051544.41461
  23373378.297    -2653600.020 6  -2067733.60921
  20850443.3594    -733815.05147   -571804.30462
  24180594.5004    -758804.77244   -418323.10461
 91  4 24 20  9 30.0000000  0  5G18G 2G11G19G16
  20953374.000      917900.898 7    715244.45823
  23116451.6804   -3968582.59046  -3092391.89961
  23367134.953    -2686402.579 6  -2093293.96621
  20848796.8284    -742476.73446   -578553.66763
  24173969.266     -793646.435 4   -445472.44221
 91  4 24 20  9 45.0000000  0  5G18G 2G11G19G16
  20956532.266      934488.431 7    728169.75423
  23106492.7814   -4020944.81846  -3133193.51661
  23360919.148    -2719084.941 6  -2118760.65721
  20847155.5084    -751095.25146   -585269.40062
  24167360.5084    -828367.28745   -472527.65061
 91  4 24 20 10  0.0000000  0  5G18G 2G11G19G16
  20959710.180      951185.546 7    741180.44123
  23096540.820    -4073246.248 6  -3173947.76221
  23354724.7344   -2751645.07546  -2144132.11961
  20845524.7114    -759668.91946   -591950.18663
  24160785.039     -862965.395 5   -499487.23721
 91  4 24 20 10 15.0000000  0  5G18G 2G11G19G16
  20962907.430      967993.537 7    754277.52623
  23086598.3364   -4125485.37246  -3214653.45361
  23348550.5864   -2784081.31246  -2169407.03761
  20843901.7974    -768196.31946   -598594.91962
  24154223.4694    -897439.20945   -526349.96761
 91  4 24 20 10 30.0000000  0  5G18G 2G11G19G16
  20966127.352      984919.034 7    767466.17523
  23076667.125    -4177654.924 6  -3255304.95421
  23342402.4144   -2816386.30546  -2194579.68561
  20842290.3284    -776670.43547   -605198.12962
  24147685.4534    -931781.71245   -553110.34961
 91  4 24 20 10 45.0000000  0  5G18G 2G11G19G16
  20969371.9924    1001970.04547    780752.61963
  23066755.9844   -4229747.33146  -3295896.30461
  23336279.172    -2848552.109 6  -2219643.86821
  20840688.7584    -785083.65046   -611753.88462
  24141175.570     -965985.044 5   -579762.32221
 91  4 24 20 11  0.0000000  0  5G18G 2G11G19G16
  20972639.484     1019126.609 8    794121.31523
  23056856.4534   -4281781.91246  -3336442.61361
  23330183.117    -2880598.055 6  -2244614.67221
  20839096.7814    -793455.58846   -618277.47263
  24134699.4924   -1000068.48845   -606320.82461
 91  4 24 20 11 15.0000000  0  5G18G 2G11G19G16
  20975923.102     1036393.573 7    807576.03823
  23046964.391    -4333753.637 6  -3376939.95121
  23324110.2974   -2912518.85646  -2269487.95961
  20837510.9454    -801781.22746   -624764.98362
  24128234.555    -1034026.830 5   -632781.90121
 91  4 24 20 11 30.0000000  0  5G18G 2G11G19G16
  20979230.188     1053772.070 7    821117.67023
  23037087.2664   -4385661.29646  -3417387.35661
  23318062.5314   -2944313.23946  -2294262.72561
  20835937.9224    -810059.47046   -631215.56663
  24121791.734    -1067858.904 5   -659144.54821
 91  4 24 20 11 45.0000000  0  5G18G 2G11G19G16
  20982560.9534    1071265.31648    834748.71363
  23027222.0864   -4437501.50546  -3457782.20661
  23312032.375    -2975977.456 6  -2318936.07121
  20834370.5314    -818286.75446   -637626.44362
  24115378.352    -1101561.119 5   -685406.03021
 91  4 24 20 12  0.0000000  0  5G18G 2G11G19G16
  20985909.188     1088872.563 8    848468.58923
  23017367.2504   -4489274.67546  -3498124.82061
  23306029.2894   -3007511.91046  -2343508.31761
  20832812.9844    -826463.78346   -643998.15463
  24108992.9774   -1135134.22745   -711566.88261
 91  4 24 20 12 15.0000000  0  5G18G 2G11G19G16
  20989280.219     1106588.806 7    862273.39623
  23007529.0004   -4540985.52346  -3538418.86761
  23300051.9144   -3038921.13046  -2367982.96961
  20831266.3754    -834595.49546   -650334.55763
  24102625.344    -1168583.105 4   -737630.92221
 91  4 24 20 12 30.0000000  0  5G18G 2G11G19G16
  20992671.8834    1124410.77348    876160.58364
  22997704.211    -4592636.958 6  -3578666.63121
  23294104.0704   -3070208.04546  -2392362.32361
  20829726.4144    -842685.03646   -656638.09563
  24096279.4844   -1201910.59344   -763600.41161
 91  4 24 20 12 45.0000000  0  5G18G 2G11G19G16
  20996084.109     1142334.547 8    890127.10724
  22987885.383    -4644232.627 6  -3618870.93021
  23288169.9614   -3101376.03146  -2416649.00561
  20828192.9844    -850736.21746   -662911.74862
  24089964.3674   -1235120.19544   -789478.04661
 91  4 24 20 13  0.0000000  0  5G18G 2G11G19G16
  20999514.0704    1160361.86948    904174.31363
  22978078.4304   -4695770.71646  -3659030.36261
  23282259.0394   -3132423.13946  -2440841.49561
  20826672.7034    -858747.36246   -669154.20163
  24083668.8984   -1268209.86844   -815262.18561
 91  4 24 20 13 15.0000000  0  5G18G 2G11G19G16
  21002965.695     1178499.371 8    918307.37423
  22968277.7974   -4747244.35846  -3699139.59861
  23276381.992    -3163342.345 6  -2464934.31621
  20825153.9534    -866711.46146   -675359.99563
  24077390.773    -1301172.211 4   -840947.14621
 91  4 24 20 13 30.0000000  0  5G18G 2G11G19G16
  21006438.9144    1196754.43548    932532.04363
  22958493.383    -4798645.955 6  -3739192.67521
  23270523.867    -3194125.963 6  -2488921.49921
  20823651.7734    -874621.22446   -681523.44362
  24071147.3204   -1334000.35744   -866527.53061
 91  4 24 20 13 45.0000000  0  5G18G 2G11G19G16
  21009931.656     1215116.446 8    946840.04423
  22948725.852    -4849985.942 6  -3779197.74921
  23264688.1174   -3224784.24546  -2512810.99761
  20822153.3284    -882487.08946   -687652.69763
  24064923.828    -1366704.511 5   -892011.28721
 91  4 24 20 14  0.0000000  0  5G18G 2G11G19G16
  21013452.4454    1233602.18748    961244.45563
  22938970.406    -4901247.232 6  -3819141.50921
  23258879.1884   -3255299.80546  -2536589.29761
  20820672.6644    -890292.16246   -693734.57362
  24058730.273    -1399267.683 5   -917385.21421
 91  4 24 20 14 15.0000000  0  5G18G 2G11G19G16
  21016991.5554    1252202.44648    975738.10263
  22929231.773    -4952438.748 6  -3859030.89021
  23253097.703    -3285681.589 6  -2560263.34721
  20819194.1564    -898045.52346   -699776.15763
  24052559.922    -1431698.835 5   -942656.23921
 91  4 24 20 14 30.0000000  0  5G18G 2G11G19G16
  21020551.211     1270910.559 8    990315.79623
  22919502.5234   -5003566.74046  -3898870.77661
  23247340.266    -3315935.819 6  -2583838.01521
  20817725.7894    -905753.66346   -705782.50362
  24046410.4614   -1464004.26645   -967829.31961
 91  4 24 20 14 45.0000000  0  5G18G 2G11G19G16
  21024130.8524    1289727.92048   1004978.61663
  22909788.000    -5054629.727 6  -3938660.00121
  23241609.0234   -3346060.77646  -2607311.94261
  20816267.1884    -913415.08046   -711752.44263
  24040285.133    -1496182.156 5   -992903.00921
 91  4 24 20 15  0.0000000  0  5G18G 2G11G19G16
  21027732.8754    1308651.58248   1019724.26963
  22900080.594    -5105630.368 6  -3978400.66121
  23235899.5004   -3376059.02746  -2630687.13961
  20814817.8134    -921032.59746   -717688.17162
  24034183.492    -1528235.410 5  -1017879.62021
 91  4 24 20 15 15.0000000  0  5G18G 2G11G19G16
  21031353.953     1327687.825 8   1034557.65023
  22890387.9144   -5156562.19646  -4018087.69361
  23230216.3364   -3405923.73046  -2653958.27861
  20813378.5164    -928599.73546   -723584.64863
  24028112.117    -1560157.314 5  -1042753.83621
 91  4 24 20 15 30.0000000  0  5G18G 2G11G19G16
  21034999.4924    1346833.43948   1049476.25463
  22880711.148    -5207428.367 6  -4057723.56021
  23224559.8444   -3435657.91146  -2677127.70861
  20811950.4304    -936119.68446   -729444.35062
  24022055.9924   -1591951.02945  -1067528.18761
 91  4 24 20 15 45.0000000  0  5G18G 2G11G19G16
  21038662.5234    1366087.12848   1064479.06863
  22871042.375    -5258229.728 6  -4097308.93321
  23218924.9614   -3465262.42546  -2700196.10161
  20810524.6094    -943593.52746   -735268.12962
  24016036.6484   -1623617.32045  -1092203.22461
 91  4 24 20 16  0.0000000  0  5G18G 2G11G19G16
  21042345.6174    1385446.69748   1079564.38663
  22861384.922    -5308967.982 6  -4136845.13621
  23213315.391    -3494738.939 6  -2723164.76021
  20809110.3284    -951023.30746   -741057.57662
  24010038.570    -1655158.348 5  -1116780.67921
 91  4 24 20 16 15.0000000  0  5G18G 2G11G19G16
  21046050.2664    1404906.61348   1094727.88863
  22851743.141    -5359648.556 6  -4176336.37621
  23207729.9064   -3524092.64446  -2746037.70661
  20807703.4534    -958414.28946   -746816.78563
  24004053.4064   -1686579.13845  -1141264.43161
 91  4 24 20 16 30.0000000  0  5G18G 2G11G19G16
  21049773.6484    1424470.50648   1109972.41963
  22842113.266    -5410267.946 6  -4215779.95421
  23202167.7974   -3553319.67946  -2768811.95761
  20806306.4614    -965763.02646   -752543.07662
  23998098.1954   -1717876.05745  -1165651.65361
 91  4 24 20 16 45.0000000  0  5G18G 2G11G19G16
  21053519.0314    1444145.51648   1125303.52963
  22832487.5474   -5460818.66646  -4255170.02861
  23196632.8364   -3582412.56246  -2791481.67361
  20804916.8674    -973062.38646   -758230.89662
  23992167.125    -1749041.514 5  -1189936.43021
 91  4 24 20 17  0.0000000  0  5G18G 2G11G19G16
  21057283.4224    1463928.12448   1140718.48163
  22822880.2974   -5511303.53946  -4294508.78561
  23191121.6954   -3611373.92046  -2814048.90161
  20803536.7814    -980314.97446   -763882.26862
  23986258.969    -1780078.716 5  -1214121.26121
 91  4 24 20 17 15.0000000  0  5G18G 2G11G19G16
  21061066.8204    1483818.57348   1156217.46663
  22813289.352    -5561722.697 6  -4333796.32521
  23185632.016    -3640203.928 6  -2836513.79121
  20802165.4534    -987521.26446   -769497.56462
  23980379.352    -1810987.747 5  -1238206.22621
 91  4 24 20 17 30.0000000  0  5G18G 2G11G19G16
  21064872.0784    1503813.58048   1171797.92063
  22803708.0394   -5612078.97146  -4373034.88861
  23180171.625    -3668905.263 6  -2858878.40721
  20800800.8754    -994684.24646   -775079.11762
  23974525.664    -1841771.205 5  -1262193.34921
 91  4 24 20 17 45.0000000  0  5G18G 2G11G19G16
  21068696.7894    1523909.24648   1187456.81763
  22794131.719    -5662375.923 6  -4412227.20621
  23174733.4774   -3697481.24246  -2881145.35561
  20799443.766    -1001807.331 6   -780629.57922
  23968687.047    -1872432.518 5  -1286085.28321
 91  4 24 20 18  0.0000000  0  5G18G 2G11G19G16
  21072541.1484    1544114.02947   1203200.73463
  22784576.031    -5712605.001 6  -4451366.64021
  23169322.3134   -3725923.19946  -2903307.85661
  20798100.8984   -1008882.26746   -786142.51662
  23962881.859    -1902963.403 5  -1309875.58221
 91  4 24 20 18 15.0000000  0  5G18G 2G11G19G16
  21076407.4304    1564422.74047   1219025.63763
  22775026.773    -5762770.846 6  -4490456.81121
  23163933.422    -3754235.698 6  -2925369.49921
  20796763.3914   -1015913.85146   -791621.68562
  23957092.977    -1933368.649 5  -1333567.98721
 91  4 24 20 18 30.0000000  0  6G18G 2G11G19G16G 6
  21080291.9694    1584832.73748   1234929.46563
  22765496.9384   -5812876.00346  -4529499.69361
  23158569.3984   -3782421.11546  -2947332.10261
  20795434.0784   -1022904.67546   -797069.08862
  23951326.664    -1963650.753 5  -1357164.46221
  24371929.1644     -42741.69642
 91  4 24 20 18 45.0000000  0  6G18G 2G11G19G16G 6
  21084194.3364    1605344.88948   1250912.89563
  22755972.859    -5862919.038 6  -4568494.15521
  23153230.445    -3810477.939 6  -2969194.51721
  20794109.6174   -1029853.46646   -802483.73762
  23945594.7194   -1993808.02945  -1380663.63861
  24363811.2584     -85471.55043
 91  4 24 20 19  0.0000000  0  6G18G 2G11G19G16G 6
  21088117.0394    1625968.83547   1266983.43863
  22746461.2504   -5912890.37646  -4607432.76061
  23147919.977    -3838396.366 6  -2990949.07421
  20792796.7274   -1036750.67246   -807858.19462
  23939878.8204   -2023830.76645  -1404058.00861
  24355674.2344    -128180.12643
 91  4 24 20 19 15.0000000  0  6G18G 2G11G19G16G 6
  21092062.1724    1646700.41747   1283137.85463
  22736965.516    -5962794.108 6  -4646318.69421
  23142630.2194   -3866180.41346  -3012598.92461
  20791491.414    -1043600.425 6   -813195.67222
  23934187.5704   -2053723.40945  -1427351.00261
  24347564.008     -170871.683 4
 91  4 24 20 19 30.0000000  0  6G18G 2G11G19G16G 6
  21096029.0704    1667535.80347   1299373.15063
  22727482.680    -6012633.592 6  -4685154.54921
  23137367.6024   -3893833.26646  -3034146.54461
  20790198.4144   -1050406.19946   -818498.88162
  23928522.2274   -2083488.89645  -1450544.89461
  24339435.3524    -213549.59644        -0.25971
 91  4 24 20 19 45.0000000  0  6G18G 2G11G19G16G 6
  21100013.2974    1688478.61847   1315692.16563
  22718012.945    -6062405.043 6  -4723937.39721
  23132132.508    -3921351.028 6  -3055588.90421
  20788912.125    -1057164.429 6   -823765.05122
  23922883.4844   -2113123.79945  -1473637.03961
  24331323.992     -256210.561 4    -33242.47721
 91  4 24 20 20  0.0000000  0  6G18G 2G11G19G16G 6
  21104018.5004    1709524.37347   1332091.39563
  22708552.3204   -6112112.58946  -4762670.44361
  23126919.664    -3948737.760 6  -3076929.16621
  20787637.070    -1063879.418 6   -828997.51922
  23917272.0004   -2142632.11045  -1496630.56061
  24323205.5234    -298858.85244    -66474.75461
 91  4 24 20 20 15.0000000  0  6G18G 2G11G19G16G 6
  21108043.8054    1730680.33347   1348576.49263
  22699104.3204   -6161748.90446  -4801347.99961
  23121735.477    -3975985.945 6  -3098161.46521
  20786366.867    -1070543.708 6   -834190.48622
  23911683.789    -2172006.404 5  -1519519.65021
  24315094.2194    -341487.09744    -99691.45961
 91  4 24 20 20 30.0000000  0  6G18G 2G11G19G16G 6
  21112090.0554    1751946.85547   1365147.74463
  22689672.430    -6211313.404 6  -4839969.58421
  23116577.6254   -4003094.87546  -3119285.24761
  20785110.2274   -1077156.84246   -839343.58762
  23906118.8754   -2201246.35945  -1542304.01561
  24306986.3674    -384094.95244   -132892.22261
 91  4 24 20 20 45.0000000  0  6G18G 2G11G19G16G 6
  21116158.0554    1773320.53647   1381802.49663
  22680254.3364   -6260808.91946  -4878537.43461
  23111446.539    -4030067.325 6  -3140302.69321
  20783859.234    -1083721.855 6   -844459.19422
  23900579.203    -2230354.685 5  -1564985.86621
  24298874.3444    -426685.53544   -166079.57561
 91  4 24 20 21  0.0000000  0  6G18G 2G11G19G16G 6
  21120247.5704    1794801.19147   1398540.60563
  22670848.578    -6310235.440 6  -4917051.49221
  23106338.063    -4056902.968 6  -3161213.53421
  20782619.7274   -1090238.75146   -849537.30262
  23895064.633    -2259331.374 5  -1587565.13421
  24290779.438     -469258.884 5   -199253.51121
 91  4 24 20 21 15.0000000  0  6G18G 2G11G19G16G 6
  21124355.2424    1816387.87847   1415361.33363
  22661457.6484   -6359593.60546  -4955512.30461
  23101256.695    -4083602.495 6  -3182018.30821
  20781387.141    -1096708.271 6   -854578.49922
  23889576.7974   -2288177.15745  -1610042.37561
  24282670.2034    -511815.85544   -232414.66061
 91  4 24 20 21 30.0000000  0  6G18G 2G11G19G16G 6
  21128481.0634    1838076.76447   1432261.69963
  22652077.7734   -6408887.35746  -4993922.92561
  23096202.0164   -4110169.57246  -3202719.87261
  20780164.6024   -1103134.36346   -859585.84962
  23884107.8594   -2316895.71245  -1632420.48661
  24274586.445     -554360.456 5   -265566.18121
 91  4 24 20 21 45.0000000  0  6G18G 2G11G19G16G 6
  21132627.6024    1859870.65847   1449243.88664
  22642709.336    -6458113.553 6  -5032280.90321
  23091173.844    -4136601.133 6  -3223315.84721
  20778951.070    -1109514.155 6   -864557.13022
  23878672.398    -2345483.759 5  -1654696.90821
  24266483.5554    -596889.90344   -298705.88861
 91  4 24 20 22  0.0000000  0  6G18G 2G11G19G16G 6
  21136796.0394    1881770.04547   1466308.27963
  22633352.3754   -6507271.46346  -5070585.67361
  23086167.500    -4162896.380 6  -3243805.60621
  20777746.461    -1115847.014 6   -869491.83422
  23873258.4144   -2373940.85445  -1676871.27461
  24258398.742     -639403.604 4   -331833.30921
 91  4 24 20 22 15.0000000  0  6G18G 2G11G19G16G 6
  21140983.984     1903778.540 7   1483457.68524
  22624012.8364   -6556357.00946  -5108834.04561
  23081189.7664   -4189051.18946  -3264185.91961
  20776551.992    -1122129.044 6   -874386.93522
  23867865.445    -2402263.243 5  -1698940.69521
  24250308.047     -681897.811 4   -364945.56621
 91  4 24 20 22 30.0000000  0  6G18G 2G11G19G16G 6
  21145191.125     1925891.356 7   1500688.37523
  22614686.7034   -6605374.66646  -5147029.52361
  23076237.773    -4215069.607 6  -3284459.95721
  20775363.680    -1128364.585 6   -879245.80922
  23862494.7424   -2430454.96145  -1720908.27161
  24242221.0394    -724376.97143   -398046.12661
 91  4 24 20 22 45.0000000  0  6G18G 2G11G19G16G 6
  21149418.8834    1948105.77347   1517998.25164
  22605368.0394   -6654327.07346  -5185174.17061
  23071315.4614   -4240954.20546  -3304629.71861
  20774184.828    -1134556.365 6   -884070.58522
  23857158.266    -2458519.099 5  -1742776.43621
  24234152.7424    -766843.82343   -431137.04761
 91  4 24 20 23  0.0000000  0  6G18G 2G11G19G16G 6
  21153668.4454    1970431.12447   1535394.56263
  22596071.1254   -6703204.45246  -5223260.34461
  23066414.094    -4266695.222 6  -3324687.60321
  20773019.406    -1140694.880 6   -888853.85722
  23851849.0784   -2486445.45745  -1764537.25161
  24226068.273     -809288.888 3   -464211.02621
 91  4 24 20 23 15.0000000  0  6G18G 2G11G19G16G 6
  21157937.6334    1992869.40747   1552878.87364
  22586781.2034   -6752004.71046  -5261286.41661
  23061547.563    -4292290.339 6  -3344631.80221
  20771861.7814   -1146777.87746   -893593.86462
  23846554.5784   -2514231.88445  -1786188.99961
  24218001.977     -851710.100 4   -497266.40221
 91  4 24 20 23 30.0000000  0  6G18G 2G11G19G16G 6
  21162227.7274    2015411.48547   1570444.05963
  22577512.4614   -6800737.04246  -5299259.57161
  23056700.711    -4317748.510 6  -3364469.28621
  20770713.641    -1152814.727 6   -898297.91322
  23841298.4384   -2541887.82745  -1807739.11761
  24209927.070     -894116.704 4   -530310.42121
 91  4 24 20 23 45.0000000  0  6G18G 2G11G19G16G 6
  21166538.0944    2038063.51147   1588094.92163
  22568249.188    -6849394.696 6  -5337174.53021
  23051882.797    -4343063.015 6  -3384194.82821
  20769571.281    -1158798.937 6   -902960.94622
  23836060.8364   -2569406.43345  -1829182.16961
  24201860.1724    -936502.46944   -563338.17461
 91  4 24 20 24  0.0000000  0  6G18G 2G11G19G16G 6
  21170867.4304    2060821.16347   1605828.08463
  22559004.6254   -6897981.66046  -5375034.41261
  23047091.023    -4368237.898 6  -3403811.56521
  20768444.336    -1164734.597 6   -907586.15022
  23830848.8594   -2596791.89145  -1850521.49361
  24193795.406     -978871.505 4   -596352.92821
 91  4 24 20 24 15.0000000  0  6G18G 2G11G19G16G 6
  21175220.0084    2083683.35747   1623642.71563
  22549772.086    -6946498.937 6  -5412839.97622
  23042327.484    -4393273.760 6  -3423319.97821
  20767322.1024   -1170622.56046   -912174.18162
  23825659.7734   -2624044.69845  -1871757.44061
  24185731.563    -1021224.786 3   -629355.33021
 91  4 24 20 24 30.0000000  0  6G18G 2G11G19G16G 6
  21179588.6954    2106653.84847   1641541.73263
  22540552.2194   -6994942.59046  -5450588.17761
  23037589.273    -4418166.538 6  -3442716.89821
  20766211.891    -1176458.978 6   -916722.05222
  23820502.0314   -2651161.29445  -1892887.26561
  24177689.0634   -1063558.43944   -662342.48061
 91  4 24 20 24 45.0000000  0  6G18G 2G11G19G16G 6
  21183983.0164    2129732.17547   1659524.77763
  22531347.0234   -7043312.53846  -5488278.95661
  23032880.844    -4442916.331 6  -3462002.39921
  20765111.555    -1182244.068 6   -921229.92022
  23815373.5314   -2678141.69345  -1913910.96261
  24169629.5784   -1105872.82943   -695314.62461
 91  4 24 20 25  0.0000000  0  6G18G 2G11G19G16G 6
  21188394.9774    2152915.51548   1677589.65263
  22522154.4534   -7091611.56546  -5525914.46461
  23028200.5164   -4467525.72946  -3481178.47861
  20764020.289    -1187980.564 6   -925699.92722
  23810262.914    -2704988.553 5  -1934830.61821
  24161579.195    -1148170.872 3   -728274.04121
 91  4 24 20 25 14.9990000  0  6G18G 2G11G19G16G 6
  21192828.0424    2176205.59448   1695737.70763
  22512982.6124   -7139832.65346  -5563489.24161
  23023538.636    -4491989.166 6  -3500240.86321
  20762936.292    -1193664.369 6   -930128.88022
  23805175.8944   -2731696.36245  -1955641.92061
  24153539.761    -1190446.072 4   -761215.65721
 91  4 24 20 25 29.9990000  0  6G18G 2G11G19G16G 6
  21197277.2304    2199597.81747   1713965.34563
  22503816.2224   -7187990.12946  -5601014.45161
  23018913.823    -4516317.638 6  -3519198.05521
  20761866.784    -1199304.153 6   -934523.52623
  23800112.269    -2758276.790 5  -1976353.94821
  24145487.745    -1232712.081 3   -794150.13221
 91  4 24 20 25 44.9990000  0  6G18G 2G11G19G16G 6
  21201749.2064    2223094.57947   1732274.44562
  22494667.0584   -7236076.08546  -5638483.93961
  23014309.5894   -4540504.74746  -3538045.08761
  20760801.003    -1204895.080 6   -938880.10522
  23795083.9404   -2784723.27245  -1996961.59261
  24137454.2224   -1274961.70243   -827071.80261
 91  4 24 20 25 59.9990000  0  6G18G 2G11G19G16G 6
  21206240.2374    2246696.59747   1750665.56263
  22485530.8234   -7284090.02246  -5675897.30762
  23009734.6594   -4564549.84446  -3556781.47261
  20759749.995    -1210436.485 6   -943198.10023
  23790078.940    -2811035.189 5  -2017464.38121
  24129418.565    -1317194.286 4   -859980.18421
 91  4 24 20 26 14.9990000  0  6G18G 2G11G19G16G 6
  21210752.3704    2270407.97047   1769141.89363
  22476408.7614   -7332027.30146  -5713250.93361
  23005184.5344   -4588448.17646  -3575403.49361
  20758700.933    -1215923.950 6   -947474.06323
  23785093.495    -2837207.998 5  -2037858.78921
  24121383.2924   -1359405.59344   -892872.00961
 91  4 24 20 26 29.9990000  0  6G18G 2G11G19G16G 6
  21215283.8394    2294222.08747   1787698.27963
  22467301.6364   -7379894.20746  -5750549.73162
  23000665.3234   -4612206.10946  -3593916.11661
  20757670.730    -1221364.051 6   -951713.11623
  23780146.550    -2863247.682 5  -2058149.46521
  24113352.183    -1401602.155 4   -925752.33921
 91  4 24 20 26 44.9990000  0  6G18G 2G11G19G16G 6
  21219833.737     2318139.081 7   1806334.82523
  22458202.7694   -7427690.34746  -5787793.37962
  22996174.1444   -4635822.86346  -3612318.72161
  20756638.526    -1226756.291 6   -955914.88223
  23775215.7534   -2889154.11645  -2078336.30161
  24105331.8944   -1443783.41744   -958620.77561
 91  4 24 20 26 59.9990000  0  6G18G 2G11G19G16G 6
  21224407.2304    2342160.96647   1825053.10563
  22449120.237    -7475413.554 6  -5824980.20721
  22991704.855    -4659296.361 6  -3630609.71021
  20755626.058    -1232098.474 6   -960077.63322
  23770306.8394   -2914924.95845  -2098417.49861
  24097308.3704   -1485947.46444   -991475.74961
 91  4 24 20 27 14.9990000  0  6G18G 2G11G19G16G 6
  21228996.7924    2366284.30447   1843850.44263
  22440054.5114   -7523067.12646  -5862112.76561
  22987265.315    -4682629.817 6  -3648791.56521
  20754617.058    -1237393.991 6   -964204.02423
  23765431.4014   -2940563.99345  -2118395.97361
  24089285.120    -1528097.789 3  -1024320.07621
 91  4 24 20 27 29.9990000  0  6G18G 2G11G19G16G 6
  21233608.6594    2390518.63347   1862734.26363
  22430999.5114   -7570641.31846  -5899183.47661
  22982854.183    -4705813.258 6  -3666856.53921
  20753618.097    -1242633.224 6   -968286.55623
  23760575.1364   -2966061.21345  -2138263.92261
  24081267.2534   -1570224.87843  -1057146.25661
 91  4 24 20 27 44.9990000  0  6G18G 2G11G19G16G 6
  21238239.792     2414856.642 7   1881698.87223
  22421964.1514   -7618143.09446  -5936197.75661
  22978469.722    -4728853.551 6  -3684809.96921
  20752628.948    -1247823.093 6   -972330.62222
  23755749.5894   -2991423.36645  -2158026.64561
  24073250.081    -1612335.706 3  -1089959.76221
 91  4 24 20 27 59.9990000  0  6G18G 2G11G19G16G 6
  21242890.6514    2439302.24547   1900747.32263
  22412940.5894   -7665568.25246  -5973152.33562
  22974115.4404   -4751746.34546  -3702648.45561
  20751657.3784   -1252959.61046   -976333.11563
  23750954.237    -3016646.333 5  -2177680.92121
  24065245.823    -1654426.354 4  -1122757.54121
 91  4 24 20 28 14.9990000  0  6G18G 2G11G19G16G 6
  21247565.6284    2463853.52547   1919878.12163
  22403925.3704   -7712918.45446  -6010048.50461
  22969784.4334   -4774493.49146  -3720373.46861
  20750686.831    -1258044.600 6   -980295.45422
  23746180.4874   -3041732.33245  -2197228.48561
  24057240.386    -1696498.726 5  -1155541.11021
 91  4 24 20 28 29.9990000  0  6G18G 2G11G19G16G 6
  21252254.6904    2488509.66247   1939090.62163
  22394929.8554   -7760193.85546  -6046886.38261
  22965482.534    -4797095.005 6  -3737984.97821
  20749729.269    -1263078.310 6   -984217.83822
  23741433.659    -3066681.425 5  -2216669.35821
  24049230.276    -1738553.104 5  -1188310.65521
 91  4 24 20 28 44.9990000  0  6G18G 2G11G19G16G 6
  21256966.784     2513269.568 7   1958383.98323
  22385946.4954   -7807395.87946  -6083667.09162
  22961210.144    -4819551.975 6  -3755483.87921
  20748779.612    -1268062.041 6   -988101.27922
  23736704.2694   -3091494.81345  -2236004.47661
  24041235.7924   -1780590.93645  -1221067.35661
 91  4 24 20 28 59.9990000  0  6G18G 2G11G19G16G 6
  21261697.8474    2538129.26647   1977755.10663
  22376977.8624   -7854528.19646  -6120393.48861
  22956960.167    -4841867.956 6  -3772872.90821
  20747842.003    -1272999.500 6   -991948.65623
  23732009.933    -3116176.060 5  -2255236.62921
  24033231.886    -1822615.858 4  -1253813.96321
 91  4 24 20 29 14.9990000  0  6G18G 2G11G19G16G 6
  21266448.206     2563096.300 7   1997209.86423
  22368024.7374   -7901582.64446  -6157059.20462
  22952744.378    -4864034.936 6  -3790145.82421
  20746911.886    -1277882.913 6   -995753.92322
  23727342.198    -3140717.242 5  -2274359.64721
  24025241.8704   -1864620.28544  -1286544.62761
 91  4 24 20 29 29.9990000  0  6G18G 2G11G19G16G 6
  21271221.097     2588166.804 7   2016745.24823
  22359081.815    -7948562.886 6  -6193667.09922
  22948554.644    -4886056.468 6  -3807305.40521
  20745993.870    -1282715.805 6   -999519.83023
  23722694.9954   -3165121.82045  -2293376.23761
  24017258.987    -1906607.867 5  -1319262.09321
 91  4 24 20 29 44.9990000  0  6G18G 2G11G19G16G 6
  21276008.870     2613343.597 7   2036363.45323
  22350156.9094   -7995465.97746  -6230214.87262
  22944392.862    -4907929.374 6  -3824349.17921
  20745082.5034   -1287495.08646  -1003243.94863
  23718083.308    -3189386.993 5  -2312284.16821
  24009274.2764   -1948575.65845  -1351964.18261
 91  4 24 20 29 59.9990000  0  6G18G 2G11G19G16G 6
  21280818.355     2638622.544 7   2056061.25823
  22341249.0114   -8042295.65446  -6266705.43462
  22940255.7224   -4929657.43046  -3841280.09261
  20744182.784    -1292224.695 6  -1006929.36523
  23713488.573    -3213516.767 5  -2331086.62121
  24001287.7844   -1990527.66544  -1384653.96561
 91  4 24 20 30 14.9990000  0  6G18G 2G11G19G16G 6
  21285650.339     2664004.699 7   2075839.48122
  22332347.292    -8089050.802 6  -6303137.92921
  22936147.3474   -4951239.26646  -3858097.06361
  20743291.737    -1296903.545 6  -1010575.23722
  23708924.948    -3237509.896 5  -2349782.58121
  23993308.7924   -2032462.91545  -1417330.68061
 91  4 24 20 30 29.9990000  0  6G18G 2G11G19G16G 6
  21290502.5894    2689494.43447   2095701.54563
  22323465.8084   -8135726.82746  -6339508.77062
  22932071.1204   -4972670.28546  -3874796.51861
  20742411.5424   -1301527.22746  -1014178.11163
  23704384.5584   -3261361.50145  -2368368.24161
  23985329.2064   -2074376.93145  -1449990.86761
 91  4 24 20 30 44.9990000  0  6G18G 2G11G19G16G 6
  21295372.261     2715091.737 7   2115647.41723
  22314600.753    -8182323.396 6  -6375817.70122
  22928021.667    -4993949.964 6  -3891378.03521
  20741544.058    -1306095.526 6  -1017737.83623
  23699871.9564   -3285071.57545  -2386843.65661
  23977356.2224   -2116269.32845  -1482634.20261
 91  4 24 20 30 59.9990000  0  6G18G 2G11G19G16G 6
  21300261.644     2740785.051 7   2135668.09923
  22305743.6444   -8228851.64346  -6412073.39062
  22924000.7534   -5015089.50146  -3907850.36261
  20740684.909    -1310619.634 6  -1021263.13022
  23695388.0264   -3308651.41845  -2405217.55061
  23969386.581    -2158151.668 5  -1515269.69321
 91  4 24 20 31 14.9990000  0  6G18G 2G11G19G16G 6
  21305172.800     2766587.250 7   2155773.63123
  22296904.9254   -8275298.43546  -6448265.60062
  22920006.558    -5036075.664 6  -3924203.17121
  20739830.5114   -1315086.28946  -1024743.64662
  23690927.0114   -3332087.88745  -2423479.74361
  23961419.0114   -2200011.01644  -1547887.26861
 91  4 24 20 31 29.9990000  0  6G18G 2G11G19G16G 6
  21310101.948     2792495.983 7   2175962.17723
  22288081.769    -8321666.086 6  -6484396.16322
  22916041.003    -5056910.598 6  -3940438.14021
  20738993.8624   -1319497.74446  -1028181.14462
  23686495.6904   -3355383.13345  -2441631.88661
  23953462.862    -2241849.629 5  -1580488.67321
 91  4 24 20 31 44.9990000  0  6G18G 2G11G19G16G 6
  21315054.401     2818513.840 7   2196235.75323
  22279272.417    -8367951.727 6  -6520462.80822
  22912104.9404   -5077591.42246  -3956553.03061
  20738165.0114   -1323851.44846  -1031573.64862
  23682090.745    -3378534.294 5  -2459671.76621
  23945499.6124   -2283664.75544  -1613071.79761
 91  4 24 20 31 59.9990000  0  6G18G 2G11G19G16G 6
  21320022.386     2844634.187 7   2216589.19423
  22270481.7064   -8414161.72446  -6556470.50862
  22908201.175    -5098124.478 6  -3972552.76121
  20737346.5034   -1328153.98146  -1034926.27662
  23677706.315    -3401547.791 5  -2477604.36521
  23937549.401    -2325463.082 4  -1645641.81521
 91  4 24 20 32 14.9990000  0  6G18G 2G11G19G16G 6
  21325013.151     2870853.207 7   2237019.51823
  22261700.8314   -8460299.59546  -6592422.01162
  22904316.0114   -5118512.97746  -3988439.87661
  20736533.4644   -1332408.51046  -1038241.49562
  23673355.269    -3424427.130 5  -2495432.44521
  23929596.628    -2367248.162 4  -1678201.51521
 91  4 24 20 32 29.9990000  0  6G18G 2G11G19G16G 6
  21330021.964     2897172.191 7   2257527.74223
  22252936.3084   -8506363.49046  -6628315.87362
  22900466.456    -5138755.202 6  -4004212.99321
  20735737.8084   -1336613.55146  -1041518.15962
  23669023.3004   -3447170.71645  -2513154.71661
  23921645.3234   -2409018.25744  -1710749.51961
 91  4 24 20 32 44.9990000  0  6G18G 2G11G19G16G 6
  21335049.8084    2923589.06447   2278112.24463
  22244184.464    -8552355.449 6  -6664153.67822
  22896640.6594   -5158853.13847  -4019873.68261
  20734945.8864   -1340771.06746  -1044757.78662
  23664724.1364   -3469780.74245  -2530772.93661
  23913691.636    -2450775.717 3  -1743287.68221
 91  4 24 20 32 59.9990000  0  6G18G 2G11G19G16G 6
  21340094.886     2950106.345 7   2298774.98323
  22235446.8864   -8598272.75546  -6699933.30462
  22892846.159    -5178803.934 7  -4035419.71121
  20734165.1514   -1344878.40446  -1047958.31162
  23660449.0734   -3492254.36045  -2548284.85661
  23905762.1364   -2492517.89144  -1775813.94961
 91  4 24 20 33 14.9990000  0  6G18G 2G11G19G16G 6
  21345196.136     2976907.863 7   2319659.20723
  22226757.667    -8643931.675 6  -6735511.60222
  22889111.1984   -5198423.57746  -4050707.70861
  20733426.1984   -1348751.72646  -1050976.49562
  23656231.409    -3514407.821 5  -2565547.30221
  23897854.1124   -2534061.05344  -1808185.15061
 91  4 24 20 33 29.9990000  0  6G18G 2G11G19G16G 6
  21350330.331     3003890.455 7   2340684.52723
  22218098.6284   -8689434.37746  -6770968.17562
  22885424.3004   -5217814.36247  -4065817.36061
  20732713.4874   -1352493.58346  -1053892.23063
  23652056.831    -3536343.566 5  -2582640.09821
  23889964.3084   -2575507.66544  -1840481.12061
 91  4 24 20 33 44.9990000  0  6G18G 2G11G19G16G 6
  21355487.136     3030978.868 7   2361792.29923
  22209455.042    -8734855.884 6  -6806361.47722
  22881760.440    -5237051.253 7  -4080807.10821
  20732010.4484   -1356178.97546  -1056763.97163
  23647914.112    -3558136.203 5  -2599621.39021
  23882079.526    -2616932.784 4  -1872760.28721
 91  4 24 20 33 59.9990000  0  6G18G 2G11G19G16G 6
  21360659.792     3058171.647 7   2382981.39323
  22200828.8474   -8780197.75546  -6841692.71762
  22878128.230    -5256135.743 6  -4095678.09621
  20731325.0504   -1359809.51046  -1059592.96863
  23643786.0344   -3579787.55045  -2616492.56061
  23874200.112    -2658338.215 4  -1905024.11021
 91  4 24 20 34 14.9990000  0  6G18G 2G11G19G16G 6
  21365854.550     3085466.096 7   2404249.71923
  22192217.394    -8825462.382 6  -6876963.76922
  22874525.7764   -5275070.26147  -4110432.23061
  20730642.097    -1363387.858 6  -1062381.30423
  23639690.9094   -3601300.16445  -2633255.66361
  23866325.808    -2699726.611 4  -1937274.69821
 91  4 24 20 34 29.9990000  0  6G18G 2G11G19G16G 6
  21371064.870     3112855.018 7   2425591.65323
  22183614.972    -8870656.776 6  -6912180.10422
  22870950.1054   -5293861.48347  -4125074.70061
  20729969.5264   -1366920.72446  -1065134.19363
  23635628.4564   -3622680.96945  -2649916.03961
  23858458.659    -2741104.850 4  -1969517.36721
 91  4 24 20 34 44.9990000  0  6G18G 2G11G19G16G 6
  21376299.495     3140348.811 7   2447015.30823
  22175027.8554   -8915770.10346  -6947333.25862
  22867405.362    -5312498.497 7  -4139597.00921
  20729307.3314   -1370397.00146  -1067842.98463
  23631589.925    -3643919.062 5  -2666465.18121
  23850576.190    -2782462.230 4  -2001743.75821
 91  4 24 20 34 59.9990000  0  6G18G 2G11G19G16G 6
  21381549.230     3167944.881 7   2468518.65923
  22166458.714    -8960804.513 6  -6982424.93422
  22863886.3004   -5330983.55047  -4154000.91161
  20728657.8004   -1373819.18446  -1070509.63062
  23627572.222    -3665016.903 5  -2682905.06921
  23842719.511    -2823801.095 5  -2033955.75221
 91  4 24 20 35 14.9990000  0  6G18G 2G11G19G16G 6
  21386819.823     3195639.984 7   2490099.17523
  22157906.105    -9005763.128 6  -7017457.53922
  22860397.526    -5349319.598 7  -4168288.69921
  20728014.0734   -1377190.59246  -1073136.70362
  23623587.237    -3685977.551 5  -2699238.06821
  23834856.8554   -2865124.64445  -2066155.79861
 91  4 24 20 35 29.9990000  0  6G18G 2G11G19G16G 6
  21392111.440     3223439.774 7   2511761.26823
  22149363.433    -9050640.142 6  -7052426.56022
  22856938.034    -5367500.935 7  -4182455.93921
  20727382.3154   -1380505.43446  -1075719.70363
  23619623.1054   -3706795.48745  -2715459.86161
  23826994.6204   -2906427.42544  -2098339.64161
 91  4 24 20 35 44.9990000  0  6G18G 2G11G19G16G 6
  21397418.667     3251337.920 7   2533500.00023
  22140839.855    -9095441.463 6  -7087336.60322
  22853507.800    -5385533.341 7  -4196507.11221
  20726762.0194   -1383769.73746  -1078263.32563
  23615683.261    -3727476.488 5  -2731574.95221
  23819133.925    -2947715.487 4  -2130512.03721
 91  4 24 20 35 59.9990000  0  6G18G 2G11G19G16G 6
  21402746.269     3279334.927 7   2555315.76923
  22132329.0344   -9140166.49346  -7122187.18562
  22850102.753    -5403416.056 7  -4210441.66321
  20726153.5974   -1386982.83246  -1080767.03763
  23611778.1594   -3748020.12345  -2747582.97761
  23811286.503    -2988988.174 5  -2162672.45421
 91  4 24 20 36 14.9990000  0  6G18G 2G11G19G16G 6
  21408093.6124    3307431.23947   2577208.90663
  22123832.003    -9184814.546 7  -7156977.80022
  22846728.0654   -5421148.27647  -4224258.94261
  20725547.401    -1390144.001 6  -1083230.29623
  23607897.1054   -3768425.60745  -2763483.35761
  23803433.097    -3030244.865 5  -2194820.41221
 91  4 24 20 36 29.9990000  0  6G18G 2G11G19G16G 6
  21413458.9724    3335620.82947   2599174.73363
  22115347.925    -9229391.266 6  -7191712.83122
  22843383.1594   -5438735.60847  -4237963.31661
  20724959.2144   -1393258.95746  -1085657.54563
  23604038.269    -3788698.494 5  -2779280.42721
  23795580.6514   -3071491.62745  -2226960.61861
 91  4 24 20 36 44.9990000  0  6G18G 2G11G19G16G 6
  21418841.5734    3363910.03547   2621218.18363
  22106880.753    -9273889.912 6  -7226387.01722
  22840064.9484   -5456171.36947  -4251549.58261
  20724375.7144   -1396320.86146  -1088043.45163
  23600202.378    -3808832.129 5  -2794968.98621
  23787735.261    -3112721.496 5  -2259087.68821
 91  4 24 20 36 59.9990000  0  6G18G 2G11G19G16G 6
  21424242.870     3392299.571 7   2643339.81623
  22098430.440    -9318309.617 7  -7260999.69622
  22836775.042    -5473454.707 7  -4265017.07521
  20723800.636    -1399329.028 6  -1090387.48623
  23596401.5114   -3828825.85245  -2810548.55761
  23779894.4484   -3153934.03345  -2291201.23761
 91  4 24 20 37 14.9990000  0  6G18G 2G11G19G16G 6
  21429665.511     3420791.145 7   2665540.95523
  22089992.448    -9362648.430 7  -7295549.34022
  22833514.6674   -5490583.61246  -4278364.23362
  20723243.401    -1402281.599 6  -1092688.20323
  23592625.870    -3848677.828 5  -2826017.64121
  23772053.4334   -3195127.33744  -2323299.80861
 91  4 24 20 37 29.9990000  0  6G18G 2G11G19G16G 6
  21435105.0654    3449378.65847   2687816.85063
  22081571.987    -9406912.133 7  -7330040.46522
  22830286.698    -5507563.774 6  -4291595.48421
  20722688.690    -1405184.420 6  -1094950.15322
  23588873.5974   -3868393.91045  -2841380.83461
  23764213.378    -3236307.300 4  -2355387.99421
 91  4 24 20 37 44.9990000  0  6G18G 2G11G19G16G 6
  21440563.8554    3478064.05647   2710169.01963
  22073163.214    -9451098.813 7  -7364471.56922
  22827079.222    -5524393.086 6  -4304709.19821
  20722145.417    -1408035.561 6  -1097171.83323
  23585143.4564   -3887972.02745  -2856636.52861
  23756382.894    -3277471.981 4  -2387464.24321
 91  4 24 20 37 59.9990000  0  6G18G 2G11G19G16G 6
  21446041.7304    3506845.00747   2732595.64663
  22064763.4954   -9495210.30047  -7398844.08362
  22823907.253    -5541073.162 6  -4317706.60821
  20721610.6204   -1410836.79546  -1099354.62162
  23581448.573    -3907413.637 5  -2871785.82921
  23748555.308    -3318623.356 4  -2419530.13121
 91  4 24 20 38 14.9990000  0  6G18G 2G11G19G16G 6
  21451534.8314    3535718.41647   2755094.31962
  22056386.4014   -9539249.40447  -7433160.20162
  22820759.167    -5557606.846 6  -4330589.95521
  20721087.0114   -1413590.97846  -1101500.74863
  23577780.651    -3926722.004 5  -2886831.33321
  23740721.261    -3359764.379 4  -2451587.96921
 91  4 24 20 38 29.9990000  0  6G18G 2G11G19G16G 6
  21457048.6204    3564684.17247   2777664.94562
  22048015.8234   -9583216.01047  -7467419.81962
  22817642.292    -5573994.091 6  -4343359.19321
  20720575.0034   -1416298.20746  -1103610.29063
  23574121.894    -3945897.079 5  -2901772.98221
  23732892.7064   -3400895.04744  -2483637.73161
 91  4 24 20 38 44.9990000  0  6G18G 2G11G19G16G 6
  21462577.3624    3593747.45447   2800311.56962
  22039665.901    -9627104.671 7  -7501618.69822
  22814554.4804   -5590229.42146  -4356010.06161
  20720066.144    -1418952.992 6  -1105678.96523
  23570497.519    -3964933.735 5  -2916606.76521
  23725070.151    -3442010.205 4  -2515675.44521
 91  4 24 20 38 59.9990000  0  6G18G 2G11G19G16G 6
  21468127.7694    3622911.36247   2823036.59862
  22031330.112    -9670911.922 7  -7535754.14222
  22811493.886    -5606309.358 6  -4368539.82221
  20719579.2224   -1421552.10546  -1107704.25762
  23566906.4094   -3983828.58945  -2931330.03161
  23717253.800    -3483106.574 4  -2547698.46121
 91  4 24 20 39 14.9990000  0  6G18G 2G11G19G16G 6
  21473695.0264    3652169.53847   2845835.09062
  22023008.495    -9714643.898 7  -7569830.93722
  22808464.573    -5622240.042 6  -4380953.31321
  20719086.237    -1424101.468 6  -1109690.78823
  23563334.175    -4002588.052 5  -2945947.82221
  23709435.1124   -3524190.26444  -2579711.60361
 91  4 24 20 39 29.9990000  0  6G18G 2G11G19G16G 6
  21479282.2534    3681529.19347   2868712.65863
  22014703.144    -9758293.131 7  -7603843.25622
  22805459.065    -5638014.024 6  -4393244.67621
  20718617.073    -1426593.760 6  -1111632.85423
  23559790.573    -4021204.235 5  -2960453.94421
  23701627.636    -3565254.068 5  -2611709.27321
 91  4 24 20 39 44.9990000  0  6G18G 2G11G19G16G 6
  21484889.7844    3710986.61747   2891666.39562
  22006410.5114   -9801862.96147  -7637793.70162
  22802485.6514   -5653634.32946  -4405416.30361
  20718147.7844   -1429032.22346  -1113532.96363
  23556272.4334   -4039680.40445  -2974850.98461
  23693805.7764   -3606301.09044  -2643693.86461
 91  4 24 20 39 59.9990000  0  6G18G 2G11G19G16G 6
  21490510.5194    3740531.15347   2914688.02662
  21998134.5344   -9845363.89047  -7671690.46562
  22799542.128    -5669111.528 6  -4417476.41421
  20717693.159    -1431427.454 6  -1115399.39223
  23552787.464    -4058027.500 5  -2989147.43321
  23685996.4644   -3647342.37344  -2675673.99361
 91  4 24 20 40 14.9990000  0  6G18G 2G11G19G16G 6
  21496151.2374    3770166.72347   2937780.58563
  21989869.8004   -9888791.86047  -7705530.37062
  22796626.386    -5684441.438 6  -4429421.75321
  20717246.417    -1433775.446 6  -1117229.01023
  23549317.7844   -4076241.40045  -3003340.08761
  23678191.5344   -3688373.70144  -2707646.36561
 91  4 24 20 40 29.9990000  0  6G18G 2G11G19G16G 6
  21501807.3474    3799895.14847   2960945.49863
  21981613.808    -9932144.629 6  -7739311.67622
  22793734.714    -5699621.689 6  -4441250.47221
  20716814.940    -1436074.007 6  -1119020.11023
  23545874.8154   -4094319.74145  -3017427.12961
  23670388.636    -3729392.926 5  -2739609.32021
 91  4 24 20 40 44.9990000  0  6G18G 2G11G19G16G 6
  21507480.4874    3829711.90647   2984179.24363
  21973380.0424   -9975426.32347  -7773037.60662
  22790875.0654   -5714656.52546  -4452965.88961
  20716379.972    -1438327.213 6  -1120775.87023
  23542464.0194   -4112267.00245  -3031412.00061
  23662581.8394   -3770404.42445  -2771566.22061
 91  4 24 20 40 59.9990000  0  6G18G 2G11G19G16G 6
  21513171.5264    3859623.31347   3007486.73363
  21965161.3864  -10018630.69647  -7806703.28662
  22788042.995    -5729539.559 6  -4464563.02421
  20715960.347    -1440528.676 6  -1122491.31123
  23539081.2374   -4130076.97445  -3045289.91061
  23654778.8474   -3811401.99944  -2803512.28761
 91  4 24 20 41 14.9990000  0  6G18G 2G11G19G16G 6
  21518884.0114    3889627.18047   3030866.27563
  21956953.347   -10061759.501 7  -7840310.07522
  22785238.7534   -5744272.49346  -4476043.19661
  20715550.440    -1442680.248 6  -1124167.87522
  23535708.4564   -4147751.22945  -3059062.04461
  23646985.308    -3852387.475 5  -2835448.90321
 91  4 24 20 41 29.9990000  0  6G18G 2G11G19G16G 6
  21524608.6124    3919721.28147   3054316.13463
  21948761.433   -10104814.568 7  -7873859.41022
  22782464.659    -5758857.165 6  -4487407.83621
  20715152.089    -1444784.094 6  -1125807.25023
  23532366.6204   -4165291.57245  -3072729.85161
  23639190.1124   -3893362.79645  -2867377.66361
 91  4 24 20 41 44.9990000  0  6G18G 2G11G19G16G 6
  21530353.0654    3949903.71447   3077834.81363
  21940581.6124  -10147797.61047  -7907352.62162
  22779717.4484   -5773295.36146  -4498658.33961
  20714760.940    -1446841.985 6  -1127410.81823
  23529059.8154   -4182700.38645  -3086295.15261
  23631382.800    -3934330.120 4  -2899300.13821
 91  4 24 20 41 59.9990000  0  6G18G 2G11G19G16G 6
  21536113.2374    3980173.87247   3101421.85763
  21932414.6514  -10190708.99847  -7940790.00562
  22776997.6444   -5787587.25346  -4509794.84861
  20714377.370    -1448853.974 6  -1128978.62323
  23525777.9014   -4199977.90945  -3099758.16461
  23623586.456    -3975289.452 5  -2931216.41121
 91  4 24 20 42 14.9990000  0  6G18G 2G11G19G16G 6
  21541891.2844    4010539.69947   3125083.44763
  21924263.8704  -10233540.45247  -7974165.09662
  22774304.440    -5801724.429 6  -4520810.79221
  20714005.487    -1450811.769 6  -1130504.18923
  23522507.7304   -4217115.47745  -3113112.12061
  23615804.3784   -4016232.72745  -2963120.17661
 91  4 24 20 42 29.9990000  0  6G18G 2G11G19G16G 6
  21547686.1364    4040995.35247   3148815.02263
  21916126.558   -10276297.788 7  -8007482.43622
  22771645.4874   -5815712.75446  -4531710.75461
  20713641.565    -1452721.255 6  -1131992.10822
  23519275.9404   -4234119.34545  -3126361.87661
  23608014.0734   -4057165.90345  -2995016.03961
 91  4 24 20 42 44.9990000  0  6G18G 2G11G19G16G 6
  21553498.5974    4071539.27947   3172615.39263
  21908005.0654  -10318981.97247  -8040742.76862
  22769010.9334   -5829553.34746  -4542495.58961
  20713286.425    -1454583.630 6  -1133443.32022
  23516069.269    -4250990.600 5  -3139508.29021
  23600222.433    -4098090.296 5  -3026905.06721
 91  4 24 20 42 59.9990000  0  6G18G 2G11G19G16G 6
  21559330.4174    4102175.14147   3196487.40263
  21899896.206   -10361589.238 7  -8073943.16622
  22766407.0424   -5843242.32147  -4553162.29161
  20712943.6594   -1456394.95646  -1134854.75062
  23512889.9014   -4267725.38445  -3152548.40361
  23592440.1284   -4139002.04745  -3058784.26961
 91  4 24 20 43 14.9990000  0  6G18G 2G11G19G16G 6
  21565177.3234    4132899.58347   3220428.42663
  21891806.3944  -10404122.66947  -8107086.03062
  22763828.8554   -5856782.65946  -4563713.17561
  20712605.144    -1458158.415 6  -1136228.88322
  23509727.0034   -4284326.80945  -3165484.56361
  23584660.8154   -4179904.22845  -3090656.00261
 91  4 24 20 43 29.9990000  0  6G18G 2G11G19G16G 6
  21571039.9404    4163710.81947   3244437.08363
  21883724.6674  -10446583.58047  -8140172.38762
  22761278.1834   -5870175.69346  -4574149.28161
  20712282.0584   -1459875.37246  -1137566.78262
  23506586.9484   -4300796.51545  -3178318.10861
  23576868.792    -4220798.573 5  -3122521.62721
 91  4 24 20 43 44.9990000  0  6G18G 2G11G19G16G 6
  21576919.136     4194611.715 7   3268515.60223
  21875658.3314  -10488968.72747  -8173199.70962
  22758758.9954   -5883418.32846  -4584468.18061
  20711965.2614   -1461542.65246  -1138865.96762
  23503485.4174   -4317131.44445  -3191046.63161
  23569081.784    -4261681.793 4  -3154378.62821
 91  4 24 20 43 59.9990000  0  6G18G 2G11G19G16G 6
  21582814.2924    4225597.78047   3292660.49662
  21867606.6054  -10531282.68847  -8206171.55962
  22756267.2144   -5896514.82447  -4594673.21561
  20711656.3554   -1463164.79846  -1140129.98062
  23500399.534    -4333335.740 5  -3203673.35821
  23561312.190    -4302558.558 4  -3186230.52521
 91  4 24 20 44 14.9990000  0  6G18G 2G11G19G16G 6
  21588728.1834    4256673.44347   3316875.20363
  21859567.9804  -10573520.90047  -8239084.38762
  22753803.2534   -5909460.58047  -4604760.78761
  20711356.0504   -1464737.13446  -1141355.18463
  23497331.8234   -4349404.98445  -3216194.83761
  23553545.8784   -4343424.26145  -3218073.84161
 91  4 24 20 44 29.9990000  0  6G18G 2G11G19G16G 6
  21594659.8154    4287834.10547   3341156.13462
  21851544.6754  -10615687.52647  -8271941.42662
  22751368.6904   -5922259.77847  -4614734.15961
  20711064.3004   -1466263.88746  -1142544.87263
  23494304.5734   -4365343.54245  -3228614.49961
  23545764.909    -4384283.307 5  -3249911.98221
 91  4 24 20 44 44.9990000  0  6G18G 2G11G19G16G 6
  21600606.4804    4319083.33847   3365506.09262
  21843533.1594  -10657778.54447  -8304739.55662
  22748960.4014   -5934908.53746  -4624590.29861
  20710782.5034   -1467741.15646  -1143695.99863
  23491305.2144   -4381147.73645  -3240929.46261
  23537985.5584   -4425131.78945  -3281741.84061
 91  4 24 20 44 59.9990000  0  6G18G 2G11G19G16G 6
  21606569.9874    4350420.75247   3389924.75562
  21835539.5034  -10699794.17347  -8337478.94162
  22746582.1834   -5947406.91146  -4634329.25461
  20710512.269    -1469168.990 6  -1144808.60523
  23488321.995    -4396817.521 5  -3253139.70221
  23530220.519    -4465969.950 5  -3313563.68821
 91  4 24 20 45 14.9990000  0  6G18G 2G11G19G16G 6
  21612551.8234    4381851.47447   3414416.12862
  21827559.073   -10741729.199 7  -8370155.51022
  22744237.2304   -5959749.63247  -4643946.93061
  20710250.980    -1470542.225 6  -1145878.67123
  23485354.2614   -4412347.84245  -3265241.25561
  23522462.6444   -4506792.65545  -3345373.48961
 91  4 24 20 45 29.9990000  0  6G18G 2G11G19G16G 6
  21618550.7534    4413377.70047   3438981.92462
  21819594.0894  -10783580.98347  -8402767.22462
  22741915.464    -5971934.188 6  -4653441.34621
  20710002.1364   -1471858.34846  -1146904.22863
  23482429.230    -4427736.281 5  -3277232.26021
  23514689.1594   -4547597.55745  -3377169.42361
 91  4 24 20 45 44.9990000  0  6G18G 2G11G19G16G 6
  21624562.909     4444990.351 7   3463615.06122
  21811642.9174  -10825358.13747  -8435320.78562
  22739626.1834   -5983969.06946  -4662819.13861
  20709760.0504   -1473126.08247  -1147892.08063
  23479527.1904   -4442991.94645  -3289119.79961
  23506909.0424   -4588393.30744  -3408958.19361
 91  4 24 20 45 59.9990000  0  6G18G 2G11G19G16G 6
  21630599.5504    4476695.19847   3488320.04162
  21803710.0034  -10867054.60547  -8467811.47362
  22737363.1904   -5995848.34246  -4672075.68561
  20709529.4564   -1474339.31046  -1148837.46163
  23476648.2534   -4458108.28045  -3300898.75761
  23499165.792    -4629174.033 5  -3440735.28521
 91  4 24 20 46 14.9990000  0  6G18G 2G11G19G16G 6
  21636649.3704    4508484.55947   3513090.87162
  21795787.9724  -10908677.90847  -8500245.14362
  22735134.245    -6007579.419 6  -4681216.73821
  20709306.128    -1475505.694 6  -1149746.33523
  23473797.995    -4473092.742 5  -3312574.99521
  23491409.7694   -4669947.21445  -3472506.51161
 91  4 24 20 46 29.9990000  0  6G18G 2G11G19G16G 6
  21642715.855     4540368.006 7   3537935.01622
  21787882.6674  -10950218.56447  -8532614.41662
  22732932.6754   -6019152.69346  -4690234.83761
  20709095.9804   -1476615.56746  -1150611.17863
  23470973.7694   -4487935.98245  -3324141.18161
  23483641.261    -4710703.453 5  -3504264.50721
 91  4 24 20 46 44.9990000  0  6G18G 2G11G19G16G 6
  21648801.6984    4572337.83747   3562846.47362
  21779994.5194  -10991683.56647  -8564924.74262
  22730756.7374   -6030575.26946  -4699135.50561
  20708892.6754   -1477675.89246  -1151437.41363
  23468176.730    -4502645.438 5  -3335603.11021
  23475890.1284   -4751449.89145  -3536014.87761
 91  4 24 20 46 59.9990000  0  6G18G 2G11G19G16G 6
  21654900.847     4604389.114 7   3587821.39922
  21772114.9724  -11033077.67246  -8597179.82562
  22728612.9644   -6041851.95046  -4707922.49161
  20708700.4254   -1478691.43746  -1152228.74963
  23465405.706    -4517226.050 5  -3346964.63921
  23468135.9874   -4792191.35345  -3567761.37661
 91  4 24 20 47 14.9990000  0  6G18G 2G11G19G16G 6
  21661016.776     4636534.153 7   3612869.37322
  21764257.5814  -11074388.36647  -8629369.90962
  22726500.0654   -6052970.13646  -4716585.98361
  20708515.8554   -1479649.89246  -1152975.60463
  23462645.440    -4531665.187 5  -3358215.94321
  23460392.026    -4832915.416 5  -3599494.33121
 91  4 24 20 47 29.9990000  0  6G18G 2G11G19G16G 6
  21667147.4014    4668767.58547   3637986.23262
  21756409.4484  -11115620.68247  -8661498.91662
  22724411.8474   -6063934.83246  -4725129.86261
  20708345.8554   -1480556.29746  -1153681.90463
  23459934.9874   -4545968.11845  -3369361.10161
  23452646.0264   -4873627.24645  -3631217.74061
 91  4 24 20 47 44.9990000  0  6G18G 2G11G19G16G 6
  21673298.378     4701085.750 7   3663169.11222
  21748576.0654  -11156777.93147  -8693569.43762
  22722352.4724   -6074749.16146  -4733556.58161
  20708181.3004   -1481413.71147  -1154350.02063
  23457243.4404   -4560137.96245  -3380402.55861
  23444894.0424   -4914330.08345  -3662934.13261
 91  4 24 20 47 59.9990000  0  6G18G 2G11G19G16G 6
  21679465.6904    4733490.49047   3688419.46362
  21740758.8394  -11197858.51647  -8725580.22362
  22720324.1514   -6085411.45946  -4741864.83561
  20708028.4334   -1482220.21047  -1154978.46963
  23454557.792    -4574172.763 5  -3391338.80221
  23437154.0584   -4955022.30845  -3694642.29361
 91  4 24 20 48 14.9990000  0  6G18G 2G11G19G16G 6
  21685647.651     4765974.702 7   3713731.72922
  21732953.9334  -11238868.98547  -8757536.36362
  22718323.9954   -6095928.40946  -4750059.81861
  20707879.823    -1482982.770 6  -1155572.68323
  23451915.0974   -4588079.74445  -3402175.45161
  23429408.831    -4995710.826 5  -3726347.55321
 91  4 24 20 48 29.9990000  0  6G18G 2G11G19G16G 6
  21691847.667     4798543.354 7   3739109.78022
  21725164.7764  -11279803.94347  -8789433.67262
  22716349.3704   -6106294.68346  -4758137.39861
  20707751.1904   -1483696.12546  -1156128.55463
  23449302.6124   -4601853.89145  -3412908.55861
  23421669.8624   -5036390.29644  -3758045.72861
 91  4 24 20 48 44.9990000  0  6G18G 2G11G19G16G 6
  21698059.636     4831196.264 7   3764553.49822
  21717389.3864  -11320663.35047  -8821272.11062
  22714403.9404   -6116510.20646  -4766097.50961
  20707620.7224   -1484359.96746  -1156645.83663
  23446696.3394   -4615495.01745  -3423538.04061
  23413930.9954   -5077060.64245  -3789736.81861
 91  4 24 20 48 59.9990000  0  6G18G 2G11G19G16G 6
  21704289.620     4863935.846 7   3790064.75922
  21709628.6514  -11361444.48547
  22712486.9564   -6126572.34546  -4773938.10861
  20707509.3704   -1484971.69146  -1157122.51463
  23444127.628    -4629000.334 5  -3434061.71021
  23406190.878    -5117719.438 4
 91  4 24 20 49 14.9990000  0  6G18G 2G11G19G16G 6
  21710536.964     4896759.201 7   3815641.28222
  21701882.230   -11402149.929 7
  22710600.206    -6136483.836 6  -4781661.32321
  20707398.620    -1485534.187 7  -1157560.83523
  23441596.542    -4642372.679 5  -3444481.72121
  23398462.776    -5158369.477 5
 91  4 24 20 49 29.9990000  0  6G18G 2G11G19G16G 6
  21716798.972     4929658.285 7   3841276.82022
  21694149.9254  -11442787.41047
  22708743.917    -6146252.091 6  -4789272.93421
  20707299.4874   -1486054.91946  -1157966.61063
  23439064.628    -4655619.739 5  -3454804.11121
  23390728.667    -5199018.345 5
 91  4 24 20 49 44.9990000  0  6G18G 2G11G19G16G 6
  21723074.948     4962649.645 7   3866984.25922
  21686434.667   -11483340.304 7  -8948033.14522
  22706916.464    -6155860.561 6  -4796760.03621
  20707212.370    -1486517.385 7  -1158326.98323
  23436564.456    -4668725.173 5  -3465016.17321
  23382990.5814   -5239649.48345  -3916429.06361
 91  4 24 20 49 59.9990000  0  6G18G 2G11G19G16G 6
  21729370.0734    4995724.18247   3892756.50562
  21678733.3784  -11523817.35447  -8979573.63963
  22705115.901    -6165317.954 6  -4804129.42021
  20707133.5654   -1486930.22447  -1158648.67863
  23434096.6594   -4681697.66945  -3475124.64361
  23375264.800    -5280271.710 5  -3948082.66821
 91  4 24 20 50 14.9990000  0  6G18G 2G11G19G16G 6
  21735678.565     5028878.927 7   3918591.25722
  21671043.2374  -11564221.22147  -9011057.10663
  22703344.964    -6174627.066 7  -4811383.26221
  20707062.253    -1487296.165 6  -1158933.83723
  23431665.3314   -4694540.25045  -3485131.86861
  23367534.550    -5320887.912 5  -3979731.57721
 91  4 24 20 50 29.9990000  0  6G18G 2G11G19G16G 6
  21742001.683     5062117.005 7   3944490.94022
  21663371.7374  -11604548.78747  -9042481.12663
  22701601.5814   -6183784.67047  -4818519.04561
  20707005.6124   -1487611.80946  -1159179.80663
  23429236.7224   -4707249.69145  -3495035.37161
  23359801.081    -5361494.886 5  -4011373.27221
 91  4 24 20 50 44.9990000  0  6G18G 2G11G19G16G 6
  21748343.831     5095436.113 7   3970453.76722
  21655708.4724  -11644801.89047  -9073847.11663
  22699885.5814   -6192792.58247  -4825538.19661
  20706953.5034   -1487879.08446  -1159388.07463
  23426837.0034   -4719827.90945  -3504836.62561
  23352081.0504   -5402094.55045  -4043009.26761
 91  4 24 20 50 59.9990000  0  6G18G 2G11G19G16G 6
  21754698.3154    5128829.47647   3996474.44862
  21648063.1364  -11684986.88047  -9105160.03962
  22698201.0034   -6201657.09547  -4832445.59261
  20706912.5974   -1488104.39746  -1159563.65063
  23424478.550    -4732281.221 5  -3514540.52821
  23344358.9804   -5442693.38445  -4074644.65361
 91  4 24 20 51 14.9990000  0  6G18G 2G11G19G16G 6
  21761068.6444    5162311.19147   4022563.97862
  21640430.011   -11725089.511 7  -9136408.78522
  22696544.2764   -6210364.10147  -4839230.27261
  20706878.019    -1488273.535 6  -1159695.45823
  23422138.3154   -4744595.65145  -3524136.22461
  23336631.4564   -5483277.20645  -4106268.30461
 91  4 24 20 51 29.9990000  0  6G18G 2G11G19G16G 6
  21767457.9014    5195874.58047   4048717.13862
  21632814.019   -11765116.272 7  -9167598.41322
  22694918.4094   -6218920.03247  -4845897.22461
  20706859.167    -1488392.931 6
  23419814.542    -4756777.751 5  -3533628.79421
  23328908.331    -5523852.617 5  -4137885.45321
 91  4 24 20 51 44.9990000  0  6G18G 2G11G19G16G 6
  21773861.4404    5229523.76547   4074937.16262
  21625209.6984  -11805062.74947  -9198725.47762
  22693316.8554   -6227320.55346  -4852443.07961
  20706842.698    -1488458.201 6
  23417521.909    -4768823.384 5  -3543015.04621
  23321184.894    -5564415.272 5  -4169492.60921
 91  4 24 20 51 59.9990000  0  6G18G 2G11G19G16G 6
  21780279.394     5263250.677 7   4101217.73822
  21617624.300   -11844936.799 7  -9229796.11222
  22691748.003    -6235573.485 6  -4858873.93221
  20706840.378    -1488477.089 6
  23415264.0344   -4780740.34145  -3552301.01861
  23313473.9014   -5604973.11545  -4201096.03661
 91  4 24 20 52 14.9990000  0  6G18G 2G11G19G16G 6
  21786709.2224    5297057.30947   4127560.44762
  21610049.7064  -11884735.72247  -9260808.20162
  22690204.6054   -6243676.16046  -4865187.69461
  20706844.089    -1488447.032 6
  23413012.4644   -4792526.12345  -3561484.79361
  23305759.8004   -5645523.49345  -4232693.64061
 91  4 24 20 52 29.9990000  0  6G18G 2G11G19G16G 6
  21793159.8004    5330943.44147   4153965.09962
  21602489.292   -11924459.782 7  -9291761.96322
  22688692.5584   -6251628.80746  -4871384.55561
  20706862.206    -1488368.204 6
  23410798.8394   -4804180.67945  -3570566.29461
  23298040.870    -5686066.675 5  -4264285.66821
 91  4 24 20 52 44.9990000  0  6G18G 2G11G19G16G 6
  21799623.9644    5364907.91647   4180430.79962
  21594946.995   -11964109.892 7  -9322658.09022
  22687207.167    -6259432.362 6  -4877465.23621
  20706883.136    -1488241.565 6
  23408600.698    -4815705.179 5  -3579546.46721
  23290327.065    -5726603.796 5  -4295872.94421
 91  4 24 20 52 59.9990000  0  6G18G 2G11G19G16G 6
  21806102.261     5398958.790 7   4206963.81622
  21587417.3234  -12003677.69247  -9353490.08362
  22685751.2614   -6267078.54746  -4883423.29361
  20706921.487    -1488058.872 6
  23406435.730    -4827091.762 5  -3588419.14221
  23282610.8234   -5767126.57545  -4327449.04661
 91  4 24 20 53 14.9990000  0  6G18G 2G11G19G16G 6
  21812596.7454    5433091.61647   4233560.69762
  21579904.0264  -12043167.46047  -9384261.27962
  22684322.1364   -6274571.49146  -4889261.93861
  20706962.573    -1487824.237 7
  23404297.667    -4838344.523 5  -3597187.57721
  23274907.8084   -5807639.19145  -4359017.26161
 91  4 24 20 53 29.9990000  0  6G18G 2G11G19G16G 6
  21819106.8864    5467304.27847   4260219.79062
  21572401.097   -12082580.803 7  -9414972.92122
  22682927.315    -6281913.002 6  -4894982.58321
  20707017.253    -1487539.361 6  -1159123.49323
  23402180.730    -4849465.636 5  -3605853.41221
  23267199.081    -5848143.553 5  -4390579.03921
 91  4 24 20 53 44.9990000  0  6G18G 2G11G19G16G 6
  21825635.0264    5501594.80347   4286939.55262
  21564915.886   -12121919.637 7  -9445626.50722
  22681562.1834   -6289105.03546  -4900586.75761
  20707080.956    -1487206.074 6  -1158863.80623
  23400084.0584   -4860456.85645  -3614418.03261
  23259479.526    -5888641.658 5  -4422135.91921
 91  4 24 20 53 59.9990000  0  6G18G 2G11G19G16G 6
  21832171.308     5535960.237 7   4313717.68622
  21557443.065   -12161186.634 7  -9476224.10722
  22680217.573    -6296150.031 6  -4906076.35521
  20707152.917    -1486826.876 6  -1158568.34223
  23398023.214    -4871320.786 5  -3622883.46321
  23251788.315    -5929135.862 5  -4453689.75221
 91  4 24 20 54 14.9990000  0  6G18G 2G11G19G16G 6
  21838728.683     5570410.812 7   4340562.15922
  21549987.745   -12200371.293 7  -9506757.55122
  22678906.628    -6303037.549 6  -4911443.24421
  20707233.667    -1486391.326 6  -1158228.96723
  23395978.4804   -4882047.04045  -3631241.62861
  23244085.167    -5969616.020 5  -4485232.65521
 91  4 24 20 54 29.9990000  0  6G18G 2G11G19G16G 6
  21845304.1444    5604947.25147   4367473.54062
  21542545.6514  -12239472.38147  -9537225.87962
  22677629.6284   -6309766.48446  -4916686.57061
  20707329.245    -1485898.186 6  -1157844.71523
  23393962.9404   -4892634.50745  -3639491.64761
  23236380.901    -6010080.845 5  -4516763.61421
 91  4 24 20 54 44.9990000  0  6G18G 2G11G19G16G 6
  21851886.7224    5639556.63547   4394441.76562
  21535120.1364  -12278502.94047  -9567639.24362
  22676376.3394   -6316349.85146  -4921816.46161
  20707432.214    -1485360.392 6  -1157425.66523
  23391966.1514   -4903096.32445  -3647643.74761
  23228674.4094   -6050543.49845  -4548292.85461
 91  4 24 20 54 59.9990000  0  6G18G 2G11G19G16G 6
  21858487.440     5674244.330 7   4421471.01222
  21527703.214   -12317457.157 7  -9597993.12823
  22675152.1594   -6322781.98446  -4926828.50861
  20707543.800    -1484772.274 6  -1156967.40723
  23390009.6284   -4913427.25945  -3655693.84361
  23220978.722    -6090998.291 5  -4579815.99721
 91  4 24 20 55 14.9990000  0  6G18G 2G11G19G16G 6
  21865106.4094    5709007.95647   4448559.42962
  21520307.214   -12356336.847 7  -9628288.93822
  22673954.2694   -6329064.77046  -4931724.18661
  20707664.620    -1484135.808 6  -1156471.47423
  23388070.831    -4923629.069 5  -3663643.34121
  23213294.417    -6131447.239 5  -4611334.59321
 91  4 24 20 55 29.9990000  0  6G18G 2G11G19G16G 6
  21871733.456     5743850.415 7   4475709.25822
  21512923.081   -12395138.988 7  -9658524.32523
  22672791.737    -6335194.956 6  -4936500.94521
  20707795.706    -1483447.572 6  -1155935.20023
  23386154.003    -4933698.592 5  -3671489.77321
  23205596.5584   -6171887.08545  -4642846.09061
 91  4 24 20 55 44.9990000  0  6G18G 2G11G19G16G 6
  21878379.7144    5778768.97147   4502918.39761
  21505555.1834  -12433866.00147  -9688701.16162
  22671651.0034   -6341175.06646  -4941160.77261
  20707936.245    -1482710.082 6  -1155360.55023
  23384260.0424   -4943638.46745  -3679235.15661
  23197897.8784   -6212320.46945  -4674352.54561
 91  4 24 20 55 59.9990000  0  6G18G 2G11G19G16G 6
  21885040.534     5813763.666 7   4530186.85822
  21498200.815   -12472517.666 7  -9718819.28723
  22670539.9874   -6347004.80146  -4945703.41361
  20708089.3944   -1481923.14646  -1154747.36563
  23382398.151    -4953448.557 5  -3686879.43521
  23190193.8234   -6252747.22045  -4705853.83061
 91  4 24 20 56 14.9990000  0  6G18G 2G11G19G16G 6
  21891716.472     5848836.419 7   4557516.13921
  21490857.769   -12511091.860 7  -9748877.04622
  22669463.8004   -6352682.17746  -4950127.33661
  20708244.401    -1481084.611 6  -1154093.97823
  23380553.2224   -4963127.00745  -3694421.12261
  23182508.800    -6293165.136 5  -4737348.24021
 91  4 24 20 56 29.9990000  0  6G18G 2G11G19G16G 6
  21898403.542     5883980.141 7   4584900.72522
  21483532.448   -12549595.380 7  -9778879.73723
  22668410.0264   -6358214.02046  -4954437.85761
  20708416.620    -1480201.229 6  -1153405.65123
  23378730.151    -4972680.587 5  -3701865.52421
  23174829.2924   -6333581.19145  -4768841.21361
 91  4 24 20 56 44.9990000  0  6G18G 2G11G19G16G 6
  21905099.7064    5919195.54846   4612341.17261
  21476215.839   -12588027.161 7  -9808826.53022
  22667382.6444   -6363599.44846  -4958634.29361
  20708588.628    -1479272.041 6  -1152681.62522
  23376942.5584   -4982108.59145  -3709212.04061
  23167138.144    -6373994.531 5  -4800332.04621
 91  4 24 20 56 59.9990000  0  6G18G 2G11G19G16G 6
  21911820.409     5954490.064 7   4639843.25922
  21468919.878   -12626379.702 7  -9838711.57723
  22666389.4334   -6368830.79246  -4962710.66461
  20708776.409    -1478289.317 6  -1151915.88923
  23375173.2304   -4991403.33745  -3716454.72261
  23159433.597    -6414397.461 5  -4831814.76621
 91  4 24 20 57 14.9990000  0  6G18G 2G11G19G16G 6
  21918549.651     5989855.768 7   4667400.81622
  21461634.480   -12664660.475 7  -9868540.70022
  22665421.0194   -6373915.61246  -4966672.84861
  20708972.2764   -1477260.71146  -1151114.38463
  23373423.7224   -5000572.33745  -3723599.47861
  23151748.511    -6454797.608 5  -4863295.33121
 91  4 24 20 57 29.9990000  0  6G18G 2G11G19G16G 6
  21925295.9644    6025310.58147   4695027.81462
  21454368.144   -12702851.319 7  -9898299.74623
  22664487.4014   -6378835.84146  -4970506.79861
  20709181.980    -1476167.946 6  -1150262.89723
  23371708.636    -5009597.953 5  -3730632.46521
  23144075.870    -6495176.933 5  -4894759.67821
 91  4 24 20 57 44.9990000  0  6G18G 2G11G19G16G 6
  21932059.214     6060840.728 7   4722713.50622
  21447114.386   -12740965.577 7  -9927999.12023
  22663578.8864   -6383604.91246  -4974222.95461
  20709400.019    -1475024.484 6  -1149371.90823
  23370019.1054   -5018493.70645  -3737564.27661
  23136394.636    -6535548.846 5  -4926218.24921
 91  4 24 20 57 59.9990000  0  6G18G 2G11G19G16G 6
  21938829.3624    6096447.80746   4750459.15062
  21439876.198   -12779001.693 7  -9957637.59923
  22662697.1834   -6388221.20046  -4977820.05961
  20709628.995    -1473828.457 6  -1148439.95823
  23368342.3234   -5027257.83645  -3744393.48861
  23128703.425    -6575911.702 5  -4957669.75121
 91  4 24 20 58 14.9990000  0  6G18G 2G11G19G16G 6
  21945621.901     6132131.584 7   4778264.54422
  21432654.980   -12816959.531 7  -9987215.08423
  22661846.1364   -6392684.62146  -4981298.04561
  20709863.003    -1472579.729 6  -1147466.94923
  23366710.112    -5035890.286 5  -3751120.11921
  23121022.0504   -6616265.44645  -4989114.12961
 91  4 24 20 58 29.9990000  0  6G18G 2G11G19G16G 6
  21952423.542     6167890.717 6   4806128.66522
  21425444.815   -12854840.072 7 -10016732.33723
  22661028.0194   -6396996.14146  -4984657.66461
  20710112.370    -1471279.249 6  -1146453.61023
  23365091.964    -5044392.376 5  -3757745.16021
  23113348.1754   -6656611.18545  -5020552.31061
 91  4 24 20 58 44.9990000  0  6G18G 2G11G19G16G 6
  21959246.886     6203723.736 7   4834050.36922
  21418249.042   -12892644.573 7 -10046190.33223
  22660237.1054   -6401157.06146  -4987899.92761
  20710369.151    -1469928.192 6  -1145400.85223
  23363483.3314   -5052765.30945  -3764269.56861
  23105674.0194   -6696950.01945  -5051985.14361
 91  4 24 20 58 59.9990000  0  6G18G 2G11G19G16G 6
  21966082.706     6239634.570 7   4862032.69722
  21411071.964   -12930368.718 7 -10075585.72023
  22659473.5424   -6405163.27646  -4991021.64961
  20710634.980    -1468522.478 6  -1144305.51423
  23361922.159    -5061005.208 5  -3770690.32421
  23098003.394    -6737278.008 5  -5083409.46621
 91  4 24 20 59 14.9990000  0  6G18G 2G11G19G16G 6
  21972929.167     6275626.290 6   4890078.05122
  21403910.698   -12968009.378 7 -10104916.05623
  22658741.4334   -6409011.51546  -4994020.27161
  20710913.800    -1467058.778 6  -1143164.99123
  23360388.722    -5069108.737 5  -3777004.79421
  23090327.972    -6777591.879 5  -5114822.79021
 91  4 24 20 59 29.9990000  0  6G18G 2G11G19G16G 6
  21979793.0034    6311691.44746   4918180.62762
  21396760.339   -13005573.451 7 -10134186.71323
  22658038.2534   -6412708.74146  -4996901.23161
  20711201.339    -1465544.202 6  -1141984.82123
  23358866.8394   -5077083.20245  -3783218.72461
  23082650.0344   -6817898.69545  -5146230.62561
 91  4 24 20 59 44.9990000  0  6G18G 2G11G19G16G 6
  21986667.519     6347831.182 6   4946341.31522
  21389628.862   -13043059.758 7 -10163396.76723
  22657362.9334   -6416254.03546  -4999663.79061
  20711501.605    -1463977.437 6  -1140763.98523
  23357367.597    -5084927.339 5  -3789331.11121
  23074987.065    -6858197.394 5  -5177632.13821
 91  4 24 20 59 59.9990000  0  6G18G 2G11G19G16G 6
  21993559.003     6384042.240 6   4974557.58422
  21382507.558   -13080471.144 7 -10192548.44623
  22656714.5584   -6419650.18746  -5002310.13761
  20711810.315    -1462361.292 6  -1139504.66823
  23355910.222    -5092644.271 5  -3795344.33021
  23067323.2224   -6898490.65345  -5209029.40361
 91  4 24 21  0 14.9990000  0  6G18G 2G11G19G16G 6
  22000469.425     6420333.586 6   5002836.41222
  21375405.198   -13117798.383 7 -10221634.56323
  22656101.0264   -6422887.92246  -5004833.05061
  20712125.761    -1460686.442 6  -1138199.61523
  23354464.026    -5100224.678 5  -3801251.21321
  23059662.0734   -6938769.34045  -5240415.36061
 91  4 24 21  0 29.9990000  0  6G18G 2G11G19G16G 6
  22007387.3864    6456694.83146   5031169.70461
  21368315.815   -13155051.644 7 -10250663.02622
  22655515.8474   -6425977.43846  -5007240.46461
  20712455.042    -1458963.079 6  -1136856.75123
  23353041.9174   -5107679.07645  -3807059.88161
  23051997.089    -6979043.671 5  -5271797.85621
 91  4 24 21  0 44.9990000  0  6G18G 2G11G19G16G 6
  22014319.245     6493125.927 6   5059557.43422
  21361240.487   -13192230.687 7 -10279633.66023
  22654956.3234   -6428918.60246  -5009532.27962
  20712793.073    -1457190.851 6  -1135475.81423
  23351647.769    -5115007.281 5  -3812770.21821
  23044327.355    -7019313.414 5  -5303176.78621
 91  4 24 21  0 59.9990000  0  6G18G 2G11G19G16G 6
  22021265.472     6529630.550 6   5088002.45021
  21354181.323   -13229331.774 7 -10308543.55023
  22654424.0264   -6431707.59546  -5011705.52461
  20713141.683    -1455366.072 6  -1134053.92822
  23350275.815    -5122205.806 5  -3818379.51521
  23036666.401    -7059574.886 5  -5334549.31421
 91  4 24 21  1 14.9990000  0  6G18G 2G11G19G16G 6
  22028225.5654    6566211.64046   5116507.04862
  21347136.972   -13266351.376 7 -10337389.94623
  22653921.4254   -6434341.06646  -5013757.57661
  20713496.347    -1453485.105 6  -1132588.25323
  23348932.9644   -5129271.19945  -3823885.05261
  23029015.9404   -7099824.63345  -5365912.69561
 91  4 24 21  1 29.9990000  0  6G18G 2G11G19G16G 6
  22035203.5814    6602866.90146   5145069.43762
  21340108.769   -13303291.891 7 -10366174.70823
  22653450.7614   -6436821.30646  -5015690.22861
  20713867.995    -1451550.346 6  -1131080.67122
  23347622.9564   -5136205.77145  -3829288.67561
  23021353.3554   -7140065.04445  -5397268.78361
 91  4 24 21  1 44.9990000  0  6G18G 2G11G19G16G 6
  22042191.0344    6639590.17146   5173684.82162
  21333091.800   -13340158.858 7 -10394902.17123
  22653004.6984   -6439154.07346  -5017507.97861
  20714241.792    -1449567.243 6  -1129535.41423
  23346323.175    -5143015.500 5  -3834595.02821
  23013690.0974   -7180301.70845  -5428621.95861
 91  4 24 21  1 59.9990000  0  6G18G 2G11G19G16G 6
  22049194.8784    6676386.70646   5202357.29662
  21326092.581   -13376946.901 7 -10423568.12823
  22652589.6904   -6441333.93646  -5019206.56861
  20714629.987    -1447530.222 6  -1127948.14123
  23345053.0894   -5149695.01145  -3839799.89761
  23006032.120    -7220529.278 5  -5459968.04221
 91  4 24 21  2 14.9990000  0  6G18G 2G11G19G16G 6
  22056213.3234    6713258.77946   5231088.63862
  21319104.745   -13413653.526 7 -10452170.64623
  22652207.8624   -6443358.49946  -5020784.15061
  20715028.003    -1445436.914 6  -1126317.01023
  23343806.581    -5156241.958 5  -3844901.48321
  22998389.1444   -7260745.35345  -5491305.18961
 91  4 24 21  2 29.9990000  0  6G18G 2G11G19G16G 6
  22063242.0584    6750212.55246   5259883.64062
  21312137.378   -13450272.061 7 -10480704.52223
  22651851.2304   -6445221.12246  -5022235.54561
  20715438.253    -1443280.464 6  -1124636.68123
  23342587.1364   -5162649.91345  -3849894.74161
  22990741.9954   -7300943.30445  -5522628.20661
 91  4 24 21  2 44.9990000  0  6G18G 2G11G19G16G 6
  22070288.050     6787240.343 6   5288736.31022
  21305186.144   -13486810.102 7 -10509175.67723
  22651530.3004   -6446929.57746  -5023566.81261
  20715858.948    -1441068.546 6  -1122913.12823
  23341388.503    -5168926.632 5  -3854785.76221
  22983089.0114   -7341130.72945  -5553943.00461
 91  4 24 21  2 59.9990000  0  6G18G 2G11G19G16G 6
  22077348.8084    6824346.88346   5317650.33762
  21298247.722   -13523262.453 7 -10537580.05523
  22651232.5424   -6448478.95846  -5024774.11961
  20716294.276    -1438796.321 6  -1121142.58223
  23340215.542    -5175067.295 5  -3859570.76021
  22975445.105    -7381302.662 5  -5585245.72721
 91  4 24 21  3 14.9990000  0  6G18G 2G11G19G16G 6
  22084426.1364    6861526.52946   5346621.33661
  21291328.417   -13559634.623 7 -10565921.95723
  22650969.8004   -6449874.57746  -5025861.61261
  20716734.776    -1436468.898 6  -1119329.02723
  23339080.190    -5181077.354 5  -3864253.97921
  22967800.456    -7421464.517 5  -5616540.60821
 91  4 24 21  3 29.9990000  0  6G18G 2G11G19G16G 6
  22091508.0654    6898776.48646   5375647.12962
  21284416.745   -13595929.212 7 -10594203.41323
  22650727.5264   -6451118.94946  -5026831.26061
  20717190.862    -1434088.715 6  -1117474.36323
  23337956.495    -5186959.104 5  -3868837.24421
  22960164.2374   -7461618.65245  -5647829.47861
 91  4 24 21  3 44.9990000  0  6G18G 2G11G19G16G 6
  22098617.1984    6936100.30346   5404730.47662
  21277527.823   -13632142.285 7 -10622421.34223
  22650518.2614   -6452208.49346  -5027680.24661
  20717655.292    -1431652.074 6  -1115575.70823
  23336864.636    -5192709.386 5  -3873318.06321
  22952518.839    -7501761.510 5  -5679109.57221
 91  4 24 21  3 59.9990000  0  6G18G 2G11G19G16G 6
  22105733.222     6973499.167 6   5433872.30021
  21270652.753   -13668272.412 7 -10650574.64023
  22650345.3624   -6453141.81146  -5028407.52061
  20718131.292    -1429157.560 6  -1113631.94923
  23335797.886    -5198326.928 5  -3877695.44321
  22944886.651    -7541891.765 5  -5710379.81621
 91  4 24 21  4 14.9980000  0  6G18G 2G11G19G16G 6
  22112863.5684    7010972.53946   5463072.17061
  21263794.897   -13704315.129 7 -10678659.83123
  22650200.6154   -6453916.59546  -5029011.25161
  20718612.678    -1426603.020 6  -1111641.41523
  23334753.717    -5203809.067 5  -3881967.31821
  22937255.553    -7582004.349 5  -5741636.28521
 91  4 24 21  4 29.9980000  0  6G18G 2G11G19G16G 6
  22120010.764     7048521.518 6   5492330.94722
  21256951.443   -13740278.804 7 -10706683.42723
  22650080.732    -6454536.587 6  -5029494.37721
  20719111.037    -1423991.588 6  -1109606.55623
  23333737.7724   -5209160.56545  -3886137.38761
  22929618.6784   -7622108.26845  -5772886.03761
 91  4 24 21  4 44.9980000  0  6G18G 2G11G19G16G 6
  22127173.0224    7086149.34246   5521651.18061
  21250123.943   -13776154.966 7 -10734638.83123
  22649993.2564   -6454995.89346  -5029852.28461
  20719617.381    -1421317.492 6  -1107522.86723
  23332739.7404   -5214375.04445  -3890200.67561
  22921993.404    -7662195.115 5  -5804122.46321
 91  4 24 21  4 59.9980000  0  6G18G 2G11G19G16G 6
  22134345.061     7123851.842 6   5551029.58022
  21243310.881   -13811947.554 7 -10762529.11323
  22649936.4124   -6455298.47946  -5030088.07261
  20720138.904    -1418584.516 6  -1105393.28423
  23331771.9594   -5219456.31045  -3894160.17061
  22914370.998    -7702268.597 5  -5835348.50321
 91  4 24 21  5 14.9980000  0  6G18G 2G11G19G16G 6
  22141537.2564    7161625.21846   5580463.22661
  21236516.420   -13847659.988 7 -10790356.93623
  22649907.889    -6455447.829 6
  20720668.811    -1415795.920 6  -1103220.37822
  23330825.865    -5224407.876 5  -3898018.58821
  22906742.303    -7742332.179 5  -5866566.81721
 91  4 24 21  5 29.9980000  0  6G18G 2G11G19G16G 6
  22148735.584     7199473.012 6   5609954.86022
  21229736.842   -13883288.319 7 -10818119.22623
  22649910.061    -6455440.126 6
  20721216.045    -1412948.074 6  -1101001.29323
  23329921.1004   -5229226.29245  -3901773.26661
  22899116.8114   -7782382.02745  -5897774.42161
 91  4 24 21  5 44.9980000  0  6G18G 2G11G19G16G 6
  22155952.2174    7237395.50246   5639504.68461
  21222970.920   -13918832.302 7 -10845815.78823
  22649937.1154   -6455275.08946
  20721764.756    -1410040.293 6  -1098735.50723
  23329025.2324   -5233911.35945  -3905424.05661
  22891502.4284   -7822417.89945  -5928971.15161
 91  4 24 21  5 59.9980000  0  6G18G 2G11G19G16G 6
  22163179.6314    7275387.29946   5669108.53561
  21216226.170   -13954297.022 7 -10873450.59023
  22650000.0294   -6454957.86746
  20722329.482    -1407077.699 6  -1096427.01623
  23328155.897    -5238468.189 5  -3908974.90121
  22883889.779    -7862444.835 5  -5960160.89221
 91  4 24 21  6 14.9980000  0  6G18G 2G11G19G16G 6
  22170426.9824    7313451.13446   5698768.49461
  21209491.522   -13989679.346 7 -10901021.19123
  22650088.5144   -6454485.72746  -5029454.79861
  20722900.818    -1404057.319 6  -1094073.49123
  23327312.639    -5242894.183 5  -3912423.81621
  22876273.7644   -7902459.91245  -5991341.40361
 91  4 24 21  6 29.9980000  0  6G18G 2G11G19G16G 6
  22177682.8814    7351594.08646   5728490.12361
  21202776.2874  -14024972.05647 -10928521.96663
  22650211.0294   -6453851.21246  -5028960.36962
  20723493.311    -1400971.695 6  -1091669.13423
  23326493.959    -5247182.110 5  -3915765.13421
  22868660.936    -7942455.674 5  -6022506.87421
 91  4 24 21  6 44.9980000  0  6G18G 2G11G19G16G 6
  22184961.3264    7389810.71246   5758269.14461
  21196074.904   -14060180.342 7 -10955956.94523
  22650360.7794   -6453059.53046  -5028343.47962
  20724087.912    -1397825.793 6  -1089217.80323
  23325707.7174   -5251337.25145  -3919002.96361
  22861050.123    -7982437.305 5  -6053661.33321
 91  4 24 21  6 59.9980000  0  6G18G 2G11G19G16G 6
  22192241.9674    7428103.03246   5788107.14161
  21189390.865   -14095302.003 7 -10983324.42923
  22650539.9434   -6452108.54246  -5027602.44461
  20724702.193    -1394617.455 6  -1086717.82222
  23324948.4754   -5255357.15645  -3922135.43361
  22853449.443    -8022402.551 5  -6084803.01421
 91  4 24 21  7 14.9980000  0  6G18G 2G11G19G16G 6
  22199542.998     7466458.101 6   5817994.05421
  21182720.3504  -14130349.50547 -11010634.12763
  22650748.6864   -6451010.88046  -5026747.12761
  20725319.373    -1391359.240 6  -1084178.98023
  23324202.451    -5259254.808 5  -3925172.63921
  22845850.2484   -8062364.07845  -6115941.81361
 91  4 24 21  7 29.9980000  0  6G18G 2G11G19G16G 6
  22206857.506     7504885.196 6   5847937.07221
  21176066.3654  -14165313.36147 -11037878.65463
  22650987.8184   -6449757.05946  -5025770.11161
  20725953.1704   -1388041.58346  -1081593.81862
  23323480.303    -5263020.737 5  -3928107.19821
  22838242.693    -8102312.345 5  -6147070.28521
 91  4 24 21  7 44.9980000  0  6G18G 2G11G19G16G 6
  22214185.131     7543389.857 6   5877940.52721
  21169431.092   -14200187.718 7 -11065053.43423
  22651255.3814   -6448341.58846  -5024667.15261
  20726593.8654   -1384658.66046  -1078957.80363
  23322800.6154   -5266649.71245  -3930935.04561
  22830638.0924   -8142241.74745  -6178184.03361
 91  4 24 21  7 59.9980000  0  6G18G 2G11G19G16G 6
  22221521.811     7581962.999 6   5907997.34321
  21162809.490   -14234981.552 7 -11092165.46723
  22651559.1544   -6446773.44646  -5023445.22261
  20727251.0224   -1381219.30646  -1076277.81563
  23322124.326    -5270150.605 5  -3933663.10521
  22823046.1074   -8182161.21245  -6209290.05661
 91  4 24 21  8 14.9980000  0  6G18G 2G11G19G16G 6
  22228876.904     7620613.217 6   5938114.22921
  21156206.561   -14269685.815 7 -11119207.70623
  22651887.7644   -6445043.54346  -5022097.25661
  20727915.7094   -1377714.24746  -1073546.63263
  23321492.2014   -5273514.50045  -3936284.39861
  22815454.0224   -8222061.57745  -6240381.18961
 91  4 24 21  8 29.9980000  0  6G18G 2G11G19G16G 6
  22236245.4044    7659334.63946   5968286.59661
  21149619.834   -14304306.306 7 -11146184.67223
  22652245.8734   -6443157.89746  -5020627.93561
  20728595.4984   -1374149.52846  -1070768.95763
  23320867.6394   -5276747.45045  -3938803.66661
  22807867.3654   -8261948.77345  -6271462.08161
 91  4 24 21  8 44.9980000  0  6G18G 2G11G19G16G 6
  22243629.342     7698139.126 6   5998523.69021
  21143046.7874  -14338830.62747 -11173086.69863
  22652635.537    -6441104.121 6  -5019027.59821
  20729284.7954   -1370512.77346  -1067935.15063
  23320287.615    -5279837.337 5  -3941211.46621
  22800279.217    -8301810.331 5  -6302522.97121
 91  4 24 21  8 59.9980000  0  6G18G 2G11G19G16G 6
  22251026.6004    7737021.37446   6028821.36261
  21136495.8504  -14373263.63147 -11199917.56963
  22653060.818    -6438887.286 6  -5017300.21121
  20729992.7404   -1366808.61046  -1065048.82263
  23319725.1394   -5282789.13045  -3943511.63161
  22792692.1864   -8341651.29445  -6333567.82161
 91  4 24 21  9 14.9980000  0  6G18G 2G11G19G16G 6
  22258444.9754    7775977.79046   6059176.83862
  21129962.701   -14407608.926 7 -11226680.09423
  22653512.170    -6436510.958 6  -5015448.54821
  20730705.9674   -1363040.62846  -1062112.76763
  23319187.2644   -5285606.25345  -3945706.86861
  22785113.873    -8381475.143 5  -6364599.34021
 91  4 24 21  9 29.9980000  0  6G18G 2G11G19G16G 6
  22265868.6544    7815002.57546   6089585.58061
  21123440.8184  -14441872.14547 -11253378.66963
  22653990.9824   -6433980.80146  -5013477.02561
  20731439.1704   -1359214.38846  -1059131.31663
  23318673.2724   -5288295.12345  -3947802.17961
  22777540.178    -8421287.422 5  -6395621.84721
 91  4 24 21  9 44.9980000  0  6G18G 2G11G19G16G 6
  22273310.209     7854102.740 6   6120053.06722
  21116937.186   -14476045.828 7 -11280007.46923
  22654503.1704   -6431289.56546  -5011379.97061
  20732177.5064   -1355322.45946  -1056098.66863
  23318186.584    -5290848.095 5  -3949791.58221
  22769971.584    -8461080.789 5  -6426629.60021
 91  4 24 21  9 59.9980000  0  6G18G 2G11G19G16G 6
  22280764.8424    7893271.16646   6150573.72861
  21110450.240   -14510137.090 7 -11306572.04423
  22655046.670    -6428444.358 6  -5009162.94421
  20732929.8974   -1351371.70446  -1053020.19062
  23317728.7094   -5293272.15345  -3951680.55261
  22762402.092    -8500862.297 5  -6457628.11721
 91  4 24 21 10 14.9980000  0  6G18G 2G11G19G16G 6
  22288231.631     7932509.318 6   6181148.72921
  21103978.8034  -14544143.84547 -11333070.78063
  22655618.8034   -6425443.29046  -5006824.46261
  20733692.5764   -1347360.15347  -1049894.33863
  23317294.412    -5295565.580 5  -3953467.71921
  22754829.6004   -8540629.99345  -6488615.87761
 91  4 24 21 10 29.9980000  0  6G18G 2G11G19G16G 6
  22295707.7174    7971808.99046   6211771.66561
  21097523.795   -14578074.566 7 -11359510.25823
  22656215.9824   -6422294.77446  -5004371.08561
  20734470.6474   -1343296.04646  -1046727.53663
  23316886.2874   -5297736.82745  -3955159.66461
  22747262.1314   -8580392.07745  -6519599.24561
 91  4 24 21 10 44.9980000  0  6G18G 2G11G19G16G 6
  22303199.1784    8011174.76046   6242446.11261
  21091078.5924  -14611924.19547 -11385886.55163
  22656846.6784   -6418993.93946  -5001799.00761
  20735248.6234   -1339174.36546  -1043515.86263
  23316491.6074   -5299781.15345  -3956752.73661
  22739699.4904   -8620143.62145  -6550574.42261
 91  4 24 21 10 59.9980000  0  6G18G 2G11G19G16G 6
  22310704.9364    8050613.18646   6273177.16561
  21084656.9754  -14645685.83047 -11412194.28563
  22657498.9204   -6415533.99346  -4999102.95661
  20736049.2484   -1334988.08346  -1040253.86363
  23316125.022    -5301692.205 5  -3958241.93821
  22732141.897    -8659877.777 5  -6581536.03821
 91  4 24 21 11 14.9980000  0  6G18G 2G11G19G16G 6
  22318223.5534    8090125.32046   6303965.66461
  21078248.4514  -14679358.14147 -11438432.41163
  22658192.6074   -6411913.59246  -4996281.87361
  20736856.2794   -1330735.77147  -1036940.40462
  23315791.850    -5303468.577 5  -3959626.19921
  22724584.3344   -8699593.21445  -6612483.06761
 91  4 24 21 11 29.9980000  0  6G18G 2G11G19G16G 6
  22325753.9364    8129707.38846   6334808.64261
  21071857.1864  -14712944.39847 -11464603.47663
  22658909.0684   -6408136.33346  -4993338.55061
  20737678.4124   -1326420.92947  -1033578.22062
  23315480.8814   -5305113.96145  -3960908.40961
  22717023.506    -8739293.357 5  -6643418.17721
 91  4 24 21 11 44.9980000  0  6G18G 2G11G19G16G 6
  22333301.5144    8169354.36446   6365702.21661
  21065483.7954  -14746449.69047 -11490711.46563
  22659657.3034   -6404207.10246  -4990276.81861
  20738510.7954   -1322048.23347  -1030170.95762
  23315186.6544   -5306633.13045  -3962092.27461
  22709475.115    -8778983.075 5  -6674345.15421
 91  4 24 21 11 59.9980000  0  6G18G 2G11G19G16G 6
  22340859.592     8209064.466 6   6396644.96121
  21059121.0614  -14779875.57947 -11516757.57663
  22660436.1474   -6400127.67846  -4987098.04661
  20739351.873    -1317619.091 7  -1026719.70622
  23314922.107    -5308027.994 5  -3963179.25221
  22701923.193    -8818663.770 5  -6705265.10821
 91  4 24 21 12 14.9980000  0  6G18G 2G11G19G16G 6
  22348428.592     8248855.625 6   6427650.87521
  21052779.717   -14813203.480 7 -11542727.33023
  22661243.7874   -6395879.68746  -4983787.91961
  20740210.2644   -1313115.08347  -1023210.11662
  23314682.6394   -5309280.24845  -3964155.12961
  22694382.803    -8858317.195 5  -6736163.83521
 91  4 24 21 12 29.9980000  0  6G18G 2G11G19G16G 6
  22356022.5534    8288768.35146   6458751.51261
  21046464.9364  -14846393.14847 -11568589.37563
  22662092.5224   -6391422.83746  -4980315.06661
  20741088.1154   -1308495.72146  -1019610.64663
  23314477.3424   -5310349.63745  -3964988.49761
  22686847.428    -8897902.869 5  -6767009.75621
 91  4 24 21 12 44.9980000  0  6G18G 2G11G19G16G 6
  22363631.6074    8328743.96246   6489901.16261
  21040162.881   -14879502.904 7 -11594389.14223
  22662966.3574   -6386815.52846
  20741975.6474   -1303819.35846
  23314303.514    -5311294.563 5  -3965724.88921
  22679312.5924   -8937479.21145  -6797848.39261
 91  4 24 21 12 59.9980000  0  6G18G 2G11G19G16G 6
  22371251.701     8368786.604 6   6521103.02321
  21033877.4904  -14912528.03647 -11620122.98063
  22663875.2564   -6382053.30247
  20742878.8034   -1299081.39046
  23314152.0924   -5312111.10645  -3966361.23661
  22671782.6154   -8977041.55345  -6828676.13761
 91  4 24 21 13 14.9980000  0  6G18G 2G11G19G16G 6
  22378887.154     8408895.084 6   6552356.19921
  21027608.811   -14945469.616 7 -11645791.70623
  22664809.404    -6377137.281 6  -4969184.03021
  20743791.9674   -1294282.74246  -1008535.67562
  23314012.482    -5312799.961 5  -3966898.08521
  22664254.1704   -9016590.85845  -6859493.72461
 91  4 24 21 13 29.9980000  0  6G18G 2G11G19G16G 6
  22386530.178     8449067.929 6   6583659.53121
  21021355.8504  -14978328.78847 -11671396.21763
  22665773.897    -6372068.752 6  -4965234.52621
  20744720.6704   -1289424.59346  -1004750.13363
  23313907.990    -5313362.531 5  -3967336.51721
  22656737.6474   -9056128.41545  -6890302.14861
 91  4 24 21 13 44.9980000  0  6G18G 2G11G19G16G 6
  22394186.795     8489304.259 6   6615012.30621
  21015119.1004  -15011106.11947 -11696936.95563
  22666765.8734   -6366848.43946  -4961166.77661
  20745655.0684   -1284507.45046  -1000918.62163
  23313824.326    -5313799.734 5  -3967677.28521
  22649219.0764   -9095654.71945  -6921101.82261
 91  4 24 21 13 59.9980000  0  6G18G 2G11G19G16G 6
  22401852.514     8529608.668 6   6646418.14321
  21008898.6784  -15043796.64747 -11722410.05763
  22667788.022    -6361471.404 6  -4956976.89721
  20746604.404    -1279526.155 6   -997037.11623
  23313765.639    -5314106.826 5  -3967916.65221
  22641697.4824   -9135164.74445  -6951888.79161
 91  4 24 21 14 14.9980000  0  6G18G 2G11G19G16G 6
  22409536.717     8569974.821 6   6677872.08121
  21002692.4824  -15076406.63747 -11747820.39863
  22668839.834    -6355944.143 6  -4952669.96021
  20747562.0924   -1274486.88246   -993110.43663
  23313730.975    -5314290.236 5
  22634178.0614   -9174664.88045  -6982668.05761
 91  4 24 21 14 29.9980000  0  6G18G 2G11G19G16G 6
  22417232.2174    8610410.39046   6709380.10661
  20996503.7484  -15108928.07247 -11773161.73763
  22669923.248    -6350258.699 6  -4948239.76421
  20748530.7324   -1269381.70746   -989132.40663
  23313722.522    -5314341.892 5
  22626661.545    -9214147.023 5  -7013433.31721
 91  4 24 21 14 44.9980000  0  6G18G 2G11G19G16G 6
  22424938.561     8650906.058 6   6740934.96621
  20990328.2644  -15141370.24047 -11798441.31063
  22671032.568    -6344424.335 6  -4943693.52821
  20749513.7324   -1264219.66846   -985110.06562
  23313731.772    -5314271.069 5
  22619155.3574   -9253620.37345  -7044191.70961
 91  4 24 21 14 59.9980000  0  6G18G 2G11G19G16G 6
  22432657.0454    8691464.07946   6772538.42061
  20984173.3814  -15173730.52147 -11823657.07363
  22672174.8894   -6338438.57646  -4939029.31461
  20750509.404    -1258997.936 7   -981041.20723
  23313774.115    -5314075.855 5
  22611643.787    -9293082.328 5  -7074941.22621
 91  4 24 21 15 14.9980000  0  6G18G 2G11G19G16G 6
  22440384.889     8732077.778 6   6804185.25421
  20978029.3734  -15206015.31247 -11848814.01963
  22673342.529    -6332307.897 6  -4934252.18621
  20751509.8734   -1253722.94046   -976930.84562
  23313825.3424   -5313762.77245
  22604139.498    -9332539.221 5  -7105686.81621
 91  4 24 21 15 29.9980000  0  6G18G 2G11G19G16G 6
  22448131.014     8772759.609 6   6835885.18721
  20971901.1314  -15238211.97547 -11873902.28863
  22674535.732    -6326019.961 6  -4929352.51021
  20752530.545    -1248382.059 6   -972769.14722
  23313916.9514   -5313319.34545  -3967303.48961
  22596629.7254   -9371978.47745  -7136418.63361
 91  4 24 21 15 44.9980000  0  6G18G 2G11G19G16G 6
  22455880.428     8813501.764 6   6867632.11321
  20965790.9514  -15270327.91447 -11898927.65963
  22675766.2404   -6319582.22546  -4924336.09561
  20753553.967    -1242982.613 6   -968561.81022
  23314018.0374   -5312753.11945  -3966862.38361
  22589124.1784   -9411407.39445  -7167142.42461
 91  4 24 21 15 59.9980000  0  6G18G 2G11G19G16G 6
  22463640.897     8854303.240 6   6899425.27421
  20959693.4364  -15302363.81647 -11923890.66363
  22677013.459    -6312995.345 6  -4919203.47921
  20754598.311    -1237525.315 6   -964309.38722
  23314157.959    -5312064.814 5  -3966326.09821
  22581623.9674   -9450826.71546  -7197858.71461
 91  4 24 21 16 14.9980000  0  6G18G 2G11G19G16G 6
  22471423.0684    8895171.37646   6931270.36461
  20953615.9044  -15334312.33947 -11948785.58163
  22678295.404    -6306252.082 6  -4913949.00622
  20755645.2644   -1232002.55946   -960005.97262
  23314310.9364   -5311246.94545  -3965688.89961
  22574127.5374   -9490229.08946  -7228561.80961
 91  4 24 21 16 29.9980000  0  6G18G 2G11G19G16G 6
  22479211.9754    8936099.46146   6963162.17361
  20947549.0844  -15366179.60647 -11973617.18463
  22679606.795    -6299358.800 6  -4908577.63222
  20756709.764    -1226420.499 6   -955656.33822
  23314487.397    -5310306.279 5  -3964956.01321
  22566633.834    -9529620.548 5  -7259256.39421
 91  4 24 21 16 44.9980000  0  6G18G 2G11G19G16G 6
  22487011.404     8977088.657 6   6995101.60121
  20941502.3574  -15397964.49747 -11998384.59863
  22680949.795    -6292314.621 6  -4903088.68222
  20757783.678    -1220778.173 6   -951259.74322
  23314689.3894   -5309241.94545  -3964126.74561
  22559134.6314   -9569000.01745  -7289941.63961
 91  4 24 21 16 59.9980000  0  6G18G 2G11G19G16G 6
  22494820.186     9018133.852 6   7027084.66321
  20935466.7874  -15429671.64347 -12023091.42463
  22682319.350    -6285124.268 7  -4897485.83122
  20758870.9984   -1215080.02346   -946819.65362
  23314914.975    -5308058.791 5  -3963204.90421
  22551642.7954   -9608372.19145  -7320621.20261
 91  4 24 21 17 14.9980000  0  6G18G 2G11G19G16G 6
  22502643.9594    9059244.27846   7059118.54861
  20929452.7484  -15461291.65247 -12047730.35763
  22683716.2794   -6277778.42547  -4891761.81362
  20759962.6544   -1209316.39246   -942328.54562
  23315164.5684   -5306747.53245  -3962183.22661
  22544156.6314   -9647727.53946  -7351287.64561
 91  4 24 21 17 29.9980000  0  6G18G 2G11G19G16G 6
  22510477.475     9100413.475 6   7091198.21321
  20923447.8114  -15492830.50847 -12072306.05463
  22685143.9364   -6270283.13246  -4885921.32861
  20761069.9284   -1203493.16546   -937790.99363
  23315439.068    -5305314.303 5  -3961066.50921
  22536669.0374   -9687071.98946  -7381945.59861
 91  4 24 21 17 44.9980000  0  6G18G 2G11G19G16G 6
  22518324.7954    9141642.41546   7123324.44661
  20917464.3184  -15524287.35847 -12096817.85463
  22686596.709    -6262637.630 6  -4879963.81022
  20762193.7014   -1197609.45446   -933206.31463
  23315734.4514   -5303758.30845  -3959854.11561
  22529186.084    -9726404.715 5  -7412594.40121
 91  4 24 21 17 59.9980000  0  6G18G 2G11G19G16G 6
  22526182.428     9182932.630 6   7155498.42021
  20911493.2174  -15555660.38547 -12121264.32563
  22688083.998    -6254840.317 6  -4873888.00621
  20763325.982    -1191663.591 6   -928573.19823
  23316054.8424   -5302078.28945  -3958545.09261
  22521701.022    -9765723.905 5  -7443232.66821
 91  4 24 21 18 14.9980000  0  6G18G 2G11G19G16G 6
  22534048.428     9224278.521 6   7187715.76821
  20905538.2404  -15586954.73247 -12145649.49863
  22689591.584    -6246896.490 6  -4867698.02621
  20764462.2484   -1185660.55946   -923895.54263
  23316402.428    -5300279.307 5  -3957143.37121
  22514218.170    -9805034.639 5  -7473864.35721
 91  4 24 21 18 29.9980000  0  6G18G 2G11G19G16G 6
  22541929.6934    9265687.05046   7219981.94161
  20899598.5454  -15618162.95047 -12169967.55963
  22691133.9984   -6238798.81446  -4861388.17961
  20765619.772    -1179592.706 6   -919167.36823
  23316764.8974   -5298354.19945  -3955643.39861
  22506745.311    -9844329.509 5  -7504483.68321
 91  4 24 21 18 44.9980000  0  6G18G 2G11G19G16G 6
  22549820.107     9307152.125 6   7252292.16621
  20893676.7254  -15649291.28047 -12194223.36463
  22692700.381    -6230553.649 6  -4854963.40021
  20766784.3034   -1173466.12046   -914393.43763
  23317153.4434   -5296309.19145  -3954049.95361
  22499268.6474   -9883614.54745  -7535095.34361
 91  4 24 21 18 59.9980000  0  6G18G 2G11G19G16G 6
  22557719.201     9348667.095 6   7284641.26421
  20887764.9434  -15680345.87547 -12218421.72063
  22694300.318    -6222167.283 6  -4848428.58721
  20767960.3264   -1167287.19946   -909578.72663
  23317568.1074   -5294150.84145  -3952368.20361
  22491789.6624   -9922896.12545  -7565704.30561
 91  4 24 21 19 14.9980000  0  6G18G 2G11G19G16G 6
  22565634.607     9390238.071 6   7317034.00721
  20881870.6624  -15711320.40147 -12242557.67763
  22695920.920    -6213633.361 6  -4841778.79421
  20769150.0684   -1161049.43146   -904718.16363
  23317996.7794   -5291872.98545  -3950593.31761
  22484319.2484   -9962167.68345  -7596305.45761
 91  4 24 21 19 29.9980000  0  6G18G 2G11G19G16G 6
  22573555.326     9431868.729 6   7349473.25121
  20875993.7404  -15742211.14047 -12266628.34863
  22697575.4984   -6204948.34846  -4835011.26261
  20770347.1784   -1154748.85946   -899808.64963
  23318458.2564   -5289471.98045  -3948722.50361
  22476849.1394  -10001425.47445  -7626895.89261
 91  4 24 21 19 44.9980000  0  6G18G 2G11G19G16G 6
  22581489.186     9473558.142 6   7381958.28621
  20870131.0454  -15773018.52847 -12290634.06463
  22699252.9514   -6196113.03546  -4828126.63061
  20771558.3114   -1148385.86346   -894850.50363
  23318930.709    -5286948.419 5  -3946756.20921
  22469382.225   -10040670.073 5  -7657476.03421
 91  4 24 21 19 59.9980000  0  6G18G 2G11G19G16G 6
  22589429.2874    9515301.73746   7414485.52561
  20864282.3424  -15803746.91247 -12314578.22363
  22700961.3654   -6187131.79946  -4821128.30061
  20772780.5224   -1141964.97346   -889847.24763
  23319442.592    -5284307.149 5  -3944698.18021
  22461912.2954  -10079905.68445  -7688049.18061
 91  4 24 21 20 14.9980000  0  6G18G 2G11G19G16G 6
  22597386.842     9557102.110 6   7447057.00821
  20858448.5924  -15834393.41047 -12338458.57263
  22702705.7954   -6178001.92147  -4814014.13661
  20774015.0224   -1135483.00146   -884796.39063
  23319964.529    -5281545.377 5  -3942546.25821
  22454449.3114  -10119129.37745  -7718613.02961
 91  4 24 21 20 29.9980000  0  6G18G 2G11G19G16G 6
  22605348.100     9598954.530 6   7479669.05521
  20852635.9364  -15864962.65647 -12362278.72863
  22704469.076    -6168728.079 7  -4806787.77821
  20775256.9824   -1128944.55346   -879701.52963
  23320516.4124   -5278667.66845  -3940303.97361
  22446991.8184  -10158345.73446  -7749171.15761
 91  4 24 21 20 44.9980000  0  6G18G 2G11G19G16G 6
  22613324.8734    9640862.46046   7512324.34361
  20846834.1544  -15895450.89347 -12386035.76363
  22706262.045    -6159306.661 6  -4799446.42921
  20776513.6074   -1122345.89946   -874559.75062
  23321076.678    -5275670.784 5  -3937968.85021
  22439529.6314  -10197551.05246  -7779720.68861
 91  4 24 21 20 59.9980000  0  6G18G 2G11G19G16G 6
  22621309.490     9682821.823 6   7545019.72721
  20841043.553   -15925861.743 7 -12409732.48423
  22708081.115    -6149741.487 6  -4791993.06421
  20777782.8264   -1115690.45846   -869373.73162
  23321670.7874   -5272558.60345  -3935543.85661
  22432072.4754  -10236748.88646  -7810264.39761
 91  4 24 21 21 14.9980000  0  6G18G 2G11G19G16G 6
  22629298.404     9724834.015 6   7577756.28121
  20835273.5454  -15956193.78047 -12433367.80563
  22709925.9514   -6140031.14746  -4784426.58261
  20779057.803    -1108976.685 6   -864142.24723
  23322288.4514   -5269329.68045  -3933027.90561
  22424613.592   -10275937.722 6  -7840801.09521
 91  4 24 21 21 29.9980000  0  6G18G 2G11G19G16G 6
  22637307.2014    9766900.68246   7610535.26261
  20829515.1154  -15986445.10047 -12456940.22564
  22711806.6314   -6130173.84546  -4776745.57161
  20780347.5064   -1102202.53646   -858863.72363
  23322925.248    -5265982.403 5  -3930419.73021
  22417156.2404  -10315115.54946  -7871329.20361
 91  4 24 21 21 44.9980000  0  6G18G 2G11G19G16G 6
  22645329.568     9809021.097 6   7643356.14521
  20823778.1234  -16016616.20247 -12480450.14164
  22713706.1544   -6120170.22646  -4768950.56061
  20781646.7254   -1095368.42646   -853538.47863
  23323584.748    -5262517.278 5  -3927719.73321
  22409708.178   -10354282.777 6  -7901849.05321
 91  4 24 21 21 59.9980000  0  6G18G 2G11G19G16G 6
  22653346.975     9851194.895 6   7676218.61121
  20818051.2564  -16046706.99047 -12503897.47164
  22715640.436    -6110020.484 6  -4761041.68921
  20782960.287    -1088474.221 6   -848166.39623
  23324264.8574   -5258934.62345  -3924928.17261
  22402253.982   -10393439.395 6  -7932360.65621
 91  4 24 21 22 14.9980000  0  6G18G 2G11G19G16G 6
  22661386.9984    9893421.75446   7709122.41861
  20812338.5924  -16076717.75747 -12527282.45164
  22717601.037    -6099724.932 6  -4753019.20421
  20784282.8184   -1081520.03547   -842747.58763
  23324970.8654   -5255234.95145  -3922045.40061
  22394799.350   -10432585.633 5  -7962864.15821
 91  4 24 21 22 29.9980000  0  6G18G 2G11G19G16G 6
  22669432.5924    9935702.81046   7742068.44961
  20806642.6234  -16106647.04747 -12550603.93564
  22719585.1544   -6089282.39446  -4744882.16561
  20785618.0614   -1074504.61146   -837281.05863
  23325700.8264   -5251416.79545  -3919070.31561
  22387355.1934  -10471720.06246  -7993358.45261
 91  4 24 21 22 44.9980000  0  6G18G 2G11G19G16G 6
  22677488.4364    9978033.08546   7775052.83361
  20800964.1624  -16136499.56247 -12573865.60664
  22721603.7014   -6078697.84346  -4736634.47461
  20786964.0374   -1067432.49946   -831770.35163
  23326442.897    -5247485.599 5  -3916007.15421
  22379908.3654  -10510847.36645  -8023847.21461
 91  4 24 21 22 59.9980000  0  6G18G 2G11G19G16G 6
  22685551.7954   10020418.89446   7808080.50161
  20795298.0294  -16166268.63447 -12597062.25164
  22723638.959    -6067964.446 6  -4728270.80621
  20788322.4364   -1060296.73546   -826210.04662
  23327219.451    -5243434.399 5  -3912850.46121
  22372465.6544  -10549960.60946  -8054325.02161
 91  4 24 21 23 14.9980000  0  6G18G 2G11G19G16G 6
  22693630.3184   10062843.12346   7841138.09861
  20789644.7174  -16195971.15547 -12620207.04064
  22725710.397    -6057099.365 6  -4719804.54621
  20789688.4044   -1053114.32847   -820613.40062
  23328006.209    -5239280.392 5  -3909613.68421
  22365023.693   -10589076.888 6  -8084805.18921
 91  4 24 21 23 29.9980000  0  6G18G 2G11G19G16G 6
  22701707.9204   10105314.48646   7874232.42661
  20784008.4824  -16225597.79747 -12643292.71064
  22727802.186    -6046093.604 6  -4711228.67421
  20791066.4904   -1045876.00246   -814973.17863
  23328818.8264   -5235014.60545  -3906289.76961
  22357581.7174  -10628186.93046  -8115280.49461
 91  4 24 21 23 44.9980000  0  6G18G 2G11G19G16G 6
  22709802.6074   10147835.53246   7907365.44261
  20778385.1544  -16255146.09347 -12666317.32064
  22729928.256    -6034944.794 7  -4702541.31121
  20792452.4674   -1038579.01746   -809287.24963
  23329652.459    -5230634.599 5  -3902876.87921
  22350140.3974  -10667288.05146  -8145748.83261
 91  4 24 21 23 59.9980000  0  6G18G 2G11G19G16G 6
  22717899.9984   10190406.13946   7940537.09161
  20772776.7094  -16284615.85747 -12689280.74363
  22732076.4904   -6023652.88347  -4693742.45261
  20793854.4514   -1031223.24246   -803555.50562
  23330503.6154   -5226140.72945  -3899375.29761
  22342698.912   -10706379.998 5  -8176210.05421
 91  4 24 21 24 14.9980000  0  6G18G 2G11G19G16G 6
  22726015.326    10233029.709 6   7973750.01521
  20767185.6624  -16314003.50447 -12712180.17764
  22734251.717    -6012214.331 6  -4684829.30821
  20795265.170    -1023804.757 6   -797774.90623
  23331384.4824   -5221529.35945  -3895782.12161
  22335259.904   -10745459.078 6  -8206661.24121
 91  4 24 21 24 29.9980000  0  6G18G 2G11G19G16G 6
  22734134.8654   10275699.77646   8006999.17961
  20761606.8034  -16343315.40847 -12735020.59063
  22736456.4204   -6000635.61146  -4675806.95961
  20796687.4754   -1016329.92546   -791950.39263
  23332286.287    -5216806.783 5  -3892102.29221
  22327832.006   -10784531.484 6  -8237107.21621
 91  4 24 21 24 44.9980000  0  6G18G 2G11G19G16G 6
  22742260.811    10318418.885 6   8040286.54121
  20756042.4044  -16372548.68947 -12757799.73864
  22738685.529    -5988913.978 6  -4666673.24421
  20798120.7564   -1008795.83846   -786079.70663
  23333202.162    -5211970.699 5  -3888334.03221
  22320395.889   -10823594.475 6  -8267545.86221
 91  4 24 21 24 59.9980000  0  6G18G 2G11G19G16G 6
  22750400.5374   10361184.22046   8073609.93761
  20750497.6234  -16401705.73047 -12780519.47763
  22740943.2874   -5977052.16546  -4657430.28561
  20799566.9824   -1001204.99446   -780164.79263
  23334145.3424   -5207023.67445  -3884479.28861
  22312959.053   -10862650.488 6  -8297979.06321
 91  4 24 21 25 14.9980000  0  6G18G 2G11G19G16G 6
  22758548.1394   10403995.15846   8106968.86561
  20744964.2094  -16430786.79147 -12803180.01463
  22743226.0224   -5965050.70146  -4648078.49261
  20801022.0454    -993557.45246   -774205.70163
  23335110.1154   -5201966.49845  -3880538.74761
  22305528.873   -10901699.773 5  -8328407.03521
 91  4 24 21 25 29.9980000  0  6G18G 2G11G19G16G 6
  22766700.6704   10446849.98246   8140361.99961
  20739442.7564  -16459793.79247 -12825782.84363
  22745540.943    -5952911.224 6  -4638619.17121
  20802487.1864    -985854.62447   -768203.52763
  23336089.920    -5196800.945 5  -3876513.73721
  22298106.428   -10940743.846 6  -8358830.93621
 91  4 24 21 25 44.9980000  0  6G18G 2G11G19G16G 6
  22774867.8504   10489751.01946   8173791.11861
  20733938.4824  -16488724.19647 -12848325.98363
  22747872.975    -5940631.277 6  -4629050.40721
  20803964.5614    -978093.90247   -762156.23763
  23337092.670    -5191524.501 5  -3872402.33021
  22290676.115   -10979780.094 6  -8389248.74721
 91  4 24 21 25 59.9980000  0  6G18G 2G11G19G16G 6
  22783038.568    10532703.100 6   8207260.01021
  20728448.006   -16517572.813 7 -12870805.39523
  22750237.678    -5928205.959 6  -4619368.35521
  20805454.639     -970270.161 6   -756059.84323
  23338123.4674   -5186132.08645  -3868200.55961
  22283247.053   -11018803.324 6  -8419656.41021
 91  4 24 21 26 14.9980000  0  6G18G 2G11G19G16G 6
  22791219.5764   10575695.75946   8240760.53561
  20722969.9364  -16546349.47647 -12893228.74063
  22752631.7644   -5915645.61046  -4609581.07661
  20806952.9284    -962393.65047   -749922.32563
  23339166.2094   -5180633.92545  -3863916.37261
  22275824.084   -11057823.588 6  -8450061.75321
 91  4 24 21 26 29.9980000  0  6G18G 2G11G19G16G 6
  22799413.100    10618731.202 6   8274294.40321
  20717509.1074  -16575051.89947 -12915594.23663
  22755046.881    -5902947.959 6  -4599686.81721
  20808465.178     -954461.701 6   -743741.61423
  23340236.162    -5175028.104 5  -3859548.31721
  22268396.3734  -11096838.39446  -8480462.86261
 91  4 24 21 26 44.9980000  0  6G18G 2G11G19G16G 6
  22807611.5924   10661813.66546   8307864.88961
  20712059.4044  -16603675.78647 -12937898.53063
  22757490.0924   -5890108.69546  -4589682.21861
  20809982.943     -946469.720 6   -737514.12423
  23341319.2094   -5169310.49745  -3855093.12061
  22260979.889   -11135843.246 6  -8510856.20121
 91  4 24 21 26 59.9980000  0  6G18G 2G11G19G16G 6
  22815814.826    10704942.178 6   8341471.26221
  20706631.5294  -16632221.69447 -12960142.06663
  22759957.3114   -5877128.63946  -4579567.93761
  20811514.943     -938418.326 6   -731240.33523
  23342431.779    -5163481.943 5  -3850551.50621
  22253556.3114  -11174838.76446  -8541242.25961
 91  4 24 21 27 14.9980000  0  6G18G 2G11G19G16G 6
  22824032.287    10748116.435 6   8375113.29721
  20701211.4754  -16660689.63247 -12982324.84463
  22762455.014    -5864008.281 6  -4569344.33321
  20813056.9434    -930307.55346   -724920.28162
  23343565.0684   -5157542.94145  -3845923.80861
  22246132.2874  -11213825.05445  -8571621.14361
 91  4 24 21 27 29.9980000  0  6G18G 2G11G19G16G 6
  22832258.1154   10791329.08646   8408785.23061
  20695808.1784  -16689086.87947 -13004452.53464
  22764976.373    -5850754.884 6  -4559017.04621
  20814608.561     -922144.410 6   -718559.41422
  23344713.865    -5151500.617 5  -3841215.61621
  22238717.623   -11252809.216 6  -8601998.35021
 91  4 24 21 27 44.9980000  0  6G18G 2G11G19G16G 6
  22840485.7324   10834587.91246   8442493.14161
  20690419.9754  -16717405.30247 -13026518.81163
  22767526.436    -5837360.423 6  -4548579.80921
  20816177.178     -913920.682 6   -712151.33622
  23345883.0534   -5145347.11345  -3836420.81061
  22231303.014   -11291783.079 6  -8632367.53721
 91  4 24 21 27 59.9980000  0  6G18G 2G11G19G16G 6
  22848728.834    10877896.905 6   8476240.15221
  20685044.8504  -16745640.55547 -13048520.27564
  22770104.943    -5823820.656 6  -4538029.36121
  20817754.459     -905632.301 6   -705692.88723
  23347068.9124   -5139078.40145  -3831536.22161
  22223888.2564  -11330742.21246  -8662725.25661
 91  4 24 21 28 14.9980000  0  6G18G 2G11G19G16G 6
  22856978.506    10921243.516 6   8510016.47321
  20679685.1864  -16773805.21147 -13070466.72763
  22772705.326    -5810148.165 6  -4527375.51421
  20819341.5224    -897291.32247   -699193.44862
  23348285.873    -5132707.022 5  -3826571.60221
  22216477.1624  -11369699.02046  -8693081.14061
 91  4 24 21 28 29.9980000  0  6G18G 2G11G19G16G 6
  22865234.014    10964630.984 6   8543824.63321
  20674342.1154  -16801895.51647 -13092355.25064
  22775331.803    -5796339.510 6  -4516615.57421
  20820943.029     -888893.926 6   -692650.05323
  23349520.201    -5126229.526 5  -3821524.29021
  22209065.498   -11408649.632 6  -8723432.22221
 91  4 24 21 28 44.9980000  0  6G18G 2G11G19G16G 6
  22873499.022    11008059.829 5   8577665.04321
  20669010.5224  -16829910.82447 -13114185.33164
  22777987.772    -5782394.236 6  -4505749.14321
  20822546.0374    -880439.26346   -686062.02962
  23350779.967    -5119645.269 5  -3816393.79721
  22201652.6544  -11447593.37246  -8753777.92461
 91  4 24 21 28 59.9980000  0  6G18G 2G11G19G16G 6
  22881773.2254   11051530.59246   8611538.09361
  20663694.6154  -16857850.10447 -13135956.16964
  22780666.5064   -5768311.56246  -4494775.63561
  20824169.9364    -871926.48246   -679428.72663
  23352047.3264   -5112953.90345  -3811179.87761
  22194240.670   -11486529.264 6  -8784117.53121
 91  4 24 21 29 14.9980000  0  6G18G 2G11G19G16G 6
  22890053.709    11095043.678 5   8645444.14821
  20658393.2954  -16885712.77847 -13157667.31664
  22783370.2954   -5754091.13946  -4483694.79761
  20825797.7794    -863354.98346   -672749.65862
  23353340.9044   -5106155.13045  -3805882.24761
  22186837.006   -11525456.757 6  -8814450.58221
 91  4 24 21 29 29.9980000  0  6G18G 2G11G19G16G 6
  22898341.2254   11138599.60046   8679383.54561
  20653104.5294  -16913498.18047 -13179318.24764
  22786100.420    -5739732.374 6  -4472506.16621
  20827444.8654    -854723.87646   -666024.15263
  23354654.451    -5099248.199 5  -3800500.35321
  22179432.967   -11564374.908 6  -8844776.36021
 91  4 24 21 29 44.9980000  0  6G18G 2G11G19G16G 6
  22906634.9364   11182203.66045   8713360.49861
  20647832.1394  -16941200.96347 -13200904.79764
  22788862.959    -5725229.983 6  -4461205.62921
  20829093.7724    -846027.54446   -659247.82263
  23355990.936    -5092227.864 5  -3795030.10121
  22172029.936   -11603278.336 6  -8875090.67221
 91  4 24 21 29 59.9980000  0  6G18G 2G11G19G16G 6
  22914942.967    11225843.849 5   8747365.56821
  20642572.0844  -16968832.86547 -13222436.11764
  22791650.287    -5710595.680 6  -4449802.30521
  20830760.9284    -837277.59746   -652429.71262
  23357348.467    -5085106.195 5  -3789480.89621
  22164621.670   -11642178.471 6  -8905402.41821
 91  4 24 21 30 14.9980000  0  6G18G 2G11G19G16G 6
  22923255.8654   11269523.55046   8781401.43061
  20637330.9824  -16996390.17947 -13243909.31863
  22794459.037    -5695826.187 6  -4438293.62421
  20832434.779     -828470.373 6   -645566.96023
  23358718.9124   -5077880.05345  -3783850.24261
  22157221.6864  -11681071.75446  -8935708.80761
 91  4 24 21 30 29.9980000  0  6G18G 2G11G19G16G 6
  22931577.6704   11313246.66346   8815471.11361
  20632102.2564  -17023868.65047 -13265321.07963
  22797294.7174   -5680917.48446  -4426676.48761
  20834127.6704    -819601.68146   -638656.32863
  23360121.264    -5070545.236 5  -3778134.92021
  22149819.428   -11719953.948 6  -8966006.56821
 91  4 24 21 30 44.9980000  0  6G18G 2G11G19G16G 6
  22939900.897    11357010.439 6   8849572.50021
  20626886.9124  -17051270.57047 -13286673.19663
  22800159.3734   -5665872.20746  -4414952.91461
  20835822.3574    -810673.70246   -631699.49663
  23361534.490    -5063104.208 5  -3772336.83521
  22142426.2404  -11758827.36946  -8996297.49161
 91  4 24 21 30 59.9980000  0  6G18G 2G11G19G16G 6
  22948244.1864   11400814.10346   8883704.95961
  20621685.5534  -17078596.74147 -13307966.28163
  22803045.709    -5650691.103 6  -4403123.49221
  20837534.3344    -801686.93746   -624696.85363
  23362971.529    -5055557.961 5  -3766456.76021
  22135032.967   -11797692.462 6  -9026581.92421
 91  4 24 21 31 14.9980000  0  6G18G 2G11G19G16G 6
  22956581.2254   11444655.48746   8917866.81061
  20616499.2094  -17105848.96247 -13329201.74763
  22805964.248    -5635376.402 6  -4391189.98621
  20839252.8264    -792643.33046   -617649.92463
  23364417.7564   -5047908.71445  -3760496.40861
  22127630.975   -11836551.200 6  -9056861.41021
 91  4 24 21 31 29.9980000  0  6G18G 2G11G19G16G 6
  22964930.2484   11488535.33245   8952058.60561
  20611328.2324  -17133026.62747 -13350379.11963
  22808895.381    -5619927.316 6  -4379151.76721
  20840988.5844    -783541.79446   -610557.84763
  23365899.2254   -5040155.60645  -3754455.12961
  22120239.5224  -11875402.64446  -9087135.19861
 91  4 24 21 31 44.9980000  0  6G18G 2G11G19G16G 6
  22973291.3974   11532456.00845   8986282.22761
  20606171.5224  -17160126.69347 -13371496.02564
  22811871.1934   -5604340.99546  -4367006.63561
  20842728.3814    -774379.38046   -603418.34263
  23367398.6704   -5032296.05745  -3748330.91061
  22112854.045   -11914243.693 6  -9117400.89221
 91  4 24 21 31 59.9980000  0  6G18G 2G11G19G16G 6
  22981659.2404   11576412.81545   9020534.01761
  20601029.2174  -17187153.77047 -13392556.05363
  22814860.5064   -5588622.52246  -4354758.46561
  20844484.3504    -765160.77846   -596235.04863
  23368914.0844   -5024335.08545  -3742127.69761
  22105460.623   -11953079.080 6  -9147662.17921
 91  4 24 21 32 14.9980000  0  6G18G 2G11G19G16G 6
  22990027.693    11620404.161 5   9054812.70121
  20595899.2014  -17214109.09947 -13413560.17264
  22817875.9124   -5572773.21446  -4342408.35461
  20846248.4594    -755887.15446   -589008.88363
  23370449.959    -5016274.176 5  -3735846.58021
  22098067.725   -11991909.852 6  -9177919.86921
 91  4 24 21 32 29.9980000  0  6G18G 2G11G19G16G 6
  22998402.8894   11664436.95945   9089123.70961
  20590786.2954  -17240985.52547 -13434502.80663
  22820917.397    -5556785.854 6  -4329950.70921
  20848024.1154    -746550.95746   -581733.96063
  23372001.451    -5008106.246 5  -3729482.06121
  22090681.3734  -12030728.63246  -9208168.21061
 91  4 24 21 32 44.9980000  0  6G18G 2G11G19G16G 6
  23006798.779    11708509.421 5   9123465.59321
  20585686.5844  -17267784.59547 -13455385.17064
  22823986.1784   -5540662.44446  -4317387.06761
  20849815.3424    -737153.95246   -574411.65263
  23373577.2254   -4999832.94745  -3723035.45761
  22083297.9514  -12069537.14946  -9238408.55361
 91  4 24 21 32 59.9980000  0  6G18G 2G11G19G16G 6
  23015185.350    11752622.088 5   9157838.83921
  20580599.8654  -17294505.67047 -13476206.75863
  22827080.8654   -5524402.35146  -4304716.87561
  20851612.0534    -727695.31046   -567041.31663
  23375174.107    -4991454.142 5  -3716506.67021
  22075914.1704  -12108334.52246  -9268640.20761
 91  4 24 21 33 14.9980000  0  6G18G 2G11G19G16G 6
  23023591.701    11796768.648 5   9192238.49121
  20575528.3184  -17321154.86747 -13496972.33064
  22830198.279    -5508011.924 6  -4291945.09621
  20853423.1394    -718180.97546   -559627.58463
  23376776.873    -4982976.048 5  -3709900.48221
  22068535.3574  -12147126.66346  -9298867.78261
 91  4 24 21 33 29.9980000  0  6G18G 2G11G19G16G 6
  23032000.1234   11840951.92445   9226666.72061
  20570473.1234  -17347729.01247 -13517679.42464
  22833340.818    -5491488.126 6  -4279069.42521
  20855248.7564    -708607.62646   -552167.86763
  23378415.7644   -4974395.66845  -3703214.58261
  22061149.889   -12185910.386 6  -9329088.81121
 91  4 24 21 33 44.9980000  0  6G18G 2G11G19G16G 6
  23040414.1474   11885170.77346   9261122.72061
  20565428.8344  -17374228.75647 -13538328.54563
  22836510.826    -5474832.095 6  -4266090.75321
  20857076.7724    -698976.08946   -544662.80763
  23380069.6934   -4965714.32045  -3696449.99161
  22053774.725   -12224686.454 6  -9359303.88021
 91  4 24 21 33 59.9980000  0  6G18G 2G11G19G16G 6
  23048830.186    11929424.240 5   9295605.67221
  20560399.9284  -17400655.04747 -13558920.42563
  22839711.2954   -5458044.79446  -4253009.77761
  20858926.4904    -689287.00746   -537112.90763
  23381741.631    -4956932.789 5  -3689607.35421
  22046396.7404  -12263455.54546  -9389513.51261
 91  4 24 21 34 14.9980000  0  6G18G 2G11G19G16G 6
  23057263.600    11973709.443 5   9330113.33421
  20555384.8654  -17427010.61947 -13579457.20564
  22842928.842    -5441129.080 6  -4239828.68221
  20860777.3034    -679542.93946   -529520.16163
  23383430.006    -4948054.218 5  -3682689.09321
  22039017.725   -12302220.297 6  -9419719.75921
 91  4 24 21 34 29.9980000  0  6G18G 2G11G19G16G 6
  23065695.7324   12018032.97445   9364650.86461
  20550383.9754  -17453288.66047 -13599933.56864
  22846165.0764   -5424078.28146  -4226542.36061
  20862643.6784    -669736.77846   -521879.03163
  23385137.389    -4939071.809 5  -3675689.94721
  22031645.2094  -12340973.78846  -9449917.22061
 91  4 24 21 34 44.9980000  0  6G18G 2G11G19G16G 6
  23074135.7254   12062395.64546   9399218.90261
  20545401.3034  -17479488.02747 -13620348.62663
  22849447.311    -5406891.473 6  -4213150.06921
  20864520.6154    -659867.46246   -514188.68863
  23386869.3424   -4929984.54545  -3668609.10861
  22024272.2794  -12379714.80646  -9480104.96561
 91  4 24 21 34 59.9980000  0  6G18G 2G11G19G16G 6
  23082590.693    12106787.762 6   9433809.89521
  20540425.6624  -17505618.02947 -13640709.63664
  22852735.889    -5389578.230 6  -4199659.24521
  20866408.4514    -649944.20746   -506456.31163
  23388615.8814   -4920802.12845  -3661454.12061
  22016897.7794  -12418452.62146  -9510290.22061
 91  4 24 21 35 14.9980000  0  6G18G 2G11G19G16G 6
  23091040.811    12151215.254 5   9468428.42621
  20535468.6004  -17531672.57847 -13661011.85063
  22856053.162    -5372132.724 6  -4186065.35621
  20868309.5764    -639961.15346   -498677.34263
  23390385.482    -4911518.986 5  -3654220.62321
  22009533.631   -12457181.087 6  -9540468.19521
 91  4 24 21 35 29.9980000  0  6G18G 2G11G19G16G 6
  23099501.9984   12195675.24845   9503072.27661
  20530524.7404  -17557654.50247 -13681257.47164
  22859399.9514   -5354557.77646  -4172370.61861
  20870224.2954    -629920.90246   -490853.79763
  23392171.3974   -4902138.05845  -3646910.94461
  22002163.5224  -12495902.82046  -9570640.91461
 91  4 24 21 35 44.9980000  0  6G18G 2G11G19G16G 6
  23107966.7724   12240166.53745   9537740.53161
  20525595.3424  -17583564.56547 -13701447.10164
  22862768.951    -5336854.430 6  -4158575.83121
  20872140.3814    -619824.14146   -482986.22863
  23393968.147    -4892660.082 5  -3639525.63421
  21994795.0294  -12534618.44946  -9600808.87761
 91  4 24 21 35 59.9980000  0  6G18G 2G11G19G16G 6
  23116439.5924   12284690.19445   9572434.02461
  20520676.1784  -17609401.41547 -13721579.67964
  22866163.3654   -5319021.49546  -4144680.03161
  20874073.545     -609669.250 6   -475073.35123
  23395789.865    -4883083.965 5  -3632063.85321
  21987430.0614  -12573326.65946  -9630971.06761
 91  4 24 21 36 14.9980000  0  6G18G 2G11G19G16G 6
  23124919.5374   12329242.85545   9607150.08761
  20515775.3574  -17635168.49647 -13741657.89464
  22869582.6004   -5301062.53646  -4130686.06461
  20876015.404     -599459.488 6   -467117.71923
  23397629.2324   -4873413.52345  -3624528.56161
  21980065.678   -12612030.704 6  -9661130.01021
 91  4 24 21 36 29.9980000  0  6G18G 2G11G19G16G 6
  23133402.8814   12373832.02045   9641894.59861
  20510885.9284  -17660857.80847 -13761675.50463
  22873017.686    -5282969.686 6  -4116587.80121
  20877970.2254    -589186.87246   -459113.11063
  23399488.615    -4863641.030 5  -3616913.76321
  21972701.264   -12650722.507 6  -9691279.40921
 91  4 24 21 36 44.9980000  0  6G18G 2G11G19G16G 6
  23141896.381    12418449.941 5   9676661.52721
  20506011.4204  -17686476.92447 -13781638.41564
  22876489.522    -5264750.855 6  -4102391.33221
  20879936.326     -578858.886 6   -451065.35523
  23401365.1704   -4853774.31244  -3609225.49961
  21965336.2174  -12689409.43246  -9721424.99461
 91  4 24 21 36 59.9980000  0  6G18G 2G11G19G16G 6
  23150392.107    12463100.565 5   9711453.96521
  20501149.6474  -17712021.63847 -13801543.35564
  22879987.553    -5246402.018 6  -4088093.55121
  20881912.0294    -568471.05846   -442970.98063
  23403268.975    -4843809.576 4  -3601460.88421
  21957976.443   -12728087.225 6  -9751563.48821
 91  4 24 21 37 14.9980000  0  6G18G 2G11G19G16G 6
  23158893.7564   12507784.53445   9746272.35561
  20496301.5614  -17737491.05547 -13821389.62264
  22883494.326    -5227922.668 6  -4073694.08121
  20883902.475     -558022.533 6   -434829.28823
  23405186.2094   -4833745.98445  -3593619.28361
  21950619.217   -12766755.059 6  -9781694.20421
 91  4 24 21 37 29.9980000  0  6G18G 2G11G19G16G 6
  23167403.1934   12552499.70945   9781115.07061
  20491467.670   -17762887.003 7 -13841178.64424
  22887033.8574   -5209314.85346  -4059194.50561
  20885901.7094    -547515.13146   -426641.72963
  23407107.342    -4823585.538 4  -3585702.18421
  21943264.514   -12805414.587 6  -9811818.46121
 91  4 24 21 37 44.9980000  0  6G18G 2G11G19G16G 6
  23175917.6624   12597245.51445   9815981.63561
  20486648.8114  -17788209.93747 -13860910.76464
  22890605.928    -5190579.189 6  -4044595.31821
  20887909.1624    -536949.04946   -418408.44763
  23409069.537    -4813328.728 4  -3577709.98521
  21935908.147   -12844066.048 6  -9841936.43321
 91  4 24 21 37 59.9980000  0  6G18G 2G11G19G16G 6
  23184437.5144   12642015.69945   9850867.21061
  20481845.8814  -17813465.56247 -13880590.43964
  22894195.850    -5171721.422 6  -4029900.97121
  20889933.9754    -526329.91946   -410133.83463
  23411037.834    -4802981.685 5  -3569647.48821
  21928553.9594  -12882715.07546  -9872052.49561
 91  4 24 21 38 14.9980000  0  6G18G 2G11G19G16G 6
  23192967.318    12686816.830 5   9885776.86621
  20477052.9124  -17838647.32847 -13900212.56864
  22897804.772    -5152735.200 6  -4015106.52921
  20891964.7254    -515651.15546   -401812.74663
  23413031.732    -4792538.211 5  -3561509.84621
  21921201.5224  -12921355.07046  -9902161.53161
 91  4 24 21 38 29.9980000  0  6G18G 2G11G19G16G 6
  23201498.498    12731646.931 5   9920709.13921
  20472272.7564  -17863757.09347 -13919778.58764
  22901443.9754   -5133622.48546  -4000213.51461
  20894014.053     -504914.406 6   -393446.47023
  23415029.2644   -4782000.32145  -3553298.59761
  21913851.5844  -12959987.70246  -9932264.80561
 91  4 24 21 38 44.9980000  0  6G18G 2G11G19G16G 6
  23210029.053    12776507.968 5   9955665.47921
  20467510.0294  -17888792.67547 -13939286.80664
  22905103.350    -5114381.333 6  -3985220.42421
  20896064.5924    -494117.29746   -385033.17163
  23417052.5684   -4771366.07145  -3545012.37261
  21906500.2094  -12998610.60346  -9962360.50861
 91  4 24 21 38 59.9980000  0  6G18G 2G11G19G16G 6
  23218580.1934   12821403.76645   9990648.92961
  20462761.7404  -17913749.74547 -13958733.83664
  22908795.2794   -5095007.84846  -3970124.21261
  20898133.5924    -483255.71446   -376569.62963
  23419102.318    -4760631.387 5  -3536647.79821
  21899153.9434  -13037219.58146  -9992445.35961
 91  4 24 21 39 14.9980000  0  6G18G 2G11G19G16G 6
  23227124.2254   12866323.04145  10025650.67361
  20458027.1864  -17938639.36347 -13978128.31464
  22912498.4284   -5075513.15246  -3954933.57961
  20900205.3894    -472340.45246
  23421162.1544   -4749807.63545
  21891805.4594  -13075825.52246 -10022527.85061
 91  4 24 21 39 29.9980000  0  6G18G 2G11G19G16G 6
  23235677.998    12911275.602 5  10060678.33421
  20453303.8184  -17963451.54247 -13997462.45064
  22916238.8734   -5055887.48846  -3939640.85861
  20902298.0294    -461361.49146
  23423234.5614   -4738885.01045
  21884465.6314  -13114418.23746 -10052600.03261
 91  4 24 21 39 44.9980000  0  6G18G 2G11G19G16G 6
  23244237.912    12956253.386 5  10095725.66521
  20448595.6154  -17988194.20247 -14016742.41064
  22919992.6074   -5036138.89446  -3924252.35661
  20904393.928     -450326.481 6
  23425328.7094   -4727871.50045
  21877121.2794  -13153005.51146 -10082667.97061
 91  4 24 21 39 59.9980000  0  6G18G 2G11G19G16G 6
  23252804.9514   13001261.99045  10130797.01261
  20443901.9594  -18012861.51147 -14035963.65664
  22923778.240    -5016261.910 6  -3908763.81321
  20906506.537     -439229.769 6
  23427444.9674   -4716761.99345
  21869779.0144  -13191581.50346 -10112727.12761
 91  4 24 21 40 14.9980000  0  6G18G 2G11G19G16G 6
  23261374.3574   13046299.57445  10165890.92861
  20439222.3734  -18037455.01747 -14055127.39264
  22927580.6934   -4996258.25346  -3893176.57461
  20908629.6474    -428072.56846
  23429578.5844   -4705558.18645
  21862441.5144  -13230147.64746 -10142778.60361
 91  4 24 21 40 29.9980000  0  6G18G 2G11G19G16G 6
  23269947.6864   13091363.63845  10201005.48661
  20434555.3814  -18061976.98047 -14074235.38064
  22931413.9434   -4976130.34346  -3877492.54261
  20910767.0064    -416857.07146   -324830.58863
  23431727.740    -4694262.447 5  -3499065.49221
  21855100.4124  -13268706.07446 -10172824.06861
 91  4 24 21 40 44.9980000  0  6G18G 2G11G19G16G 6
  23278529.748    13136453.745 5  10236140.33721
  20429902.4044  -18086427.34347 -14093287.58264
  22935269.1004   -4955878.45746  -3861711.85661
  20912906.2094    -405583.23546   -316045.80963
  23433895.256    -4682874.992 5  -3490192.27421
  21847770.0064  -13307256.68046 -10202863.44161
 91  4 24 21 40 59.9980000  0  6G18G 2G11G19G16G 6
  23287115.076    13181567.207 5  10271293.35821
  20425261.8734  -18110809.02447 -14112286.26264
  22939144.3264   -4935505.63846  -3845836.94161
  20915069.506     -394253.994 6   -307217.85923
  23436075.8504   -4671398.80145  -3481249.90861
  21840430.2644  -13345802.18646 -10232898.83561
 91  4 24 21 41 14.9980000  0  6G18G 2G11G19G16G 6
  23295704.3974   13226705.69845  10306465.93061
  20420636.9904  -18135119.94447 -14131229.80764
  22943042.8184   -4915009.95246  -3829866.30461
  20917229.9514    -382866.96146   -298344.87263
  23438278.170    -4659832.423 5  -3472237.27721
  21833099.7954  -13384340.35946 -10262928.51261
 91  4 24 21 41 29.9980000  0  6G18G 2G11G19G16G 6
  23304296.865    13271865.332 5  10341654.93521
  20416022.2644  -18159363.71447 -14150121.02764
  22946964.7794   -4894395.32646  -3813802.99861
  20919412.3654    -371425.72046   -289429.64863
  23440498.1234   -4648179.50745  -3463157.21261
  21825762.5924  -13422874.73346 -10292955.23061
 91  4 24 21 41 44.9980000  0  6G18G 2G11G19G16G 6
  23312897.5534   13317052.28545  10376865.26261
  20411422.256   -18183533.941 7 -14168954.94424
  22950915.100    -4873655.445 6  -3797642.07121
  20921599.9824    -359923.70246   -280467.06663
  23442733.232    -4636433.856 5  -3454004.88421
  21818437.4364  -13461398.76546 -10322973.89561
 91  4 24 21 41 59.9980000  0  6G18G 2G11G19G16G 6
  23321503.451    13362271.750 5  10412100.90421
  20406839.006   -18207625.152 7 -14187727.29324
  22954885.131    -4852785.003 6  -3781379.37221
  20923804.670     -348355.277 6   -271452.73223
  23444991.5924   -4624590.23045  -3444776.18561
  21811107.225   -13499906.820 6 -10352980.12521
 91  4 24 21 42 14.9980000  0  6G18G 2G11G19G16G 6
  23330113.584    13407511.670 5  10447352.50021
  20402266.7254  -18231649.30347 -14206447.38964
  22958876.0144   -4831796.25646  -3765024.52361
  20926012.5144    -336732.35346   -262395.93863
  23447250.037    -4612660.896 5  -3435480.76221
  21803779.654   -13538410.817 6 -10382983.17521
 91  4 24 21 42 29.9980000  0  6G18G 2G11G19G16G 6
  23338728.8424   13452775.97045  10482623.10161
  20397710.6074  -18255602.11247 -14225111.88664
  22962900.279    -4810685.214 6  -3748574.39021
  20928236.0454    -325050.49246   -253293.21963
  23449540.0144   -4600641.78345  -3426115.31961
  21796453.0064  -13576906.26946 -10412979.57261
 91  4 24 21 42 44.9980000  0  6G18G 2G11G19G16G 6
  23347346.9984   13498066.39845  10517914.01361
  20393163.818   -18279481.498 7 -14243719.17524
  22966938.8974   -4789450.00246  -3732027.48761
  20930467.8814    -313307.50846   -244142.86763
  23451847.4364   -4588531.38645  -3416678.79661
  21789131.1074  -13615391.00446 -10442967.61461
 91  4 24 21 42 59.9980000  0  6G18G 2G11G19G16G 6
  23355970.8424   13543377.57446  10553221.11961
  20388634.9674  -18303292.85247 -14262273.44664
  22970997.1474   -4768096.08046  -3715388.06061
  20932718.2794    -301508.69546   -234949.02063
  23454169.6074   -4576334.79745  -3407175.05861
  21781805.670   -13653870.223 6 -10472951.36121
 91  4 24 21 43 14.9980000  0  6G18G 2G11G19G16G 6
  23364596.0064   13588715.39245  10588548.99961
  20384118.279   -18327029.945 7 -14280769.86024
  22975086.3894   -4746617.38546  -3698651.42261
  20934971.3264    -289647.62346   -225706.66163
  23456503.4044   -4564046.14145  -3397599.64061
  21774491.2644  -13692337.53546 -10502925.84061
 91  4 24 21 43 29.9980000  0  6G18G 2G11G19G16G 6
  23373225.631    13634081.238 5  10623898.68521
  20379614.475   -18350691.160 7 -14299207.14924
  22979200.475    -4725012.733 6  -3681816.66021
  20937241.9044    -277722.71746   -216414.55963
  23458855.264    -4551664.077 5  -3387951.39621
  21767165.631   -13730791.359 6 -10532889.80321
 91  4 24 21 43 44.9980000  0  6G18G 2G11G19G16G 6
  23381868.490    13679473.230 5  10659268.75621
  20375126.256   -18374278.265 7 -14317586.68524
  22983335.990    -4703284.074 6  -3664885.26121
  20939522.1864    -265735.59046   -207073.96663
  23461231.5534   -4539190.52944  -3378231.90161
  21759857.2644  -13769233.24546 -10562844.46161
 91  4 24 21 43 59.9980000  0  6G18G 2G11G19G16G 6
  23390510.9364   13724887.09845  10694655.87561
  20370648.428   -18397794.991 7 -14335911.38724
  22987494.0844   -4681435.29846  -3647860.26061
  20941815.3974    -253689.95846   -197687.79363
  23463631.1544   -4526629.74045  -3368444.41061
  21752539.561   -13807666.838 6 -10592792.66221
 91  4 24 21 44 14.9980000  0  6G18G 2G11G19G16G 6
  23399158.5764   13770320.36245  10730058.11161
  20366184.795   -18421243.905 7 -14354183.24324
  22991673.428    -4659469.326 6  -3630743.94421
  20944116.9984    -241588.40346   -188258.04263
  23466025.8264   -4513984.72344  -3358591.29661
  21745228.1784  -13846094.74046 -10622736.42061
 91  4 24 21 44 29.9980000  0  6G18G 2G11G19G16G 6
  23407801.1074   13815774.11045  10765476.29861
  20361739.053   -18444623.428 7 -14372401.02724
  22995873.772    -4637384.820 6  -3613535.25721
  20946432.8574    -229429.30946   -178783.44963
  23468447.537    -4501254.093 4  -3348671.47121
  21737920.107   -13884514.982 6 -10652674.21721
 91  4 24 21 44 44.9970000  0  6G18G 2G11G19G16G 6
  23416460.0714   13861252.42545  10800913.63361
  20357304.0564  -18467924.65047 -14390557.79364
  23000103.6424   -4615176.08746  -3596229.74861
  20948757.3064    -217205.69046   -169258.58863
  23470888.993    -4488431.382 4  -3338679.86521
  21730607.712   -13922917.621 6 -10682598.29521
 91  4 24 21 44 59.9970000  0  6G18G 2G11G19G16G 6
  23425118.689    13906754.568 5  10836369.54321
  20352885.1104  -18491157.36647 -14408661.18364
  23004350.009    -4592846.979 6  -3578830.48821
  20951094.7434    -204922.49546   -159687.29663
  23473355.985    -4475521.948 5  -3328620.70221
  21723302.431   -13961314.280 6 -10712517.71221
 91  4 24 21 45 14.9970000  0  6G18G 2G11G19G16G 6
  23433779.915    13952277.135 5  10871841.35121
  20348474.2124  -18514320.27947 -14426710.18164
  23008622.384    -4570399.354 6  -3561338.86821
  20953441.6734    -192580.76446   -150070.39463
  23475829.235    -4462527.196 5  -3318495.03321
  21715998.446   -13999702.509 6 -10742430.56621
 91  4 24 21 45 29.9970000  0  6G18G 2G11G19G16G 6
  23442448.0954   13997826.12445  10907333.75961
  20344083.0094  -18537407.13347 -14444699.91164
  23012917.837    -4547827.133 6  -3543750.14221
  20955806.5484    -180174.08146   -140402.88263
  23478321.306    -4449440.733 5  -3308297.93521
  21708693.689   -14038075.836 6 -10772331.81121
 91  4 24 21 45 44.9970000  0  6G18G 2G11G19G16G 6
  23451123.720    14043393.770 6  10942840.71321
  20339701.673   -18560425.308 7 -14462636.12424
  23017236.0564   -4525138.20346  -3526070.45561
  20958177.3454    -167709.83146   -130690.51663
  23480827.564    -4436270.633 5  -3298035.67921
  21701393.345   -14076441.681 6 -10802227.22321
 91  4 24 21 45 59.9970000  0  6G18G 2G11G19G16G 6
  23459798.0324   14088980.43145  10978362.47661
  20335337.923   -18583374.239 7 -14480518.38224
  23021575.524    -4502332.166 6  -3508299.54221
  20960560.4464    -155187.38246   -120932.79163
  23483339.8844   -4423015.98545  -3287707.52861
  21694096.814   -14114799.288 6 -10832116.21321
 91  4 24 21 46 14.9970000  0  6G18G 2G11G19G16G 6
  23468475.5094   14134594.86045  11013905.87861
  20330982.4464  -18606244.88047 -14498339.63464
  23025937.0484   -4479400.19646  -3490430.51061
  20962954.6344    -142597.53046   -111122.54963
  23485887.056    -4409668.680 5  -3277307.16921
  21686800.353   -14153139.563 6 -10861991.69921
 91  4 24 21 46 29.9970000  0  6G18G 2G11G19G16G 6
  23477164.837    14180227.885 5  11049463.75321
  20326644.4074  -18629046.20547 -14516106.87864
  23030322.892    -4456351.480 6  -3472470.49421
  20965359.2744    -129949.15146   -101266.70663
  23488442.759    -4396237.760 5  -3266841.67821
  21679505.259   -14191471.294 6 -10891860.52421
 91  4 24 21 46 44.9970000  0  6G18G 2G11G19G16G 6
  23485847.8534   14225880.99445  11085037.28761
  20322319.9154  -18651776.76847 -14533818.97964
  23034732.1344   -4433184.77846  -3454418.52461
  20967778.1814    -117240.74146    -91364.08663
  23491018.7204   -4382722.08345  -3256310.10661
  21672211.7514  -14229792.88746 -10921721.45061
 91  4 24 21 46 59.9970000  0  6G18G 2G11G19G16G 6
  23494540.446    14271561.143 5  11120631.92021
  20318007.3994  -18674429.02147 -14551470.05264
  23039164.8924   -4409892.89946  -3436269.04161
  20970214.1574    -104464.55946    -81408.64963
  23493604.1184   -4369114.69245  -3245707.08761
  21664927.5564  -14268096.66746 -10951568.49361
 91  4 24 21 47 14.9970000  0  6G18G 2G11G19G16G 6
  23503239.1964   14317258.90245  11156240.25961
  20313709.564   -18697012.414 7 -14569067.47624
  23043615.3684   -4386485.24046  -3418029.34161
  20972654.8144     -91629.98546    -71407.72063
  23496203.0324   -4355424.92945  -3235039.86561
  21657639.2354  -14306391.84646 -10981408.83461
 91  4 24 21 47 29.9970000  0  6G18G 2G11G19G16G 6
  23511937.478    14362976.598 5  11191864.10721
  20309426.0794  -18719524.50647 -14586609.33864
  23048094.767    -4362959.731 6  -3399697.80221
  20975107.8214     -78734.69946    -61359.47963
  23498825.587    -4341650.361 5  -3224306.57621
  21650350.556   -14344675.927 6 -11011240.52821
 91  4 24 21 47 44.9970000  0  6G18G 2G11G19G16G 6
  23520639.642    14408715.800 5  11227504.74221
  20305157.1104  -18741963.24947 -14604094.04364
  23052593.540    -4339314.436 6  -3381272.93021
  20977574.8604     -65776.33346    -51262.08663
  23501470.954    -4327789.364 5  -3213505.95721
  21643066.173   -14382946.631 6 -11041061.80821
 91  4 24 21 47 59.9970000  0  6G18G 2G11G19G16G 6
  23529351.4544   14454469.09545  11263156.35461
  20300900.2204  -18764335.92147 -14621527.26864
  23057113.899    -4315556.958 6  -3362760.62321
  20980053.8534     -52761.90346    -41121.00363
  23504122.220    -4313849.495 5  -3202643.87221
  21635788.782   -14421211.035 6 -11070878.17321
 91  4 24 21 48 14.9970000  0  6G18G 2G11G19G16G 6
  23538059.1894   14500238.69645  11298820.66561
  20296656.0794  -18786640.14647 -14638907.16064
  23061655.2904   -4291685.17046  -3344159.24261
  20982538.3684     -39689.04146    -30934.39263
  23506785.0094   -4299828.60445  -3191718.62461
  21628507.524   -14459466.789 6 -11100687.80021
 91  4 24 21 48 29.9970000  0  6G18G 2G11G19G16G 6
  23546765.8534   14546026.79045  11334499.34861
  20292421.782   -18808873.394 7 -14656231.73924
  23066219.665    -4267696.600 6  -3325466.87621
  20985039.1894     -26555.04946    -20700.14463
  23509471.876    -4285724.543 5  -3180728.60321
  21621227.556   -14497711.045 6 -11130488.47221
 91  4 24 21 48 44.9970000  0  6G18G 2G11G19G16G 6
  23555492.8064   14591836.90245  11370195.23761
  20288205.907   -18831032.086 7 -14673498.22524
  23070811.798    -4243587.938 6  -3306680.95121
  20987551.0324     -13356.31746    -10415.45463
  23512168.868    -4271533.859 5  -3169671.09021
  21613952.157   -14535940.164 6 -11160277.34021
 91  4 24 21 48 59.9970000  0  5G18G 2G11G19G 6
  23564211.5794   14637667.72345  11405907.24861
  20284005.5794  -18853117.16347 -14690707.34764
  23075424.931    -4219360.558 6  -3287802.51721
  20990073.6574        -93.72546       -81.00663
  21606678.6344  -14574154.88546 -11190054.97961
 91  4 24 21 49 14.9970000  0  5G18G 2G11G19G 6
  23572936.446    14683518.296 5  11441634.63521
  20279818.0794  -18875129.35947 -14707859.67964
  23080054.720    -4195015.177 6  -3268832.11621
  20992607.6574      13232.27846     10302.86563
  21599414.1494  -14612355.86646 -11219821.91861
 91  4 24 21 49 29.9970000  0  5G18G 2G11G19G 6
  23581659.189    14729382.353 5  11477372.58421
  20275642.2124  -18897074.56747 -14724959.81664
  23084710.3534   -4170558.16746  -3249774.68961
  20995155.9784      26615.69546     20731.46663
  21592143.610   -14650548.843 6 -11249582.62521
 91  4 24 21 49 44.9970000  0  5G18G 2G11G19G 6
  23590393.595    14775263.275 5  11513123.59821
  20271476.8684  -18918949.34547 -14742005.07364
  23089384.173    -4145986.280 6  -3230627.78421
  20997712.5954      40060.16946     31207.64163
  21584880.735   -14688730.312 6 -11279334.36021
 91  4 24 21 49 59.9970000  0  5G18G 2G11G19G 6
  23599126.548    14821157.405 5  11548884.93221
  20267325.1654  -18940757.10747 -14758998.10564
  23094084.564    -4121303.025 6  -3211394.12821
  21000284.8374      53562.30846     41728.75563
  21577616.1034  -14726903.42846 -11309079.58661
 91  4 24 21 50 14.9970000  0  5G18G 2G11G19G 6
  23607865.001    14867069.040 5  11584659.93221
  20263190.8064  -18962493.30647 -14775935.37064
  23098803.8064   -4096504.24046  -3192070.44461
  21002864.829       67126.618 6     52298.30823
  21570356.3294  -14765063.54846 -11338814.68561
 91  4 24 21 50 29.9970000  0  5G18G 2G11G19G 6
  23616602.7594   14912998.99045  11620449.19361
  20259068.610   -18984156.790 7 -14792815.97623
  23103540.735    -4071589.045 6  -3172656.02021
  21005457.8764      80754.48446     62917.39263
  21563095.6734  -14803209.28446 -11368538.57561
 91  4 24 21 50 44.9970000  0  5G18G 2G11G19G 6
  23625349.1104   14958954.60845  11656258.45361
  20254964.3144  -19005740.10647 -14809634.11164
  23108307.8214   -4046550.27246  -3153145.30161
  21008066.204       94453.397 6     73591.82323
  21555839.2354  -14841333.19446 -11398245.45861
 91  4 24 21 50 59.9970000  0  5G18G 2G11G19G 6
  23634100.845    15004917.763 5  11692073.55121
  20250867.2674  -19027261.57747 -14826404.05664
  23113093.7904   -4021406.31246  -3133552.63661
  21010684.8214     108205.32146     84307.57463
  21548585.493   -14879453.276 6 -11427949.36521
 91  4 24 21 51 14.9970000  0  5G18G 2G11G19G 6
  23642847.556    15050903.051 5  11727905.93321
  20246783.5714  -19048706.03447 -14843113.99964
  23117898.0564   -3996142.28146  -3113866.42461
  21013310.8684     122025.60246     95076.58463
  21541331.9394  -14917554.20046 -11457638.33761
 91  4 24 21 51 29.9970000  0  5G18G 2G11G19G 6
  23651601.4544   15096906.14845  11763752.19361
  20242717.235   -19070077.459 7 -14859767.02924
  23122727.2904   -3970762.27546  -3094089.81061
  21015956.9074     135910.45446    105895.91063
  21534086.2594  -14955639.66846 -11487315.26861
 91  4 24 21 51 44.9970000  0  5G18G 2G11G19G 6
  23660361.3064   15142922.02445  11799608.38761
  20238663.181   -19091380.553 7 -14876366.82024
  23127582.5094   -3945271.40246  -3074226.77761
  21018608.0874     149855.10746    116761.83863
  21526846.0484  -14993714.57046 -11516983.96361
 91  4 24 21 51 59.9970000  0  5G18G 2G11G19G 6
  23669120.8294   15188950.04545  11835474.06961
  20234619.657   -19112616.015 7 -14892913.90524
  23132453.5404   -3919670.51946  -3054278.04261
  21021275.2744     163858.91146    127673.85763
  21519601.0324  -15031779.19946 -11546644.65761
 91  4 24 21 52 14.9970000  0  5G18G 2G11G19G 6
  23677876.009    15234994.510 4  11871352.58521
  20230597.923   -19133779.342 7 -14909404.78524
  23137343.314    -3893955.279 6  -3034240.23121
  21023949.5564     177926.41046    138635.50863
  21512358.9934  -15069828.91346 -11576293.73161
 91  4 24 21 52 29.9970000  0  4G 2G11G19G 6
  20226582.1184  -19154869.07147 -14925838.31164
  23142262.298    -3868124.507 6  -3014112.38121
  21026640.1424     192059.36446    149648.16463
  21505122.149   -15107862.049 6 -11605929.88321
 91  4 24 21 52 44.9970000  0  4G 2G11G19G 6
  20222582.532   -19175889.854 7 -14942218.11724
  23147196.7984   -3842183.21946  -2993898.39361
  21029342.4704     206253.09946    160708.18063
  21497883.118   -15145883.174 6 -11635556.68821
 91  4 24 21 52 59.9970000  0  4G 2G11G19G 6
  20218596.1104  -19196833.50347 -14958537.82064
  23152153.1574   -3816123.45446  -2973592.10461
  21032054.4704     220515.87046    171821.99263
  21490654.368   -15183884.152 6 -11665167.78821
 91  4 24 21 53 14.9970000  0  4G 2G11G19G 6
  20214626.0174  -19217700.59047 -14974797.86064
  23157137.0014   -3789946.03046  -2953194.13661
  21034782.720      234847.270 6    182989.27223
  21483424.8844  -15221865.22646 -11694763.37061
 91  4 24 21 53 29.9970000  0  4G 2G11G19G 6
  20210670.040   -19238501.648 7 -14991006.45824
  23162138.7284   -3763661.64646  -2932712.82861
  21037523.5484     249236.94546    194201.97263
  21476200.7674  -15259836.65946 -11724351.44561
 91  4 24 21 53 44.9970000  0  4G 2G11G19G 6
  20206724.673   -19259230.479 7 -15007158.76724
  23167161.399    -3737264.372 6  -2912143.55521
  21040269.9074     263691.09646    205464.90663
  21468979.970   -15297792.220 6 -11753927.16021
 91  4 24 21 53 59.9970000  0  4G 2G11G19G 6
  20202792.493   -19279891.668 7 -15023258.37124
  23172201.9074   -3710758.96046  -2891490.00661
  21043038.4464     278205.33446    216774.67063
  21461757.782   -15335736.250 6 -11783493.88321
 91  4 24 21 54 14.9970000  0  4G 2G11G19G 6
  20198875.8684  -19300481.33247 -15039302.24364
  23177269.946    -3684141.825 6  -2870749.39321
  21045807.5954     292783.57046    228134.29463
  21454542.689   -15373664.738 6 -11813048.49621
 91  4 24 21 54 29.9970000  0  4G 2G11G19G 6
  20194968.4934  -19321006.51847 -15055295.87064
  23182359.9234   -3657420.37046  -2849927.48661
  21048593.7824     307418.68646    239538.24563
  21447321.751   -15411584.615 6 -11842596.40521
 91  4 24 21 54 44.9970000  0  4G 2G11G19G 6
  20191075.9544  -19341465.94847 -15071238.25964
  23187465.048    -3630593.332 6  -2829023.31321
  21051384.8994     322112.40346    250987.86263
  21440111.790   -15449494.208 6 -11872136.29821
 91  4 24 21 54 59.9970000  0  4G 2G11G19G 6
  20187190.470   -19361862.040 7 -15087131.29923
  23192586.274    -3603663.392 6  -2808038.97121
  21054193.6344     336862.40246    262481.32863
  21432896.985   -15487395.878 6 -11901670.01521
 91  4 24 21 55 14.9970000  0  4G 2G11G19G 6
  20183324.376   -19382187.841 7 -15102969.56323
  23197734.212    -3576623.916 6  -2786969.25521
  21057012.868      351675.543 6    274023.99023
  21425691.556   -15525282.520 6 -11931192.02421
 91  4 24 21 55 29.9970000  0  4G 2G11G19G 6
  20179470.853   -19402446.664 7 -15118755.63524
  23202890.2904   -3549478.38346  -2765816.91061
  21059846.4154     366548.73746    285613.45363
  21418479.962   -15563157.193 6 -11960704.71021
 91  4 24 21 55 44.9970000  0  4G 2G11G19G 6
  20175629.720   -19422631.835 7 -15134484.32023
  23208080.384    -3522220.517 6  -2744577.00921
  21062684.2204     381488.55246    297254.83063
  21411277.462   -15601013.309 6 -11990202.92621
 91  4 24 21 55 59.9970000  0  4G 2G11G19G 6
  20171803.564   -19442746.319 7 -15150157.91624
  23213291.782    -3494853.499 6  -2723252.07821
  21065540.790      396492.358 6    308946.06223
  21404076.626   -15638853.500 6 -12019688.73821
 91  4 24 21 56 14.9970000  0  4G 2G11G19G 6
  20167987.212   -19462800.467 7 -15165784.50524
  23218518.868    -3467387.782 6  -2701850.26621
  21068405.985      411549.893 6    320679.16623
  21396877.017   -15676687.774 6 -12049169.93921
 91  4 24 21 56 29.9970000  0  4G 2G11G19G 6
  20164180.8604  -19482782.35847 -15181354.77863
  23223767.2674   -3439811.92846  -2680362.59061
  21071283.1494     426673.09746    332463.44563
  21389676.618   -15714504.261 6 -12078637.29121
 91  4 24 21 56 44.9970000  0  4G 2G11G19G 6
  20160393.407   -19502693.859 7 -15196870.21024
  23229027.9074   -3412127.90946  -2658790.62261
  21074173.415      441860.251 6    344297.54623
  21382486.149   -15752304.510 6 -12108091.98321
 91  4 24 21 56 59.9970000  0  4G 2G11G19G 6
  20156616.665   -19522539.926 7 -15212334.65524
  23234320.157    -3384341.140 6  -2637138.61721
  21077077.657      457106.398 6    356177.61323
  21375299.181   -15790093.446 6 -12137537.86421
 91  4 24 21 57 14.9970000  0  4G 2G11G19G 6
  20152853.868   -19542320.197 7 -15227747.82723
  23239626.4394   -3356451.22246  -2615406.24061
  21079989.657      472412.219 6    368104.18423
  21368110.821   -15827870.351 6 -12166974.35921
 91  4 24 21 57 29.9970000  0  4G 2G11G19G 6
  20149103.259   -19562032.659 7 -15243108.16323
  23244955.6814   -3328456.50246  -2593592.21961
  21082914.6654     487779.64046    380078.75963
  21360921.564   -15865633.207 6 -12196399.90121
 91  4 24 21 57 44.9970000  0  4G 2G11G19G 6
  20145364.689   -19581679.163 7 -15258417.09823
  23250305.360    -3300359.069 6  -2571698.11021
  21085851.103      503206.992 6    392100.02523
  21353735.368   -15903383.583 6 -12225815.72921
 91  4 24 21 57 59.9970000  0  4G 2G11G19G 6
  20141638.1034  -19601257.85647 -15273673.20163
  23255672.3454   -3272157.32246  -2549722.74161
  21088798.478      518696.301 6    404169.57423
  21346558.751   -15941119.457 6 -12255220.25321
 91  4 24 21 58 14.9970000  0  4G 2G11G19G 6
  20137925.0174  -19620771.01047 -15288878.22863
  23261058.3844   -3243853.71946  -2527667.98461
  21091752.814      534245.319 6    416285.64823
  21339376.868   -15978842.944 6 -12284615.13321
 91  4 24 21 58 29.9970000  0  4G 2G11G19G 6
  20134224.0564  -19640212.71647 -15304027.57964
  23266463.5094   -3215442.70246  -2505529.52761
  21094727.673      549860.028 6    428452.91223
  21332204.524   -16016547.864 6 -12313995.53921
 91  4 24 21 58 44.9970000  0  4G 2G11G19G 6
  20130536.6424  -19659583.95147 -15319122.01663
  23271886.0324   -3186925.51846  -2483308.34661
  21097708.446      565539.524 6    440670.65823
  21325030.657   -16054235.224 6 -12343362.25621
 91  4 24 21 58 59.9970000  0  4G 2G11G19G 6
  20126860.579   -19678894.420 7 -15334169.11524
  23277334.9704   -3158312.06446  -2461012.17061
  21100709.423      581274.286 6    452931.46623
  21317859.556   -16091914.391 6 -12372722.59222
 91  4 24 21 59 14.9970000  0  4G 2G11G19G 6
  20123199.103   -19698141.122 7 -15349166.51824
  23282798.290    -3129599.459 6  -2438638.72121
  21103709.790      597067.506 6    465237.82522
  21310691.509   -16129582.181 6 -12402074.06422
 91  4 24 21 59 29.9970000  0  4G 2G11G19G 6
  20119550.9154  -19717320.84247 -15364111.72264
  23288284.860    -3100784.743 6  -2416185.71221
  21106728.478      612922.514 6    477592.32822
  21303528.821   -16167235.104 6 -12431413.95721
 91  4 24 21 59 44.9970000  0  4G 2G11G19G 6
  20115917.2204  -19736427.90947 -15379000.32063
  23293788.9624   -3071862.57346  -2393648.96161
  21109757.704      628845.008 6    489999.42523
  21296364.071   -16204867.398 6 -12460737.77722
 91  4 24 21 59 59.9970000  0  4G 2G11G19G 6
  20112293.5644  -19755470.34547 -15393838.54963
  23299301.8604   -3042841.42246  -2371035.08261
  21112801.274      644826.778 6    502452.71023
  21289208.8844  -16242487.10346 -12490051.77662
 91  4 24 22  0 14.9970000  0  4G 2G11G19G 6
  20108681.6034  -19774447.57347 -15408625.97163
  23304848.7824   -3013720.84446  -2348343.72461
  21115847.001      660868.691 6    514952.85523
  21282054.157   -16280093.214 6 -12519355.18922
 91  4 24 22  0 29.9970000  0  4G 2G11G19G 6
  20105081.6894  -19793354.71947 -15423358.77963
  23310409.7594   -2984496.19545  -2325571.28661
  21118918.439      676975.714 6    527503.74023
  21274899.118   -16317680.674 6 -12548644.07422
 91  4 24 22  0 44.9970000  0  4G 2G11G19G 6
  20101499.9074  -19812188.14947 -15438034.14863
  23315987.7744   -2955164.20145  -2302715.20361
  21121995.376      693151.599 6    540108.28323
  21267750.689   -16355245.751 6 -12577915.50622
 91  4 24 22  0 59.9970000  0  4G 2G11G19G 6
  20097927.0484  -19830955.28547 -15452657.86163
  23321590.876    -2925732.572 5  -2279781.45121
  21125085.540      709389.081 6    552760.81723
  21260604.556   -16392795.633 6 -12607175.09621
 91  4 24 22  1 14.9970000  0  4G 2G11G19G 6
  20094367.774   -19849660.003 7 -15467232.93924
  23327210.1964   -2896205.30545  -2256773.20561
  21128182.126      725684.380 6    565458.39922
  21253462.689   -16430334.058 6 -12636425.76222
 91  4 24 22  1 29.9970000  0  4G 2G11G19G 6
  20090819.9464  -19868301.35247 -15481758.63764
  23332846.9234   -2866581.80245  -2233689.95061
  21131298.345      742038.575 6    578201.88222
  21246319.696   -16467859.932 6 -12665666.65422
 91  4 24 22  1 44.9970000  0  4G 2G11G19G 6
  20087284.9784  -19886881.91647 -15496236.97464
  23338499.993    -2836864.993 5  -2210533.98221
  21134415.782      758449.034 6    590989.20222
  21239182.399   -16505375.676 6 -12694899.64922
 91  4 24 22  1 59.9970000  0  4G 2G11G19G 6
  20083760.759   -19905395.652 7 -15510663.23824
  23344180.2744   -2807048.87945  -2187300.64161
  21137554.485      774921.961 6    603825.20522
  21232044.556   -16542874.850 6 -12724119.73222
 91  4 24 22  2 14.9970000  0  4G 2G11G19G 6
  20080251.8844  -19923844.02847 -15525038.56764
  23349869.353    -2777135.143 5  -2163991.27421
  21140700.493      791456.146 6    616708.93922
  21224910.7744  -16580358.68546 -12753327.86162
 91  4 24 22  2 29.9970000  0  4G 2G11G19G 6
  20076753.3144  -19942222.55147 -15539359.46164
  23355575.704    -2747119.751 5  -2140602.66221
  21143860.884      808056.034 6    629643.86522
  21217785.251   -16617822.628 6 -12782520.48922
 91  4 24 22  2 44.9970000  0  4G 2G11G19G 6
  20073271.3684  -19960530.01547 -15553624.98664
  23361310.048    -2717001.751 5  -2117134.11021
  21147030.868      824722.848 6    642630.95023
  21210657.485   -16655265.366 6 -12811696.59822
 91  4 24 22  2 59.9970000  0  4G 2G11G19G 6
  20069802.4854  -19978764.50447 -15567833.64964
  23367058.181    -2686779.510 5  -2093584.28821
  21150215.767      841458.612 6    655671.75522
  21203540.282   -16692684.718 6 -12840854.47722
 91  4 24 22  3 14.9970000  0  4G 2G11G19G 6
  20066345.2204  -19996931.77948 -15581989.93764
  23372837.118    -2656458.872 5  -2069957.82821
  21153410.431      858257.756 6    668761.95022
  21196418.7284  -16730086.18246 -12869998.42062
 91  4 24 22  3 29.9970000  0  4G 2G11G19G 6
  20062896.3144  -20015037.99547 -15596098.65164
  23378615.767    -2626046.231 5  -2046259.68321
  21156626.282      875114.491 6    681897.02022
  21189304.415   -16767475.517 6 -12899132.91622
 91  4 24 22  3 44.9970000  0  4G 2G11G19G 6
  20059462.7824  -20033081.27647 -15610158.32764
  23384423.2594   -2595540.16745  -2022488.73261
  21159839.173      892030.582 6    695078.34722
  21182193.532   -16804850.840 6 -12928256.48822
 91  4 24 22  3 59.9970000  0  4G 2G11G19G 6
  20056043.321   -20051051.911 7 -15624161.38824
  23390249.3454   -2564931.08745  -1998637.50161
  21163074.704      909015.577 6    708313.35622
  21175086.454   -16842202.367 6 -12957361.51222
 91  4 24 22  4 14.9970000  0  4G 2G11G19G 6
  20052635.017   -20068959.754 7 -15638115.52824
  23396092.837    -2534228.970 5  -1974713.78721
  21166313.868      926060.141 6    721594.78522
  21167979.548   -16879539.512 6 -12986455.34822
 91  4 24 22  4 29.9970000  0  4G 2G11G19G 6
  20049243.1184  -20086794.67447 -15652012.84564
  23401953.4074   -2503424.13345  -1950710.01961
  21169574.345      943174.417 6    734930.53122
  21160878.110   -16916852.075 6 -13015530.02622
 91  4 24 22  4 44.9970000  0  4G 2G11G19G 6
  20045857.603   -20104566.245 7 -15665860.79224
  23407828.056    -2472526.445 5  -1926633.89621
  21172838.126      960348.818 6    748313.13322
  21153783.970   -16954149.433 6 -13044592.84422
 91  4 24 22  4 59.9970000  0  4G 2G11G19G 6
  20042489.899   -20122272.304 7 -15679657.70024
  23413728.9464   -2441533.91145  -1902483.87561
  21176120.259      977585.551 6    761744.30622
  21146687.735   -16991429.168 6 -13073641.94622
 91  4 24 22  5 14.9970000  0  4G 2G11G19G 6
  20039137.024   -20139907.583 7 -15693399.45124
  23419649.243    -2410441.635 5  -1878256.10921
  21179411.032      994889.969 6    775228.21922
  21139596.134   -17028685.930 6 -13102673.13522
 91  4 24 22  5 29.9970000  0  4G 2G11G19G 6
  20035794.407   -20157476.001 8 -15707089.10124
  23425576.345    -2379253.836 5  -1853953.91521
  21182720.4544    1012258.36846    788761.97362
  21132516.8064  -17065923.31646 -13131689.21762
 91  4 24 22  5 44.9970000  0  4G 2G11G19G 6
  20032461.4464  -20174978.04947 -15720727.03664
  23431535.1184   -2347971.29245  -1829577.91261
  21186033.329     1029690.221 6    802345.18322
  21125430.243   -17103141.723 6 -13160690.51522
 91  4 24 22  5 59.9970000  0  4G 2G11G19G 6
  20029144.149   -20192414.098 7 -15734313.54124
  23437501.2284   -2316594.54745  -1805128.47561
  21189369.462     1047185.358 6    815977.70822
  21118352.134   -17140341.276 6 -13189677.13122
 91  4 24 22  6 14.9970000  0  4G 2G11G19G 6
  20025837.7434  -20209786.80747 -15747850.69164
  23443493.3374   -2285126.51745  -1780607.95161
  21192704.860     1064741.208 6    829657.54222
  21111276.564   -17177524.437 6 -13218650.96822
 91  4 24 22  6 29.9970000  0  4G 2G11G19G 6
  20022545.712   -20227093.450 7 -15761336.36724
  23449497.0484   -2253564.71245  -1756014.34561
  21196066.876     1082360.433 6    843386.75222
  21104200.267   -17214688.252 6 -13247609.73522
 91  4 24 22  6 44.9970000  0  4G 2G11G19G 6
  20019264.142   -20244335.026 7 -15774771.33723
  23455516.4464   -2221910.25545  -1731348.52161
  21199422.2124    1100042.29046    857164.76762
  21097136.8994  -17251833.52046 -13276554.04362
 91  4 24 22  6 59.9970000  0  4G 2G11G19G 6
  20015994.032   -20261510.596 7 -15788154.87323
  23461566.235    -2190162.522 5  -1706610.04321
  21202801.743     1117787.893 6    870992.45222
  21090068.915   -17288958.807 6 -13305482.79022
 91  4 24 22  7 14.9970000  0  4G 2G11G19G 6
  20012737.001   -20278621.398 7 -15801487.94023
  23467626.454    -2158323.099 5  -1681800.12721
  21206188.204     1135596.101 6    884868.92922
  21083009.2594  -17326065.49946 -13334397.03962
 91  4 24 22  7 29.9970000  0  4G 2G11G19G 6
  20009493.384   -20295667.462 7 -15814770.56023
  23473703.009    -2126392.410 6  -1656919.05221
  21209591.501     1153466.772 6    898794.08023
  21075953.759   -17363153.402 6 -13363296.64522
 91  4 24 22  7 44.9970000  0  4G 2G11G19G 6
  20006262.540   -20312644.990 7 -15827999.77723
  23479791.0874   -2094366.93945  -1631964.14061
  21213000.681     1171403.819 6    912770.95222
  21068896.384   -17400218.499 6 -13392178.48622
 91  4 24 22  7 59.9970000  0  4G 2G11G19G 6
  20003046.681   -20329557.226 7 -15841178.12323
  23485905.5014   -2062249.95645  -1606937.92261
  21216433.064     1189404.230 6    926797.19622
  21061849.6424  -17437263.58346 -13421044.72962
 91  4 24 22  8 14.9970000  0  4G 2G11G19G 6
  19999838.868   -20346406.776 7 -15854307.61324
  23492029.2744   -2030044.43045  -1581842.70261
  21219866.392     1207465.631 6    940870.95823
  21054801.524   -17474291.162 6 -13449897.33822
 91  4 24 22  8 29.9970000  0  4G 2G11G19G 6
  19996645.798   -20363191.679 7 -15867386.73724
  23498176.3684   -1997748.78345  -1556677.26061
  21223314.4934    1225589.74246    954993.58562
  21047763.3454  -17511299.20746 -13478734.71862
 91  4 24 22  8 44.9970000  0  4G 2G11G19G 6
  19993462.564   -20379908.196 7 -15880412.57124
  23504344.642    -1965359.348 5  -1531438.73321
  21226775.407     1243780.773 6    969168.36222
  21040723.196   -17548283.451 6 -13507553.55322
 91  4 24 22  8 59.9970000  0  4G 2G11G19G 6
  19990296.423   -20396560.770 8 -15893388.58024
  23510524.1264   -1932880.92945  -1506130.87261
  21230251.501     1262034.165 6    983391.73822
  21033685.696   -17585248.353 6 -13536357.31822
 91  4 24 22  9 14.9970000  0  4G 2G11G19G 6
  19987139.3764  -20413149.16948 -15906314.57764
  23516726.040    -1900313.347 5  -1480753.53021
  21233734.314     1280350.291 6    997663.98623
  21026658.2674  -17622193.33747 -13565145.55962
 91  4 24 22  9 29.9970000  0  4G 2G11G19G 6
  19983996.095   -20429677.099 8 -15919193.46024
  23522940.0094   -1867660.89745  -1455310.05661
  21237232.3604    1298725.50846   1011982.27263
  21019626.548   -17659121.998 6 -13593921.09222
 91  4 24 22  9 44.9970000  0  4G 2G11G19G 6
  19980860.9854  -20446137.51347 -15932019.72764
  23529169.0874   -1834916.70145  -1429795.08561
  21240739.8684    1317166.84846   1026352.08963
  21012608.6184  -17696027.12546 -13622678.27362
 91  4 24 22  9 59.9970000  0  4G 2G11G19G 6
  19977740.681   -20462538.688 7 -15944799.83824
  23535409.1494   -1802089.41445  -1404215.38661
  21244265.1264    1335666.14546   1040767.06663
  21005584.9544  -17732916.79946 -13651423.41662
 91  4 24 22 10 14.9970000  0  4G 2G11G19G 6
  19974629.782   -20478879.619 7 -15957533.01024
  23541674.4854   -1769178.32945  -1378570.34161
  21247792.907     1354224.510 6   1055228.07923
  20998570.3214  -17769789.78446 -13680155.55762
 91  4 24 22 10 29.9970000  0  4G 2G11G19G 6
  19971533.024   -20495150.822 7 -15970211.84524
  23547958.7904   -1736174.02945  -1352852.69861
  21251341.0484    1372851.60746   1069742.64363
  20991561.126   -17806636.129 7 -13708866.93522
 91  4 24 22 10 44.9970000  0  4G 2G11G19G 6
  19968453.056   -20511354.528 8 -15982838.09024
  23554251.0244   -1703078.99745  -1327064.34961
  21254894.4154    1391545.29946   1084309.09363
  20984549.3764  -17843458.00346 -13737559.24762
 91  4 24 22 10 59.9970000  0  4G 2G11G19G 6
  19965380.485   -20527496.203 8 -15995415.99924
  23560563.3844   -1669898.90145  -1301209.71061
  21258468.087     1410300.192 6   1098923.24123
  20977547.907   -17880260.521 6 -13766236.47922
 91  4 24 22 11 14.9970000  0  4G 2G11G19G 6
  19962319.6344  -20543573.50048 -16007943.73064
  23566898.790    -1636631.806 5  -1275287.27221
  21262044.1654    1429118.55046   1113586.83463
  20970544.860   -17917041.337 6 -13794896.80222
 91  4 24 22 11 29.9970000  0  4G 2G11G19G 6
  19959273.6964  -20559583.33648 -16020418.90063
  23573248.8994   -1603274.98745  -1249294.94761
  21265640.6734    1448003.68346   1128302.46463
  20963555.4154  -17953797.06946 -13823537.56862
 91  4 24 22 11 44.9970000  0  4G 2G11G19G 6
  19956237.7984  -20575533.34748 -16032847.45363
  23579613.095    -1569836.200 5  -1223238.76321
  21269247.5954    1466948.06446   1143064.26262
  20956560.782   -17990535.007 6 -13852164.47722
 91  4 24 22 11 59.9970000  0  4G 2G11G19G 6
  19953212.4544  -20591423.87748 -16045229.65764
  23585984.4704   -1536316.04545  -1197119.16861
  21272861.540     1485951.528 6   1157872.10222
  20949577.6734  -18027255.38947 -13880777.70262
 91  4 24 22 12 14.9970000  0  4G 2G11G19G 6
  19950203.954   -20607246.369 8 -16057558.84824
  23592387.6424   -1502706.35945  -1170929.78561
  21276488.6184    1505022.68346   1172732.68262
  20942593.110   -18063949.361 6 -13909370.35322
 91  4 24 22 12 29.9970000  0  4G 2G11G19G 6
  19947206.2904  -20623008.52948 -16069841.02264
  23598793.5644   -1469015.13445  -1144676.90161
  21280135.0874    1524153.81746   1187640.00362
  20935615.0094  -18100624.35746 -13937948.20862
 91  4 24 22 12 44.9970000  0  4G 2G11G19G 6
  19944214.9784  -20638714.63348 -16082079.51764
  23605219.6034   -1435246.92745  -1118363.96161
  21283781.165     1543340.695 6   1202590.76022
  20928635.4394  -18137284.58846 -13966514.56962
 91  4 24 22 12 59.9970000  0  4G 2G11G19G 6
  19941239.8604  -20654348.46148 -16094261.69864
  23611666.6034   -1401385.78445  -1091978.66161
  21287447.673     1562599.753 6   1217597.77122
  20921666.8534  -18173913.63946 -13995056.62462
 91  4 24 22 13 14.9970000  0  4G 2G11G19G 6
  19938277.923   -20669918.890 8 -16106394.47324
  23618126.907    -1367440.951 5  -1065528.16921
  21291123.1494    1581922.12646   1232654.09662
  20914702.649   -18210520.103 6 -14023581.09022
 91  4 24 22 13 29.9970000  0  4G 2G11G19G 6
  19935327.1964  -20685428.57848 -16118479.91664
  23624600.321    -1333415.255 5  -1039014.64421
  21294811.9624    1601305.27246   1247757.78262
  20907739.7744  -18247106.40346 -14052089.83462
 91  4 24 22 13 44.9970000  0  4G 2G11G19G 6
  19932384.532   -20700880.564 7 -16130520.40124
  23631086.4934   -1299311.98545  -1012440.65561
  21298510.2284    1620746.21646   1262906.50962
  20900779.329   -18283675.371 6 -14080585.07922
 91  4 24 22 13 59.9970000  0  4G 2G11G19G 6
  19929457.517   -20716263.383 7 -16142506.99024
  23637598.587    -1265119.953 5   -985797.48621
  21302224.501     1640256.491 6   1278109.27422
  20893828.501   -18320215.288 6 -14109057.68922
 91  4 24 22 14 14.9970000  0  4G 2G11G19G 6
  19926542.5874  -20731584.42947 -16154445.43764
  23644121.1654   -1230846.88145   -959091.14461
  21305948.673     1659828.845 6   1293360.40522
  20886878.196   -18356733.263 6 -14137513.19722
 91  4 24 22 14 29.9970000  0  3G 2G19G 6
  19923642.126   -20746844.882 8 -16166336.67824
  21309684.3214    1679462.20546   1308659.06662
  20879932.407   -18393230.282 6 -14165952.38422
 91  4 24 22 14 44.9970000  0  3G 2G19G 6
  19920747.165   -20762039.387 8 -16178176.53024
  21313432.4154    1699161.89846   1324009.42062
  20872990.2984  -18429700.71546 -14194370.84762
 91  4 24 22 14 59.9970000  0  3G 2G19G 6
  19917866.431   -20777171.021 7 -16189967.38524
  21317196.4704    1718925.00046   1339409.18362
  20866057.251   -18466147.475 6 -14222770.86322
 91  4 24 22 15 14.9970000  0  3G 2G19G 6
  19914998.6894  -20792241.04947 -16201710.23864
  21320965.079     1738750.375 6   1354857.46422
  20859123.782   -18502571.524 6 -14251153.18122
 91  4 24 22 15 29.9970000  0  3G 2G19G 6
  19912143.274   -20807249.521 8 -16213405.12624
  21324750.8144    1758637.98846   1370354.25262
  20852198.892   -18538972.736 6 -14279517.71222
 91  4 24 22 15 44.9970000  0  3G 2G19G 6
  19909299.720   -20822199.688 8 -16225054.58224
  21328545.970     1778584.739 6   1385897.12622
  20845276.8994  -18575354.05446 -14307866.73062
 91  4 24 22 15 59.9970000  0  3G 2G19G 6
  19906466.2674  -20837085.25248 -16236653.69364
  21332360.2984    1798596.98746   1401491.02362
  20838358.212   -18611708.880 6 -14336195.12322
 91  4 24 22 16 14.9970000  0  3G 2G19G 6
  19903644.6184  -20851914.34048 -16248208.79864
  21336172.485     1818666.576 6   1417129.60822
  20831443.251   -18648045.138 6 -14364509.04022
 91  4 24 22 16 29.9970000  0  3G 2G19G 6
  19900836.5874  -20866679.10448 -16259713.78164
  21340011.9544    1838801.70846   1432819.25662
  20824532.2904  -18684354.82046 -14392802.24162
 91  4 24 22 16 44.9970000  0  3G 2G19G 6
  19898038.642   -20881384.618 8 -16271172.59724
  21343848.2904    1858997.19646   1448555.94662
  20817627.212   -18720642.739 6 -14421078.48422
 91  4 24 22 16 59.9970000  0  3G 2G19G 6
  19895248.5794  -20896029.30848 -16282584.01964
  21347707.8144    1879254.79746   1464341.03062
  20810729.196   -18756907.106 7 -14449336.38522
 91  4 24 22 17 14.9970000  0  3G 2G19G 6
  19892474.306   -20910611.040 8 -16293946.38224
  21351568.923     1899576.679 6   1480176.21122
  20803831.954   -18793145.397 6 -14477573.96322
 91  4 24 22 17 29.9970000  0  3G 2G19G 6
  19889711.110   -20925131.314 7 -16305260.85724
  21355449.4314    1919961.20546   1496060.19762
  20796942.274   -18829359.072 7 -14505792.36022
 91  4 24 22 17 44.9970000  0  3G 2G19G 6
  19886959.892   -20939589.877 8 -16316527.24924
  21359341.595     1940408.964 6   1511993.46222
  20790054.642   -18865547.668 6 -14533991.21322
 91  4 24 22 17 59.9970000  0  3G 2G19G 6
  19884219.704   -20953984.740 8 -16327744.00124
  21363249.196     1960922.063 6   1527977.63622
  20783171.259   -18901708.693 7 -14562168.58222
 91  4 24 22 18 14.9970000  0  3G 2G19G 6
  19881494.4154  -20968315.58048 -16338910.86164
  21367163.4704    1981501.04746   1544013.15262
  20776295.056   -18937841.644 7 -14590324.08122
 91  4 24 22 18 29.9970000  0  3G 2G19G 6
  19878778.524   -20982587.182 8 -16350031.56124
  21371093.6034    2002140.84346   1560096.05262
  20769422.064   -18973951.223 6 -14618461.36422
 91  4 24 22 18 44.9970000  0  3G 2G19G 6
  19876074.290   -20996797.006 8 -16361104.12923
  21375025.8764    2022844.04746   1576228.35862
  20762560.360   -19010034.698 7 -14646578.31722
 91  4 24 22 18 59.9970000  0  3G 2G19G 6
  19873379.501   -21010953.202 8 -16372134.91024
  21378980.3064    2043602.91146   1592404.02462
  20755694.790   -19046099.725 7 -14674680.88322
 91  4 24 22 19 14.9970000  0  3G 2G19G 6
  19870698.939   -21025041.530 8 -16383112.80224
  21382941.7824    2064431.63946   1608634.14162
  20748837.571   -19082131.870 7 -14702757.83622
 91  4 24 22 19 29.9970000  0  3G 2G19G 6
  19868030.681   -21039065.800 8 -16394040.78224
  21386923.540     2085326.350 6   1624915.67522
  20741986.712   -19118134.964 7 -14730812.15222
 91  4 24 22 19 44.9970000  0  3G 2G19G 6
  19865371.524   -21053031.205 8 -16404922.89724
  21390904.5014    2106282.12046   1641244.78962
  20735139.720   -19154113.664 7 -14758847.44722
 91  4 24 22 19 59.9970000  0  3G 2G19G 6
  19862726.142   -21066936.734 8 -16415758.34924
  21394907.1184    2127300.06446   1657622.34962
  20728299.931   -19190066.751 7 -14786862.79922
 91  4 24 22 20 14.9970000  0  3G 2G19G 6
  19860092.478   -21080781.341 8 -16426546.33224
  21398914.954     2148381.164 6   1674049.10622
  20721465.024   -19225992.958 7 -14814857.19822
 91  4 24 22 20 29.9970000  0  3G 2G19G 6
  19857470.087   -21094560.872 8 -16437283.60624
  21402947.2434    2169529.50346   1690528.26462
  20714630.735   -19261887.973 7 -14842827.29722
 91  4 24 22 20 44.9970000  0  3G 2G19G 6
  19854858.689   -21108281.824 8 -16447975.23624
  21406975.5404    2190738.73746   1707054.87162
  20707806.431   -19297757.962 7 -14870777.89122
 91  4 24 22 20 59.9970000  0  3G 2G19G 6
  19852258.376   -21121945.776 8 -16458622.45224
  21411027.0714    2212007.34046   1723627.74862
  20700984.360   -19333604.366 7 -14898710.10022
 91  4 24 22 21 14.9970000  0  3G 2G19G 6
  19849669.126   -21135548.267 8 -16469221.77924
  21415084.5174    2233340.08146   1740250.59962
  20694168.368   -19369422.460 7 -14926620.25922
 91  4 24 22 21 29.9970000  0  3G 2G19G 6
  19847093.985   -21149089.012 8 -16479772.99224
  21419160.3294    2254737.26546   1756923.66362
  20687356.923   -19405211.550 7 -14954507.81522
 91  4 24 22 21 44.9970000  0  3G 2G19G 6
  19844529.626   -21162563.174 8 -16490272.31824
  21423240.931     2276203.777 6   1773650.74522
  20680557.517   -19440966.581 7 -14982368.83422
 91  4 24 22 21 59.9970000  0  3G 2G19G 6
  19841977.173   -21175976.349 8 -16500724.12324
  21427339.3294    2297734.03446   1790427.49462
  20673753.845   -19476693.032 7 -15010207.58222
 91  4 24 22 22 14.9970000  0  3G 2G19G 6
  19839435.071   -21189332.793 8 -16511131.72324
  21431447.353     2319323.842 6   1807250.65522
  20666963.126   -19512394.794 7 -15038027.08822
 91  4 24 22 22 29.9970000  0  3G 2G19G 6
  19836904.915   -21202628.617 8 -16521492.08724
  21435570.681     2340977.124 6   1824123.28822
  20660172.431   -19548067.743 7 -15065824.14722
 91  4 24 22 22 44.9970000  0  3G 2G19G 6
  19834385.189   -21215861.522 8 -16531803.42324
  21439698.3374    2362696.39246   1841047.33462
  20653390.634   -19583709.225 7 -15093596.68822
 91  4 24 22 22 59.9970000  0  3G 2G19G 6
  19831880.564   -21229030.960 8 -16542065.30824
  21443848.2824    2384482.05446   1858023.11662
  20646612.493   -19619318.624 7 -15121344.22322
 91  4 24 22 23 14.9970000  0  3G 2G19G 6
  19829386.782   -21242139.395 8 -16552279.65524
  21448006.4314    2406331.68646   1875048.73762
  20639844.556   -19654898.166 7 -15149068.49722
 91  4 24 22 23 29.9970000  0  3G 2G19G 6
  19826904.681   -21255189.048 8 -16562448.20124
  21452176.485     2428243.277 6   1892122.63222
  20633081.079   -19690449.741 7 -15176770.97522
 91  4 24 22 23 44.9970000  0  3G 2G19G 6
  19824430.860   -21268175.437 8 -16572567.44824
  21456357.6964    2450221.43546   1909248.40762
  20626320.853   -19725968.589 7 -15204447.95622
 91  4 24 22 23 59.9970000  0  3G 2G19G 6
  19821971.892   -21281102.166 8 -16582640.20924
  21460555.9074    2472262.65046   1926423.30962
  20619566.228   -19761458.120 7 -15232102.08622
 91  4 24 22 24 14.9970000  0  3G 2G19G 6
  19819523.314   -21293968.741 8 -16592666.09324
  21464756.4624    2494367.67746   1943647.95162
  20612818.876   -19796917.432 7 -15259732.67722
 91  4 24 22 24 29.9970000  0  3G 2G19G 6
  19817088.454   -21306776.936 8 -16602646.48824
  21468976.696     2516534.567 6   1960920.78622
  20606075.251   -19832348.036 7 -15287340.89922
 91  4 24 22 24 44.9970000  0  3G 2G19G 6
  19814659.798   -21319526.315 8 -16612581.05724
  21473205.290     2538763.940 6   1978242.30322
  20599340.743   -19867749.302 7 -15314926.25722
 91  4 24 22 24 59.9970000  0  3G 2G19G 6
  19812245.626   -21332214.963 8 -16622468.29524
  21477450.2514    2561057.75546   1995614.03762
  20592608.587   -19903118.946 7 -15342486.97022
 91  4 24 22 25 14.9960000  0  3G 2G19G 6
  19809843.270   -21344840.467 8 -16632306.32924
  21481703.848     2583416.180 6   2013036.11522
  20585886.168   -19938452.869 7 -15370019.85022
 91  4 24 22 25 29.9960000  0  3G 2G19G 6
  19807451.191   -21357410.677 8 -16642101.28424
  21485972.199     2605835.803 6   2030505.88122
  20579166.426   -19973761.888 7 -15397533.32522
 91  4 24 22 25 44.9960000  0  3G 2G19G 6
  19805072.184   -21369920.191 8 -16651848.94024
  21490250.0514    2628319.94746   2048025.93062
  20572452.762   -20009038.682 7 -15425021.68722
 91  4 24 22 25 59.9960000  0  3G 2G19G 6
  19802699.066   -21382372.923 8 -16661552.34724
  21494540.074     2650864.537 6   2065593.06922
  20565743.2074  -20044286.81347 -15452487.72362
 91  4 24 22 26 14.9960000  0  3G 2G19G 6
  19800343.145   -21394766.909 8 -16671209.98724
  21498837.809     2673471.797 6   2083209.03922
  20559044.762   -20079504.143 7 -15479929.75022
 91  4 24 22 26 29.9960000  0  3G 2G19G 6
  19797996.3094  -21407104.15148 -16680823.41364
  21503154.059     2696139.929 6   2100872.44222
  20552345.6214  -20114692.31447 -15507349.06662
 91  4 24 22 26 44.9960000  0  3G 2G19G 6
  19795656.7314  -21419380.26248 -16690389.20064
  21507480.4494    2718873.22946   2118586.63562
  20545655.7704  -20149846.83447 -15534742.15662
 91  4 24 22 26 59.9960000  0  3G 2G19G 6
  19793334.652   -21431597.239 8 -16699908.90324
  21511818.4654    2741669.88646   2136350.19361
  20538974.6134  -20184969.45047 -15562110.38562
 91  4 24 22 27 14.9960000  0  3G 2G19G 6
  19791017.7544  -21443754.51548 -16709382.09264
  21516169.1914    2764530.51846   2154163.60662
  20532296.0984  -20220059.06847 -15589452.90862
 91  4 24 22 27 29.9960000  0  3G 2G19G 6
  19788719.145   -21455852.784 8 -16718809.29724
  21520534.0354    2787454.40846   2172026.31762
  20525626.9024  -20255116.24847 -15616770.15062
 91  4 24 22 27 44.9960000  0  3G 2G19G 6
  19786425.809   -21467889.841 8 -16728188.81224
  21524903.2934    2810443.88446   2189940.10561
  20518962.1684  -20290138.50747 -15644060.18262
 91  4 24 22 27 59.9960000  0  4G13G 2G19G 6
  23063973.7384         -0.38353
  19784145.301   -21479874.008 8 -16737527.10224
  21529290.895     2833490.332 6   2207898.30721
  20512300.262   -20325134.178 7 -15671329.49322
 91  4 24 22 28 14.9960000  0  4G13G 2G19G 6
  23050675.8324     -69914.36543
  19781875.832   -21491800.233 8 -16746820.24424
  21533686.9964    2856598.97946   2225904.95462
  20505648.910   -20360097.879 7 -15698573.88622
 91  4 24 22 28 29.9960000  0  4G13G 2G19G 6
  23037372.4414    -139800.11643
  19779619.816   -21503663.907 8 -16756064.65024
  21538102.3404    2879774.54246   2243963.76662
  20498999.793   -20395024.548 7 -15725789.42222
 91  4 24 22 28 44.9960000  0  4G13G 2G19G 6
  23024081.6454    -209657.82843
  19777375.160   -21515465.539 8 -16765260.71224
  21542518.8954    2903016.93646   2262074.65961
  20492361.895   -20429914.202 7 -15752976.12022
 91  4 24 22 28 59.9960000  0  4G13G 2G19G 6
  23010787.934     -279500.541 3
  19775137.332   -21527218.553 8 -16774418.88824
  21546957.5824    2926312.56846   2280227.04061
  20485728.520   -20464780.367 7 -15780144.51022
 91  4 24 22 29 14.9960000  0  4G13G 2G19G 6
  22997502.746     -349315.831 4
  19772912.668   -21538911.143 8 -16783529.97924
  21551396.949     2949673.275 6   2298430.12022
  20479098.402   -20499611.045 7 -15807285.25922
 91  4 24 22 29 29.9960000  0  4G13G 2G19G 6
  22984220.7704    -419104.77044        -0.04571
  19770698.371   -21550544.630 8 -16792595.01724
  21555857.316     2973097.787 6   2316682.91022
  20472477.856   -20534406.896 7 -15834398.86522
 91  4 24 22 29 44.9960000  0  4G13G 2G19G 6
  22970949.441     -488861.626 4    -54355.63121
  19768495.590   -21562113.914 8 -16801610.02924
  21560326.895     2996591.168 6   2334989.36522
  20465864.512   -20569162.780 7 -15861481.32122
 91  4 24 22 29 59.9960000  0  4G13G 2G19G 6
  22957687.051     -558592.597 4   -108691.02821
  19766306.645   -21573625.747 8 -16810580.26724
  21564812.832     3020146.930 6   2353344.42822
  20459259.3564  -20603885.23747 -15888537.74662
 91  4 24 22 30 14.9960000  0  4G13G 2G19G 6
  22944419.2464    -628298.47544   -163006.86561
  19764124.684   -21585081.479 8 -16819506.79124
  21569304.8794    3043763.94146   2371747.22262
  20452654.184   -20638575.166 7 -15915568.81323
 91  4 24 22 30 29.9960000  0  4G13G 2G19G 6
  22931154.020     -697974.711 4   -217299.57421
  19761957.715   -21596477.104 8 -16828386.48324
  21573813.6684    3067446.01946   2390200.72662
  20446060.926   -20673228.349 7 -15942571.25822
 91  4 24 22 30 44.9960000  0  4G13G 2G19G 6
  22917898.035     -767631.658 4   -271577.34821
  19759799.191   -21607823.273 8 -16837227.63124
  21578328.121     3091182.467 6   2408696.58322
  20439470.043   -20707855.232 7 -15969553.18223
 91  4 24 22 30 59.9960000  0  4G13G 2G19G 6
  22904649.7314    -837254.53044   -325828.49361
  19757653.871   -21619105.482 8 -16846018.94224
  21582861.832     3114987.887 6   2427246.18522
  20432891.496   -20742441.030 7 -15996503.10523
 91  4 24 22 31 14.9960000  0  4G13G 2G19G 6
  22891407.9494    -906851.88044   -380059.76061
  19755516.840   -21630332.641 8 -16854767.35924
  21587400.9814    3138853.37846   2445842.59762
  20426314.809   -20776994.500 7 -16023427.83622
 91  4 24 22 31 29.9960000  0  4G13G 2G19G 6
  22878171.293     -976419.810 4   -434268.14421
  19753391.191   -21641501.552 8 -16863470.39424
  21591957.3564    3162781.97546   2464488.18962
  20419748.246   -20811511.963 7 -16050324.51823
 91  4 24 22 31 44.9960000  0  4G13G 2G19G 6
  22864934.965    -1045961.335 4   -488455.88421
  19751273.410   -21652615.767 8 -16872130.80524
  21596519.5124    3186770.48146   2483180.46562
  20413184.606   -20845996.718 7 -16077195.70123
 91  4 24 22 31 59.9960000  0  4G13G 2G19G 6
  22851709.254    -1115467.248 5   -542615.92021
  19749171.551   -21663666.402 8 -16880741.66924
  21601100.613     3210827.907 6   2501926.42722
  20406627.9654  -20880439.77847 -16104034.41062
 91  4 24 22 32 14.9960000  0  5G13G 2G15G19G 6
  22838482.793    -1184938.294 4   -596748.78421
  19747080.168   -21674654.557 8 -16889303.85224
  23204159.379          -0.59515
  21605688.6294    3234953.18746   2520725.28362
  20400085.7704  -20914841.90947 -16130841.22363
 91  4 24 22 32 29.9960000  0  5G13G 2G15G19G 6
  22825272.4574   -1254379.60144   -650858.46861
  19744999.488   -21685586.064 8 -16897821.88924
  23197815.6844     -33316.27045
  21610289.371     3259140.600 6   2539572.53722
  20393543.348   -20949208.462 7 -16157620.31223
 91  4 24 22 32 44.9960000  0  5G13G 2G15G19G 6
  22812062.2384   -1323792.76044   -704946.23961
  19742930.902   -21696462.895 8 -16906297.32724
  23191493.9574     -66544.44245        -0.43771
  21614902.106     3283388.298 6   2558466.76822
  20387011.481   -20983541.096 7 -16184372.97323
 91  4 24 22 32 59.9960000  0  5G13G 2G15G19G 6
  22798860.082    -1393177.462 5   -759011.80421
  19740873.020   -21707285.085 8 -16914730.18824
  23185181.043      -99684.868 5    -25824.05021
  21619536.4344    3307696.11546   2577407.85761
  20380486.481   -21017839.696 7 -16211099.11123
 91  4 24 22 33 14.9960000  0  5G13G 2G15G19G 6
  22785665.4494   -1462527.08445   -813050.08061
  19738822.402   -21718046.487 8 -16923115.68424
  23178900.371     -132730.990 5    -51574.19021
  21624168.8014    3332070.25846   2596400.62462
  20373963.6684  -21052097.89947 -16237793.77663
 91  4 24 22 33 29.9960000  0  5G13G 2G15G19G 6
  22772474.293    -1531840.735 5   -867060.26021
  19736789.801   -21728746.749 8 -16931453.53124
  23172629.5594    -165682.39945    -77250.51861
  21628819.387     3356511.033 6   2615445.30621
  20367454.3014  -21086315.24247 -16264456.60263
 91  4 24 22 33 44.9960000  0  5G13G 2G15G19G 6
  22759286.9184   -1601126.78345   -921049.01561
  19734760.957   -21739394.850 8 -16939750.73324
  23166376.9344    -198547.64945   -102859.68761
  21633482.824     3381009.469 6   2634534.91722
  20360946.7624  -21120500.27347 -16291094.24463
 91  4 24 22 33 59.9960000  0  5G13G 2G15G19G 6
  22746108.2774   -1670377.41345   -975010.16461
  19732746.895   -21749983.447 8 -16948001.56824
  23160138.981     -231318.767 5   -128395.52321
  21638158.8714    3405573.18946   2653675.38862
  20354450.3014  -21154645.11147 -16317700.57463
 91  4 24 22 34 14.9960000  0  5G13G 2G15G19G 6
  22732939.3874   -1739594.01145  -1028944.71661
  19730740.895   -21760514.188 8 -16956207.32124
  23153915.3094    -263997.07845   -153859.07061
  21642839.7854    3430200.46646   2672865.38361
  20347958.0514  -21188751.55447 -16344276.98563
 91  4 24 22 34 29.9960000  0  5G13G 2G15G19G 6
  22719767.8244   -1808784.48445  -1082858.97361
  19728745.949   -21770995.656 8 -16964374.68424
  23147715.8094    -296590.53745   -179256.44861
  21647543.996     3454882.767 6   2692098.27021
  20341475.270   -21222827.675 7 -16370829.76322
 91  4 24 22 34 44.9960000  0  5G13G 2G15G19G 6
  22706613.012    -1877943.575 5  -1136748.76421
  19726762.098   -21781422.769 8 -16972499.69224
  23141531.973     -329093.975 5   -204583.72921
  21652249.215     3479625.100 6   2711377.91721
  20334997.7234  -21256868.27247 -16397354.87063
 91  4 24 22 34 59.9960000  0  5G13G 2G15G19G 6
  22693456.7704   -1947065.62945  -1190609.69161
  19724790.340   -21791790.407 8 -16980578.35424
  23135362.6134    -361501.59045   -229836.30861
  21656968.676     3504432.758 6   2730708.47621
  20328528.2854  -21290867.66847 -16423847.86562
 91  4 24 22 35 14.9960000  0  5G13G 2G15G19G 6
  22680310.762    -2016154.009 5  -1244444.41521
  19722829.199   -21802102.538 8 -16988613.76824
  23129215.254     -393817.009 5   -255017.04721
  21661701.238     3529301.802 6   2750086.87421
  20322065.8164  -21324829.74647 -16450311.78663
 91  4 24 22 35 29.9960000  0  5G13G 2G15G19G 6
  22667167.0824   -2085209.98245  -1298253.85261
  19720875.996   -21812361.001 8 -16996607.35924
  23123084.5744    -426041.82445   -280127.22761
  21666446.2934    3554230.51646   2769511.75561
  20315609.0664  -21358756.06247 -16476747.84063
 91  4 24 22 35 44.9960000  0  5G13G 2G15G19G 6
  22654036.0594   -2154229.98445  -1352035.25561
  19718933.512   -21822562.557 8 -17004556.60824
  23116967.1374    -458172.65645   -305164.11761
  21671197.2854    3579221.99946   2788985.53961
  20309163.0124  -21392643.11747 -16503153.30363
 91  4 24 22 35 59.9960000  0  5G13G 2G15G19G 6
  22640905.887    -2223214.133 5  -1405788.77821
  19717004.215   -21832707.609 8 -17012461.82724
  23110872.113     -490209.344 5   -330127.71321
  21675968.5124    3604276.01246   2808508.04662
  20302718.6524  -21426490.98947 -16529528.23763
 91  4 24 22 36 14.9960000  0  5G13G 2G15G19G 6
  22627786.363    -2292158.554 5  -1459511.30121
  19715085.301   -21842792.896 8 -17020320.47623
  23104790.793     -522147.928 5   -355014.81221
  21680748.6064    3629395.71346   2828081.75262
  20296285.1374  -21460296.23947 -16555869.96163
 91  4 24 22 36 29.9960000  0  5G13G 2G15G19G 6
  22614671.504    -2361068.360 5  -1513206.88621
  19713175.543   -21852824.197 8 -17028137.05823
  23098731.3484    -553993.91945   -379829.80661
  21685540.9964    3654575.59946   2847702.34662
  20289859.5594  -21494064.17247 -16582182.60463
 91  4 24 22 36 44.9960000  0  5G13G 2G15G19G 6
  22601566.1914   -2429942.54645  -1566874.68161
  19711277.754   -21862800.660 8 -17035910.90723
  23092688.809     -585746.179 5   -404571.72221
  21690344.2464    3679816.49046   2867370.48962
  20283440.2154  -21527793.69247 -16608465.31562
 91  4 24 22 36 59.9960000  0  5G13G 2G15G19G 6
  22588465.4264   -2498783.65145  -1620516.71261
  19709388.816   -21872725.507 8 -17043644.53524
  23086664.5744    -617407.20645   -429242.58861
  21695160.6684    3705115.22946   2887083.70162
  20277031.4964  -21561487.64247 -16634720.30763
 91  4 24 22 37 14.9960000  0  5G13G 2G15G19G 6
  22575371.3794   -2567587.25345  -1674129.51461
  19707511.441   -21882594.723 8 -17051334.81724
  23080660.113     -648972.741 5   -453839.00221
  21699982.6214    3730475.74346   2906845.05162
  20270626.8714  -21595141.76447 -16660944.26263
 91  4 24 22 37 29.9960000  0  5G13G 2G15G19G 6
  22562285.168    -2636354.067 5  -1727713.69121
  19705642.785   -21892409.341 8 -17058982.55724
  23074671.8874    -680443.66245   -478361.71061
  21704822.9344    3755896.92146   2926653.66862
  20264228.7464  -21628757.01247 -16687137.92163
 91  4 24 22 37 44.9960000  0  5G13G 2G15G19G 6
  22549207.824    -2705077.766 5  -1781264.21921
  19703785.7934  -21902163.69648 -17066583.34363
  23068697.691     -711813.550 5   -502805.67921
  21709668.9734    3781384.56046   2946514.07662
  20257841.660   -21662327.233 7 -16713296.50122
 91  4 24 22 37 59.9960000  0  5G13G 2G15G19G 6
  22536137.7314   -2773768.23045  -1834788.90161
  19701938.731   -21911868.040 8 -17074145.15624
  23062749.7314    -743092.58145   -527178.87261
  21714536.5044    3806928.65946   2966418.47762
  20251458.9264  -21695862.65547 -16739427.96363
 91  4 24 22 38 14.9960000  0  5G13G 2G15G19G 6
  22523068.8404   -2842417.77445  -1888281.67161
  19700106.3484  -21921515.16548 -17081662.38464
  23056818.074     -774273.149 5   -551475.30521
  21719403.3564    3832536.46346   2986372.52062
  20245085.0044  -21729355.59247 -16765526.31862
 91  4 24 22 38 29.9960000  0  5G13G 2G15G19G 6
  22510018.9494   -2911027.41245  -1941743.32961
  19698278.637   -21931106.302 8 -17089135.98424
  23050899.9814    -805356.04445   -575695.67861
  21724291.660     3858206.602 5   3006375.13322
  20238719.4264  -21762806.90947 -16791592.24463
 91  4 24 22 38 44.9960000  0  5G13G 2G15G19G 6
  22496966.020    -2979595.850 5  -1995172.94721
  19696464.465   -21940640.939 8 -17096565.56024
  23045004.309     -836340.294 5   -599839.18021
  21729185.2704    3883939.68645   3026426.80062
  20232363.7464  -21796216.02147 -16817625.28263
 91  4 24 22 38 59.9960000  0  5G13G 2G15G19G 6
  22483924.762    -3048124.474 5  -2048571.46121
  19694659.824   -21950120.896 8 -17103952.52224
  23039126.645     -867227.489 5   -623907.01021
  21734096.2384    3909733.91445   3046526.10762
  20226012.0514  -21829584.27047 -16843626.47663
 91  4 24 22 39 14.9960000  0  5G13G 2G15G19G 6
  22470893.934    -3116618.409 5  -2101943.00921
  19692866.543   -21959551.646 8 -17111301.14324
  23033263.160     -898022.542 5   -647903.08321
  21739014.598     3935583.873 5   3066668.85922
  20219669.3634  -21862916.82347 -16869599.86063
 91  4 24 22 39 29.9960000  0  5G13G 2G15G19G 6
  22457864.0514   -3185078.08845  -2155287.84561
  19691081.027   -21968934.195 8 -17118612.20424
  23027419.8634    -928726.10045   -671827.84061
  21743947.246     3961488.336 5   3086854.06522
  20213333.2314  -21896214.67847 -16895546.20963
 91  4 24 22 39 44.9960000  0  5G13G 2G15G19G 6
  22444844.215    -3253495.732 5  -2208599.90821
  19689305.3484  -21978261.16748 -17125879.96364
  23021597.5904    -959330.19745   -695675.11461
  21748885.668     3987454.990 5   3107087.74122
  20207003.7934  -21929469.99747 -16921459.40863
 91  4 24 22 39 59.9960000  0  5G13G 2G15G19G 6
  22431834.816    -3321864.527 5  -2261873.92221
  19687543.684   -21987526.489 8 -17133099.68024
  23015796.4414    -989828.39245   -719439.84561
  21753839.0824    4013490.19945   3127374.82161
  20200685.3954  -21962676.08047 -16947334.24863
 91  4 24 22 40 14.9960000  0  5G13G 2G15G19G 6
  22418829.5664   -3390195.48545  -2315118.46661
  19685790.988   -21996741.371 8 -17140280.09524
  23010010.309    -1020231.897 5   -743130.78821
  21758805.832     4039582.378 6   3147706.27921
  20194375.1134  -21995844.19147 -16973179.49263
 91  4 24 22 40 29.9960000  0  5G13G 2G15G19G 6
  22405839.5594   -3458482.95245  -2368329.11561
  19684046.481   -22005900.559 8 -17147417.10924
  23004239.4344   -1050534.96045   -766743.51161
  21763779.457     4065736.991 6   3168086.39121
  20188068.8874  -22028968.83447 -16998990.86863
 91  4 24 22 40 44.9960000  0  5G13G 2G15G19G 6
  22392849.949    -3526726.484 5  -2421505.52121
  19682313.645   -22015004.007 8 -17154510.69524
  22998496.3404   -1080737.04845   -790277.50361
  21768770.9574    4091954.03846   3188515.17761
  20181775.8634  -22062049.65747 -17024768.09363
 91  4 24 22 40 59.9960000  0  4G13G15G19G 6
  22379873.7154   -3594924.40645  -2474646.40861
  22992768.0434   -1110836.94545   -813731.89161
  21773775.137     4118234.586 6   3208993.41621
  20175490.527   -22095085.312 7 -17050510.12123
 91  4 24 22 41 14.9960000  0  5G13G 2G15G19G 6
  22366900.7154   -3663076.05345  -2527751.23761
  19678881.4734         -0.59358
  22987060.6454   -1140833.84845   -837106.02561
  21778784.402     4144578.958 6   3229521.39521
  20169214.1764  -22128075.17447 -17076216.46563
 91  4 24 22 41 29.9960000  0  5G13G 2G15G19G 6
  22353940.637    -3731192.567 5  -2580828.67521
  19677181.012       -8944.835 8
  22981370.457    -1170738.833 5   -860408.50121
  21783813.285     4170975.598 6   3250090.10521
  20162943.1684  -22161030.50247 -17101895.91063
 91  4 24 22 41 44.9960000  0  5G13G 2G15G19G 6
  22340985.246    -3799271.090 5  -2633876.49721
  19675486.3794     -17841.17848        -0.38574
  22975694.4024   -1200549.06745   -883637.16961
  21788843.3164    4197427.02846   3270701.48761
  20156677.3014  -22193948.57147 -17127546.31463
 91  4 24 22 41 59.9960000  0  5G13G 2G15G19G 6
  22328034.5434   -3867304.42645  -2686889.14561
  19673806.129      -26682.729 8     -6889.89324
  22970043.3324   -1230257.90645   -906786.82961
  21793889.3484    4223939.71846   3291360.62761
  20150422.0044  -22226822.61047 -17153162.42263
 91  4 24 22 42 14.9960000  0  5G13G 2G15G19G 6
  22315104.809    -3935288.994 5  -2739863.76821
  19672133.9654     -35466.57948    -13734.44264
  22964408.973    -1259861.731 5   -929854.69321
  21798942.816     4250516.888 6   3312070.00021
  20144173.2934  -22259649.13847 -17178741.49663
 91  4 24 22 42 29.9960000  0  5G13G 2G15G19G 6
  22302170.481    -4003229.031 5  -2792803.71521
  19670472.5744     -44197.51848    -20537.75664
  22958796.4814   -1289364.73745   -952843.93061
  21804015.402     4277154.055 6   3332826.12721
  20137934.5744  -22292432.45947 -17204286.90563
 91  4 24 22 42 44.9960000  0  5G13G 2G15G19G 6
  22289250.543    -4071123.563 5  -2845708.19121
  19668821.2154     -52874.88448    -27299.32864
  22953197.973    -1318766.024 5   -975753.89521
  21809097.6524    4303851.73446   3353629.42161
  20131705.5744  -22325171.62447 -17229797.91163
 91  4 24 22 42 59.9960000  0  5G13G 2G15G19G 6
  22276340.481    -4138970.441 5  -2898575.50621
  19667180.801      -61497.114 8    -34017.93624
  22947623.8714   -1348063.52945   -998583.09461
  21814191.9494    4330611.52746   3374481.11161
  20125482.5274  -22357864.97247 -17255273.20863
 91  4 24 22 43 14.9960000  0  5G13G 2G15G19G 6
  22263439.934    -4206770.020 5  -2951406.00121
  19665549.918      -70065.016 8    -40694.20624
  22942067.1454   -1377257.91845  -1021331.84461
  21819290.191     4357432.640 6   3395380.59621
  20119270.7774  -22390513.00747 -17280713.20363
 91  4 24 22 43 29.9960000  0  5G13G 2G15G19G 6
  22250548.4184   -4274526.26645  -3004202.72861
  19663929.4024     -78583.14848    -47331.70264
  22936529.0984   -1406353.28045  -1044003.46861
  21824411.4574    4384310.55045   3416324.34361
  20113068.1994  -22423119.90847 -17306121.14463
 91  4 24 22 43 44.9960000  0  5G13G 2G15G19G 6
  22237658.2624   -4342237.76045  -3056964.60561
  19662318.535      -87049.954 8    -53929.20124
  22931017.637    -1435347.910 5  -1066596.61321
  21829533.3874    4411246.67445   3437313.43361
  20106871.3954  -22455683.96547 -17331495.70363
 91  4 24 22 43 59.9960000  0  5G13G 2G15G19G 6
  22224785.895    -4409901.265 5  -3109689.06421
  19660716.6214     -95462.74348    -60484.61564
  22925518.2854   -1464238.57145  -1089108.71561
  21834675.613     4438243.617 5   3458349.92522
  20100681.6454  -22488202.21147 -17356834.56863
 91  4 24 22 44 14.9960000  0  5G13G 2G15G19G 6
  22211915.285    -4477521.919 5  -3162380.14921
  19659124.8634    -103827.47248    -67002.57764
  22920037.3014   -1493030.71945  -1111544.07961
  21839818.9814    4465295.58045   3479429.29062
  20094500.4734  -22520680.25247 -17382142.10063
 91  4 24 22 44 29.9960000  0  5G13G 2G15G19G 6
  22199054.5594   -4545090.66745  -3215030.75761
  19657544.0204    -112135.35048    -73476.23964
  22914581.035    -1521715.422 5  -1133895.70621
  21844980.9884    4492411.22445   3500558.27962
  20088328.6454  -22553108.94247 -17407411.17263
 91  4 24 22 44 44.9960000  0  5G13G 2G15G19G 6
  22186210.5044   -4612608.85945  -3267642.02461
  19655974.254     -120388.559 8    -79907.30024
  22909141.090    -1550294.183 4  -1156164.79621
  21850151.363     4519588.834 5   3521735.54921
  20082168.7934  -22585490.05347 -17432643.17863
 91  4 24 22 44 59.9960000  0  5G13G 2G15G19G 6
  22173371.3324   -4680075.30545  -3320212.95061
  19654412.2774    -128586.31048    -86295.14364
  22903718.637    -1578765.983 5  -1178350.52421
  21855331.660     4546829.122 6   3542961.64322
  20076016.7074  -22617822.47047 -17457837.23463
 91  4 24 22 45 14.9960000  0  5G13G 2G15G19G 6
  22160541.824    -4747495.029 5  -3372747.43821
  19652863.3484    -136733.87448    -92643.89064
  22898322.8954   -1607135.70345  -1200456.69461
  21860529.0824    4574126.69546   3564232.38961
  20069871.8484  -22650111.24547 -17482997.28163
 91  4 24 22 45 29.9960000  0  5G13G 2G15G19G 6
  22147720.1764   -4814870.48845  -3425247.47361
  19651322.0044    -144834.15248    -98955.78964
  22892946.7934   -1635405.90445  -1222485.35061
  21865736.4654    4601478.55446   3585545.43362
  20063734.9734  -22682359.17747 -17508125.50963
 91  4 24 22 45 44.9960000  0  5G13G 2G15G19G 6
  22134911.504    -4882195.143 5  -3477707.91821
  19649789.9184    -152881.12748
  22887582.6064   -1663570.29545  -1244431.55261
  21870947.496     4628890.748 6   3606905.47822
  20057609.6064  -22714559.93847 -17533216.97263
 91  4 24 22 45 59.9960000  0  4G13G15G19G 6
  22122107.293    -4949467.788 5  -3530127.85321
  22882245.5204   -1691627.68145  -1266294.35661
  21876178.606     4656364.198 6   3628313.25121
  20051487.5664  -22746712.28647 -17558270.71963
 91  4 24 22 46 14.9960000  0  5G13G 2G15G19G 6
  22109316.754    -5016686.217 5  -3582505.51121
  19646760.0514         -0.98558
  22876928.816    -1719576.228 5  -1288072.39721
  21881418.066     4683900.725 6   3649770.18021
  20045380.0664  -22778814.22047 -17583285.18063
 91  4 24 22 46 29.9960000  0  5G13G 2G15G19G 6
  22096531.8324   -5083855.49445  -3634844.87361
  19645256.5044      -7887.64648
  22871626.785    -1747420.683 5  -1309769.28621
  21886671.2234    4711494.69046   3671271.85061
  20039278.191   -22810870.959 7 -17608264.41523
 91  4 24 22 46 44.9960000  0  5G13G 2G15G19G 6
  22083763.0204   -5150971.99045  -3687143.15361
  19643768.4494     -15720.76048        -0.17974
  22866352.0984   -1775157.60345  -1331382.37061
  21891931.246     4739149.469 6   3692820.91221
  20033189.7314  -22842878.89147 -17633205.62463
 91  4 24 22 46 59.9960000  0  5G13G 2G15G19G 6
  22071000.137    -5218033.865 5  -3739398.83121
  19642288.0744     -23499.06648     -6061.19064
  22861095.4414   -1802785.49045  -1352910.54661
  21897206.598     4766866.106 6   3714418.18821
  20027107.3794  -22874836.71747 -17658107.78863
 91  4 24 22 47 14.9960000  0  5G13G 2G15G19G 6
  22058247.5744   -5285041.83645  -3791612.50461
  19640816.1914     -31223.66748    -12080.35264
  22855860.3404   -1830304.97845  -1374354.24561
  21902490.2464    4794643.85046   3736063.05861
  20021035.4184  -22906744.98347 -17682971.34463
 91  4 24 22 47 29.9960000  0  5G13G 2G15G19G 6
  22045502.598    -5351994.541 5  -3843783.12921
  19639357.5124     -38893.62048    -18056.93564
  22850639.6134   -1857714.71045  -1395712.39561
  21907789.7234    4822483.50245   3757756.18361
  20014972.2774  -22938602.57447 -17707795.40763
 91  4 24 22 47 44.9960000  0  5G13G 2G15G19G 6
  22032776.0824   -5418898.02745  -3895915.41661
  19637907.3014     -46515.60748    -23996.14064
  22845445.332    -1885021.113 5  -1416990.02821
  21913093.254     4850378.265 5   3779492.25521
  20008920.027   -22970415.752 7 -17732584.85223
 91  4 24 22 47 59.9960000  0  5G13G 2G15G19G 6
  22020051.9814   -5485748.50945  -3948006.38561
  19636466.6914     -54086.27448    -29895.35863
  22840272.348    -1912220.551 5  -1438184.32721
  21918414.9104    4878331.70845   3801274.02761
  20002874.6524  -23002180.89447 -17757336.87463
 91  4 24 22 48 14.9960000  0  5G13G 2G15G19G 6
  22007344.574    -5552544.948 5  -4000055.23421
  19635035.1214     -61604.81848    -35753.95964
  22835112.6374   -1939311.94645  -1459294.43861
  21923748.598     4906344.520 5   3823102.08421
  19996839.176   -23033896.997 7 -17782050.68123
 91  4 24 22 48 29.9960000  0  5G13G 2G15G19G 6
  21994639.2544   -5619295.31045  -4052068.20861
  19633611.2384     -69079.67548    -41578.51764
  22829979.426    -1966303.339 5  -1480326.61321
  21929092.3244    4934408.27545   3844969.84961
  19990812.9574  -23065572.21647 -17806732.63063
 91  4 24 22 48 44.9960000  0  5G13G 2G15G19G 6
  21981948.340    -5685991.096 5  -4104038.64921
  19632197.5434     -76502.70648    -47362.69564
  22824865.551    -1993186.246 5  -1501274.25021
  21934439.246     4962531.006 5   3866883.56021
  19984792.5044  -23097198.12947 -17831376.16063
 91  4 24 22 48 59.9960000  0  5G13G 2G15G19G 6
  21969265.254    -5752635.561 5  -4155969.08121
  19630798.0904     -83877.82448    -53109.53364
  22819768.027    -2019964.213 5  -1522140.10821
  21939805.1994    4990708.86445   3888840.22561
  19978785.1844  -23128778.22747 -17855983.99163
 91  4 24 22 49 14.9960000  0  5G13G 2G15G19G 6
  21956595.1994   -5819225.16145  -4207856.81661
  19629402.2234     -91201.91648    -58816.62164
  22814690.5124   -2046633.64145  -1542921.40161
  21945173.793     5018945.164 5   3910842.43721
  19972783.2154  -23160309.16447 -17880553.51663
 91  4 24 22 49 29.9960000  0  5G13G 2G15G19G 6
  21943922.637    -5885764.772 5  -4259705.55421
  19628018.3794     -98480.25548    -64488.04664
  22809630.1914   -2073199.59645  -1563622.06961
  21950560.4414    5047234.52445   3932885.97261
  19966792.1134  -23191796.00547 -17905088.68363
 91  4 24 22 49 44.9960000  0  5G13G 2G15G19G 6
  21931284.973    -5952244.235 5  -4311507.44921
  19626645.0124    -105703.05048    -70116.19664
  22804603.488    -2099652.041 5  -1584234.30621
  21955955.2624    5075586.47246   3954978.29462
  19960811.7854  -23223228.63647 -17929581.60763
 91  4 24 22 49 59.9960000  0  5G13G 2G15G19G 6
  21918640.4024   -6018664.36345  -4363263.09661
  19625279.8794    -112871.64348    -75702.10964
  22799586.488    -2125991.735 5  -1604758.67621
  21961363.0594    5103999.94546   3977118.54262
  19954839.2384  -23254608.07447 -17954033.08563
 91  4 24 22 50 14.9960000  0  5G13G 2G15G19G 6
  21906012.106    -6085023.236 5  -4414971.01421
  19623927.7384    -119984.57348    -81244.64864
  22794597.6764   -2152217.19145  -1625194.02061
  21966780.7074    5132476.34446   3999307.83162
  19948876.340   -23285932.434 7 -17978441.65123
 91  4 24 22 50 29.9960000  0  5G13G 2G15G19G 6
  21893393.496    -6151329.561 5  -4466638.00221
  19622580.8874    -127050.94648    -86750.91064
  22789625.160    -2178337.019 5  -1645547.06621
  21972210.902     5161006.559 5   4021539.06622
  19942926.7854  -23317210.78247 -18002814.35963
 91  4 24 22 50 44.9960000  0  5G13G 2G15G19G 6
  21880792.613    -6217576.524 5  -4518258.75321
  19621246.4104    -134064.44448    -92215.97064
  22784680.856    -2204344.564 5  -1665812.61721
  21977650.6684    5189597.21946   4043817.38562
  19936985.4884  -23348436.19747 -18027145.81563
 91  4 24 22 50 59.9960000  0  5G13G 2G15G19G 6
  21868194.2624   -6283765.99645  -4569834.67661
  19619919.6294    -141027.39448    -97641.64164
  22779749.402    -2230241.805 5  -1685992.22021
  21983105.1844    5218245.86246   4066140.89161
  19931050.7234  -23379610.74347 -18051437.64063
 91  4 24 22 51 14.9960000  0  5G13G 2G15G19G 6
  21855606.824    -6349903.395 5  -4621370.03221
  19618605.0434    -147945.64248   -103032.48464
  22774845.402    -2256034.199 5  -1706090.08121
  21988562.277     5246946.549 5   4088504.95221
  19925127.731   -23410739.962 7 -18075694.14523
 91  4 24 22 51 29.9960000  0  5G13G 2G15G19G 6
  21843033.3014   -6415985.05345  -4672861.95061
  19617299.7934    -154816.07048   -108386.05964
  22769953.2934   -2281718.21145  -1726103.54261
  21994033.6214    5275702.26845   4110911.89561
  19919211.566   -23441820.514 7 -18099912.73123
 91  4 24 22 51 44.9960000  0  5G13G 2G15G19G 6
  21830465.832    -6482005.059 5  -4724305.83521
  19616001.0744    -161632.83248   -113697.81564
  22765095.270    -2307287.943 5  -1746027.94721
  21999517.590     5304518.896 5   4133366.28121
  19913309.754   -23472846.253 7 -18124088.60823
 91  4 24 22 51 59.9960000  0  5G13G 2G15G19G 6
  21817918.176    -6547964.892 5  -4775702.84621
  19614712.5434    -168397.92748   -118969.31164
  22760245.8794   -2332745.26845  -1765864.76261
  22005018.738     5333394.224 5   4155866.41921
  19907417.2624  -23503819.19447 -18148223.33263
 91  4 24 22 52 14.9960000  0  5G13G 2G15G19G 6
  21805379.1214   -6613863.49545  -4827052.13661
  19613437.0274    -175110.85348   -124200.15564
  22755421.7774   -2358089.00845  -1785613.05061
  22010514.4024    5362329.19245   4178413.03861
  19901531.152   -23534738.307 7 -18172316.11923
 91  4 24 22 52 29.9960000  0  5G13G 2G15G19G 6
  21792846.3404   -6679703.82245  -4878356.02161
  19612168.7154    -181775.08048   -129393.05264
  22750621.8244   -2383322.36045  -1805275.33561
  22016035.856     5391320.146 5   4201003.26821
  19895656.246   -23565606.591 7 -18196369.30923
 91  4 24 22 52 44.9960000  0  5G13G 2G15G19G 6
  21780325.4884   -6745487.05545  -4929615.41861
  19610907.395     -188392.526 8   -134549.49224
  22745838.988    -2408446.789 5  -1824852.74821
  22021562.481     5420365.194 5   4223635.64221
  19889793.887   -23596425.759 7 -18220384.22723
 91  4 24 22 52 59.9960000  0  5G13G 2G15G19G 6
  21767824.5044   -6811207.91445  -4980826.21561
  19609659.949     -194957.959 8   -139665.39724
  22741080.707    -2433456.730 5  -1844340.93921
  22027104.5664    5449469.55445   4246314.24861
  19883939.2074  -23627190.29747 -18244356.56463
 91  4 24 22 53 14.9960000  0  5G13G 2G15G19G 6
  21755326.527    -6876867.871 5  -5031989.55221
  19608419.5514    -201473.44348   -144742.38564
  22736342.7934   -2458354.24545  -1863741.52061
  22032651.8094    5478631.20245   4269037.49161
  19878095.043   -23657901.926 7 -18268287.67923
 91  4 24 22 53 29.9960000  0  5G13G 2G15G19G 6
  21742842.9884   -6942468.04245  -5083106.33461
  19607189.387     -207940.671 8   -149781.77224
  22731630.590    -2483140.592 5  -1883055.51621
  22038215.9184    5507848.10045   4291803.79061
  19872258.981   -23688562.192 7 -18292178.77523
 91  4 24 22 53 44.9960000  0  5G13G 2G15G19G 6
  21730372.004    -7008004.247 5  -5134173.24521
  19605966.6684    -214355.92548   -154780.66264
  22726929.512    -2507811.532 5  -1902279.56121
  22043782.9494    5537124.19345   4314616.21461
  19866436.098   -23719166.946 7 -18316026.61123
 91  4 24 22 53 59.9960000  0  5G13G 2G15G19G 6
  21717914.316    -7073471.759 5  -5185186.62821
  19604758.7074    -220714.72748   -159735.56764
  22722255.731    -2532362.350 5  -1921409.99421
  22049370.3564    5566464.07945   4337478.33161
  19860623.645   -23749711.278 7 -18339827.36423
 91  4 24 22 54 14.9960000  0  5G13G 2G15G19G 6
  21705470.207    -7138874.072 5  -5236149.23421
  19603556.3324    -227020.93148   -164649.48264
  22717606.8094   -2556796.61745  -1940449.60661
  22054962.082     5595863.843 6   4360387.11021
  19854821.301   -23780198.748 7 -18363583.81623
 91  4 24 22 54 29.9960000  0  5G13G 2G15G19G 6
  21693033.8484   -7204214.59545  -5287063.68161
  19602367.0664    -233278.33948   -169525.37364
  22712979.0124   -2581118.06545  -1959401.31461
  22060568.363     5625319.495 6   4383339.44421
  19849030.137   -23810633.124 7 -18387298.88923
 91  4 24 22 54 44.9960000  0  5G13G 2G15G19G 6
  21680611.707    -7269487.700 5  -5337925.58621
  19601185.512     -239481.981 8   -174359.36724
  22708374.0664   -2605321.21145  -1978260.84861
  22066181.4654    5654836.20446   4406339.36661
  19843246.559   -23841008.941 7 -18410968.32623
 91  4 24 22 54 59.9960000  0  5G13G 2G15G19G 6
  21668206.7234   -7334695.13845  -5388736.33461
  19600015.754     -245633.854 8   -179153.02524
  22703788.629    -2629407.941 5  -1997029.67921
  22071806.965     5684411.958 5   4429385.27721
  19837481.488   -23871327.960 7 -18434593.51423
 91  4 24 22 55 14.9960000  0  5G13G 2G15G19G 6
  21655810.0514   -7399838.74745  -5439497.33861
  19598855.066     -251736.463 8   -183908.28924
  22699227.3324   -2653380.19345  -2015709.27761
  22077448.137     5714044.205 5   4452475.22521
  19831722.152   -23901592.382 7 -18458176.15923
 91  4 24 22 55 29.9960000  0  5G13G 2G15G19G 6
  21643421.676    -7464907.420 5  -5490199.97021
  19597706.2704    -257779.17848   -188616.89064
  22694692.4024   -2677227.08645  -2034291.23061
  22083103.590     5743743.527 5   4475617.43321
  19825975.1214  -23931791.23747 -18481707.70663
 91  4 24 22 55 44.9960000  0  5G13G 2G15G19G 6
  21631056.340    -7529908.368 5  -5540849.81821
  19596564.6374    -263769.40648   -193284.58664
  22690179.121    -2700956.026 5  -2052781.22521
  22088761.3634    5773502.30245   4498805.96461
  19820240.340   -23961931.821 7 -18505193.85323
 91  4 24 22 55 59.9960000  0  5G13G 2G15G19G 6
  21618701.379    -7594848.180 5  -5591452.03921
  19595433.8094    -269714.27548   -197916.94864
  22685682.4494   -2724573.50445  -2071184.40261
  22094440.340     5803313.554 5   4522035.38221
  19814513.3564  -23992020.73047 -18528639.73263
 91  4 24 22 56 14.9960000  0  5G13G 2G15G19G 6
  21606353.0044   -7659723.68946  -5642004.13461
  19594311.5044    -275611.04548   -202511.82464
  22681209.590    -2748076.272 5  -2089498.17221
  22100114.965     5833180.109 5   4545307.90921
  19808799.160   -24022054.874 7 -18552042.93223
 91  4 24 22 56 29.9960000  0  5G13G 2G15G19G 6
  21594020.621    -7724534.632 6  -5692505.93121
  19593198.4654    -281459.57948   -207069.11764
  22676760.0354   -2771464.14445  -2107722.42961
  22105819.543     5863102.017 5   4568623.56121
  19803094.816   -24052033.947 7 -18575403.23123
 91  4 24 22 56 44.9960000  0  5G13G 2G15G19G 6
  21581701.1684   -7789273.17146  -5742951.32061
  19592094.7544    -287252.65748   -211583.19864
  22672332.1844   -2794729.67745  -2125851.35361
  22111524.160     5893086.369 5   4591987.87021
  19797399.2234  -24081950.49547 -18598714.79263
 91  4 24 22 56 59.9960000  0  5G13G 2G15G19G 6
  21569395.2384   -7853940.87346  -5793341.48261
  19591001.6764    -292992.27848   -216055.62064
  22667927.410    -2817874.619 5  -2143886.32821
  22117240.8564    5923131.28745   4615399.37761
  19791719.1764  -24111806.26047 -18621978.99563
 91  4 24 22 57 14.9960000  0  5G13G 2G15G19G 6
  21557097.387    -7918540.736 6  -5843678.82021
  19589919.9494    -298682.12148   -220489.25964
  22663545.262    -2840902.132 5  -2161829.77621
  22122966.7544    5953233.12545   4638855.22661
  19786047.4414  -24141604.38847 -18645198.29263
 91  4 24 22 57 29.9960000  0  5G13G 2G15G19G 6
  21544822.0044   -7983075.78846  -5893965.63661
  19588848.1134    -304325.68848   -224886.83164
  22659183.9494   -2863815.25945  -2179684.09961
  22128703.324     5983388.400 5   4662352.68821
  19780388.504   -24171347.956 7 -18668375.06823
 91  4 24 22 57 44.9960000  0  5G13G 2G15G19G 6
  21532552.137    -8047543.209 6  -5944199.76621
  19587783.1454    -309920.38148   -229246.32864
  22654843.4654   -2886611.29345  -2197447.17061
  22134456.746     6013599.499 5   4685893.67121
  19774738.4884  -24201034.35847 -18691507.30163
 91  4 24 22 57 59.9960000  0  5G13G 2G15G19G 6
  21520297.3094   -8111937.75346  -5994377.11961
  19586728.1764    -315461.24748   -233563.88064
  22650534.1994   -2909285.01345  -2215114.93661
  22140222.270     6043871.229 5   4709481.89921
  19769102.3954  -24230658.23147 -18714590.80863
 91  4 24 22 58 14.9960000  0  5G13G 2G15G19G 6
  21508055.848    -8176257.029 6  -6044495.78621
  19585683.6844    -320946.31748   -237837.95464
  22646241.254    -2931834.307 5  -2232685.75821
  22145986.207     6074205.741 5   4733119.03221
  19763477.5514  -24260217.37947 -18737623.88063
 91  4 24 22 58 29.9960000  0  5G13G 2G15G19G 6
  21495832.035    -8240509.860 6  -6094562.70921
  19584650.5044    -326385.27548   -242076.09764
  22641969.246    -2954268.350 5  -2250166.76921
  22151776.7704    6104593.52145   4756797.68061
  19757864.106   -24289721.033 7 -18760613.71423
 91  4 24 22 58 44.9960000  0  5G13G 2G15G19G 6
  21483617.8484   -8304688.75346  -6144572.00261
  19583623.8564    -331770.88748   -246272.67264
  22637724.1134   -2976579.86845  -2267552.32061
  22157563.2774    6135041.64845   4780523.34961
  19752260.5984  -24319161.81547 -18783554.55363
 91  4 24 22 58 59.9960000  0  5G13G 2G15G19G 6
  21471420.934    -8368793.519 6  -6194523.55721
  19582610.7854    -337103.35248   -250427.83764
  22633506.8404   -2998768.70945  -2284842.26361
  22163373.8324    6165549.70645   4804295.72161
  19746670.676   -24348539.529 7 -18806446.25124
 91  4 24 22 59 14.9960000  0  5G13G 2G15G19G 6
  21459237.1214   -8432825.17846  -6244418.13361
  19581606.3484    -342384.15648   -254542.74564
  22629302.512    -3020836.080 5  -2302037.54421
  22169185.809     6196116.169 5   4828113.60821
  19741090.1994  -24377855.45247 -18829289.79663
 91  4 24 22 59 29.9960000  0  5G13G 2G15G19G 6
  21447065.2314   -8496782.75446  -6294254.97561
  19580610.5744    -347612.31848   -258616.63464
  22625127.262    -3042780.586 5  -2319137.11321
  22175021.621     6226742.181 5   4851977.87921
  19735523.332   -24407108.250 7 -18852084.15423
 91  4 24 22 59 44.9960000  0  5G13G 2G15G19G 6
  21434906.5124   -8560672.16946  -6344038.71861
  19579623.7154    -352794.41648   -262654.62964
  22620976.699    -3064608.595 6  -2336145.88521
  22180852.5594    6257421.06345   4875883.36961
  19729966.973   -24436304.202 7 -18874834.22123
 91  4 24 22 59 59.9960000  0  5G13G 2G15G19G 6
  21422764.1134   -8624484.07046  -6393762.04961
  19578646.5664    -357921.77248   -266649.97364
  22616842.168    -3086311.287 6  -2353057.01221
  22186705.8634    6288161.59945   4899836.90361
  19724425.637   -24465434.298 7 -18897532.97423
 91  4 24 23  0 14.9960000  0  5G13G 2G15G19G 6
  21410631.402    -8688218.485 6  -6443425.00821
  19577682.7854    -362994.86348   -270603.02564
  22612741.723    -3107888.707 6  -2369870.54021
  22192564.082     6318963.280 5   4923838.07521
  19718895.1374  -24494498.62647 -18920180.47163
 91  4 24 23  0 29.9960000  0  5G13G 2G15G19G 6
  21398522.176    -8751881.301 6  -6493032.18321
  19576726.3164    -368019.94848   -274518.67664
  22608654.762    -3129346.605 6  -2386590.93921
  22198435.1764    6349819.71145   4947881.89961
  19713376.0124  -24523503.17347 -18942781.38364
 91  4 24 23  0 44.9960000  0  5G13G 2G15G19G 6
  21386419.1684   -8815468.88846  -6542580.73061
  19575779.0594    -372993.71648   -278394.33764
  22604595.7074   -3150681.70146  -2403215.62661
  22204314.988     6380734.077 5   4971970.88121
  19707869.0204  -24552444.51747 -18965333.05064
 91  4 24 23  0 59.9960000  0  5G13G 2G15G19G 6
  21374334.5434   -8878987.47446  -6592075.51261
  19574840.8714    -377922.78148   -282235.16564
  22600556.5124   -3171900.42746  -2419749.65861
  22210220.1524    6411699.90045   4996099.95761
  19702372.137   -24581328.812 7 -18987840.26924
 91  4 24 23  1 14.9960000  0  5G13G 2G15G19G 6
  21362264.8484   -8942427.34946  -6641508.96761
  19573913.0664    -382797.79847   -286033.87164
  22596541.5594   -3192993.01446  -2436185.38761
  22216118.035     6442726.258 5   5020276.21621
  19696888.6134  -24610146.52847 -19010295.60364
 91  4 24 23  1 29.9960000  0  5G13G 2G15G19G 6
  21350203.5904   -9005792.36646  -6690884.09961
  19572995.2704    -387623.26348   -289793.98464
  22592550.6214   -3213963.48946  -2452525.98261
  22222037.543     6473808.845 5   5044496.29521
  19691415.7624  -24638901.76947 -19032702.25464
 91  4 24 23  1 44.9960000  0  5G13G 2G15G19G 6
  21338154.2234   -9069086.26746  -6740203.80561
  19572086.2624    -392403.26547   -293518.65164
  22588584.8484   -3234815.89946  -2468774.53961
  22227951.6844    6504943.51845   5068756.94761
  19685955.8094  -24667598.27447 -19055063.14564
 91  4 24 23  1 59.9960000  0  5G13G 2G15G19G 6
  21326124.973    -9132301.176 6  -6789461.97621
  19571187.9184    -397130.28748   -297202.04064
  22584640.6994   -3255542.43046  -2484925.03061
  22233889.129     6536137.744 5   5093064.01221
  19680508.082   -24696228.172 7 -19077372.13224
 91  4 24 23  2 14.9960000  0  5G13G 2G15G19G 6
  21314111.879    -9195439.136 6  -6838660.16221
  19570297.8874    -401806.65747   -300845.96064
  22580720.8094   -3276145.21346  -2500979.09361
  22239831.707     6567389.175 5   5117415.65521
  19675070.7704  -24724793.54147 -19099630.83364
 91  4 24 23  2 29.9960000  0  5G13G 2G15G19G 6
  21302112.2544   -9258500.02046  -6887798.30961
  19569418.3874    -406433.04848   -304450.93964
  22576824.121    -3296624.327 6  -2516936.78021
  22245802.066     6598697.269 5   5141811.42521
  19669648.7464  -24753294.71547 -19121839.50864
 91  4 24 23  2 44.9960000  0  5G13G 2G15G19G 6
  21290127.434    -9321486.375 6  -6936878.37621
  19568546.5514    -411012.00447   -308018.95364
  22572948.559    -3316982.407 6  -2532800.16721
  22251765.535     6630059.203 5   5166249.16921
  19664236.106   -24781734.153 7 -19144000.08224
 91  4 24 23  2 59.9960000  0  5G13G 2G15G19G 6
  21278158.3564   -9384397.29946  -6985899.66661
  19567681.5824    -415543.04547   -311549.62964
  22569096.457    -3337218.665 6  -2548568.62321
  22257747.106     6661475.323 5   5190729.11021
  19658837.340   -24810111.154 7 -19166112.01624
 91  4 24 23  3 14.9960000  0  5G13G 2G15G19G 6
  21266200.231    -9447230.243 6  -7034860.21221
  19566829.1914    -420024.20547   -315041.43964
  22565271.910    -3357330.860 6  -2564240.38821
  22263729.6454    6692947.68745   5215252.88461
  19653446.207   -24838423.179 7 -19188173.30724
 91  4 24 23  3 29.9960000  0  5G13G 2G15G19G 6
  21254258.5044   -9509980.41446  -7083756.23961
  19565989.2774    -424451.02847   -318490.90764
  22561467.262    -3377314.518 6  -2579812.02021
  22269731.652     6724480.651 5   5239823.89021
  19648072.262   -24866665.528 7 -19210180.31624
 91  4 24 23  3 44.9960000  0  5G13G 2G15G19G 6
  21242331.082    -9572654.008 6  -7132592.60721
  19565153.9654    -428830.48447   -321903.47164
  22557686.496    -3397176.183 6  -2595288.60621
  22275743.613     6756067.292 5   5264436.71121
  19642713.590   -24894844.768 7 -19232138.14224
 91  4 24 23  3 59.9960000  0  5G13G 2G15G19G 6
  21230413.8094   -9635257.05546  -7181374.00861
  19564327.0664    -433168.60947   -325283.82464
  22553930.856    -3416921.424 6  -2610674.44821
  22281764.473     6787701.589 5   5289086.68821
  19637359.152   -24922966.733 7 -19254051.34424
 91  4 24 23  4 14.9960000  0  5G13G 2G15G19G 6
  21218516.5434   -9697785.34546  -7230097.14761
  19563513.5594    -437461.79947   -328629.16864
  22550195.8094   -3436546.37946  -2625966.56961
  22287798.363     6819387.079 5   5313776.52221
  19632018.356   -24951027.474 7 -19275916.83124
 91  4 24 23  4 29.9960000  0  5G13G 2G15G19G 6
  21206634.129    -9760228.175 6  -7278753.69621
  19562704.3874    -441700.12247   -331931.75664
  22546486.7464   -3456040.91446  -2641157.06261
  22293838.012     6851133.797 5   5338514.05921
  19626694.0044  -24979016.63447 -19297726.54364
 91  4 24 23  4 44.9960000  0  5G13G 2G15G19G 6
  21194771.2464   -9822588.97246  -7327346.31661
  19561907.6684    -445886.76147   -335194.06864
  22542801.3634   -3475408.10846  -2656248.34061
  22299880.832     6882938.342 5   5363296.67821
  19621381.004   -25006937.413 7 -19319482.97624
 91  4 24 23  4 59.9950000  0  5G13G 2G15G19G 6
  21182913.6484   -9884866.42046  -7375874.01061
  19561120.4604    -450024.75147   -338418.47264
  22539138.437    -3494649.879 6  -2671241.87221
  22305948.694     6914795.113 5   5388120.01021
  19616079.710   -25034790.834 7 -19341186.92124
 91  4 24 23  5 14.9950000  0  5G13G 2G15G19G 6
  21171084.788    -9947068.985 6  -7424343.33421
  19560344.3984    -454115.04147   -341605.70664
  22535499.405    -3513768.850 5  -2686139.72921
  22312026.7804    6946708.01945   5412987.06361
  19610792.3744  -25062580.72747 -19362841.35864
 91  4 24 23  5 29.9950000  0  5G13G 2G15G19G 6
  21159258.3124  -10009186.44746  -7472746.36861
  19559574.3904    -458152.10647   -344751.46864
  22531886.866    -3532758.120 5  -2700936.51321
  22318111.3824    6978680.13545   5437900.26161
  19605516.788   -25090299.644 7 -19384440.49023
 91  4 24 23  5 44.9950000  0  5G13G 2G15G19G 6
  21147455.4834  -10071222.64546  -7521086.07261
  19558816.8584    -462140.28147   -347859.13064
  22528302.9604   -3551621.68746  -2715635.36661
  22324202.843     7010707.079 5   5462856.18821
  19600255.780   -25117951.590 7 -19405987.44023
 91  4 24 23  5 59.9950000  0  5G13G 2G15G19G 6
  21135666.593   -10133174.566 6  -7569360.10621
  19558067.3434    -466076.91147   -350926.62764
  22524732.288    -3570356.411 5  -2730233.78221
  22330310.6404    7042791.57945   5487856.94861
  19595006.476   -25145533.547 7 -19427479.85123
 91  4 24 23  6 14.9950000  0  5G13G 2G15G19G 6
  21123894.1554  -10195044.92046  -7617570.57361
  19557325.1944    -469965.14947   -353956.42564
  22521193.8434   -3588965.52745  -2744734.35661
  22336418.601     7074930.349 5   5512899.99221
  19589771.624   -25173048.437 7 -19448919.99623
 91  4 24 23  6 29.9950000  0  5G13G 2G15G19G 6
  21112133.7334  -10256835.48346  -7665718.87961
  19556593.3984    -473806.93747   -356950.02064
  22517672.7884   -3607450.84445  -2759138.44661
  22342556.8124    7107121.42945   5537983.82761
  19584546.054   -25200497.816 7 -19470309.09823
 91  4 24 23  6 44.9950000  0  5G13G 2G15G19G 6
  21100393.226   -10318542.728 6  -7713802.26321
  19555872.9684    -477599.36347   -359905.15364
  22514175.210    -3625809.050 5  -2773443.49921
  22348692.3274    7139367.59645   5563110.55061
  19579335.687   -25227878.600 7 -19491644.75123
 91  4 24 23  6 59.9950000  0  5G13G 2G15G19G 6
  21088663.437   -10380168.084 6  -7761821.83321
  19555161.2884    -481344.54047   -362823.46764
  22510710.8744   -3644041.95745  -2787650.89361
  22354839.023     7171666.837 5   5588278.64321
  19574140.2024  -25255192.42047 -19512928.22063
 91  4 24 23  7 14.9950000  0  5G13G 2G15G19G 6
  21076951.265   -10441716.815 6  -7809781.69821
  19554457.5384    -485047.67348   -365709.02564
  22507262.593    -3662154.523 5  -2801764.53421
  22360985.4294    7204013.75245   5613483.87961
  19568952.827   -25282444.387 7 -19534163.49423
 91  4 24 23  7 29.9950000  0  5G13G 2G15G19G 6
  21065254.351   -10503173.392 6  -7857669.75221
  19553761.7264    -488693.53547   -368549.94264
  22503842.210    -3680131.417 5  -2815772.46521
  22367153.241     7236423.531 5   5638738.10621
  19563782.366   -25309618.792 7 -19555338.33224
 91  4 24 23  7 44.9950000  0  5G13G 2G15G19G 6
  21053579.7024  -10564541.78646  -7905489.09461
  19553077.5694    -492286.79047   -371349.87164
  22500446.3434   -3697977.02745  -2829678.07661
  22373333.0624    7268891.47945   5664037.64761
  19558625.069   -25336720.116 7 -19576456.22123
 91  4 24 23  7 59.9950000  0  5G13G 2G15G19G 6
  21041915.8984  -10625822.96746  -7953240.48661
  19552406.0934    -495828.68047   -374109.78264
  22497075.4684   -3715692.61845  -2843482.37961
  22379531.1794    7301416.19345   5689381.44261
  19553481.0934  -25363749.30347 -19597517.89464
 91  4 24 23  8 14.9950000  0  5G13G 2G15G19G 6
  21030269.5074  -10687020.12246  -8000926.41361
  19551740.6014    -499322.64147   -376832.34364
  22493725.929    -3733281.312 5  -2857187.82821
  22385724.7734    7333994.37845   5714766.86861
  19548350.148   -25390709.587 7 -19618525.88524
 91  4 24 23  8 29.9950000  0  5G13G 2G15G19G 6
  21018638.6714  -10748137.69046  -8048550.31361
  19551083.0074    -502773.88347   -379521.61864
  22490404.882    -3750747.976 5  -2870798.17821
  22391934.265     7366620.826 5   5740189.91921
  19543233.312   -25417605.560 7 -19639483.76123
 91  4 24 23  8 44.9950000  0  5G13G 2G15G19G 6
  21007023.9524  -10809166.81546  -8096105.29461
  19550434.7804    -506173.63647   -382170.77364
  22487105.1554   -3768083.43645  -2884306.29261
  22398144.8824    7399304.03645   5765657.16861
  19538128.1634  -25444428.40247 -19660384.64463
 91  4 24 23  8 59.9950000  0  5G13G 2G15G19G 6
  20995427.6324  -10870111.53146  -8143594.50461
  19549799.5074    -509526.43248   -384783.34264
  22483834.210    -3785292.096 5  -2897715.57721
  22404389.937     7432039.510 5   5791165.18221
  19533036.015   -25471182.400 7 -19681231.88824
 91  4 24 23  9 14.9950000  0  5G13G 2G15G19G 6
  20983845.788   -10930969.251 6  -8191015.94321
  19549169.7804    -512829.94948   -387357.50464
  22480577.194    -3802371.447 5  -2911024.15921
  22410622.2024    7464829.60945   5816715.75061
  19527958.4374  -25497864.67247 -19702023.24763
 91  4 24 23  9 29.9950000  0  5G13G 2G15G19G 6
  20972281.194   -10991744.078 6  -8238372.76721
  19548548.8984    -516088.87447   -389896.92464
  22477354.5624   -3819325.85245  -2924235.30561
  22416877.398     7497669.455 5   5842305.08021
  19522897.062   -25524479.949 7 -19722762.39824
 91  4 24 23  9 44.9950000  0  5G13G 2G15G19G 6
  20960731.5304  -11052440.39246  -8285668.43161
  19547937.8044    -519308.06747   -392405.38764
  22474151.0154   -3836160.15845  -2937352.92661
  22423117.374     7530554.216 5   5867929.37521
  19517842.218   -25551032.534 7 -19743452.70924
 91  4 24 23  9 59.9950000  0  5G13G 2G15G19G 6
  20949195.468   -11113047.722 6  -8332894.74121
  19547334.0154    -522477.50647   -394875.07164
  22470973.9444   -3852864.22445  -2950369.04761
  22429397.7574    7563493.92045   5893596.54661
  19512804.702   -25577512.008 7 -19764086.04523
 91  4 24 23 10 14.9950000  0  5G13G 2G15G19G 6
  20937683.210   -11173573.162 6  -8380057.25121
  19546738.9294    -525604.47347   -397311.66264
  22467816.3514   -3869445.30645  -2963289.31861
  22435675.437     7596481.081 5   5919300.64921
  19507776.952   -25603925.666 7 -19784668.09723
 91  4 24 23 10 29.9950000  0  5G13G 2G15G19G 6
  20926177.929   -11234015.875 6  -8427155.30421
  19546149.7574    -528688.71447   -399714.96164
  22464686.7574   -3885902.53146  -2976113.11661
  22441970.6794    7629516.03945   5945042.05061
  19502763.358   -25630272.724 7 -19805198.24523
 91  4 24 23 10 44.9950000  0  5G13G 2G15G19G 6
  20914693.616   -11294374.430 6  -8474187.77021
  19545573.4134    -531728.89948   -402083.93064
  22461574.835    -3902234.386 6  -2988839.20021
  22448250.5074    7662599.85345   5970821.47761
  19497762.3904  -25656551.62647 -19825675.28563
 91  4 24 23 10 59.9950000  0  5G13G 2G15G19G 6
  20903224.1244  -11354636.19046  -8521144.82661
  19545006.2734    -534712.69547   -404408.96064
  22458499.2334   -3918428.38946  -3001457.88261
  22454554.1084    7695744.76344   5996648.50061
  19492775.858   -25682749.741 7 -19846089.37424
 91  4 24 23 11 14.9950000  0  5G13G 2G15G19G 6
  20891777.030   -11414810.528 6  -8568033.75021
  19544448.3904    -537649.99747   -406697.76964
  22455437.835    -3934494.443 6  -3013976.85321
  22460882.8434    7728940.91645   6022515.49461
  19487802.890   -25708876.762 7 -19866448.07623
 91  4 24 23 11 29.9950000  0  5G13G 2G15G19G 6
  20880338.3824  -11474890.28746  -8614848.98561
  19543896.2654    -540534.04847   -408945.08664
  22452406.3434   -3950425.53246  -3026390.66261
  22467215.991     7762194.855 5   6048427.47321
  19482848.179   -25734925.596 7 -19886745.84523
 91  4 24 23 11 44.9950000  0  5G13G 2G15G19G 6
  20868924.8584  -11534885.13646  -8661598.06261
  19543358.6874    -543375.27447   -411159.03364
  22449399.046    -3966231.618 6  -3038707.05221
  22473543.226     7795496.412 5   6074376.61721
  19477903.765   -25760906.271 7 -19906990.50823
 91  4 24 23 11 59.9950000  0  5G13G 2G15G19G 6
  20857523.468   -11594790.154 6  -8708277.12921
  19542825.6484    -546168.98747   -413335.95264
  22446413.937    -3981907.623 6  -3050922.10421
  22479889.1874    7828850.19645   6100366.37761
  19472974.890   -25786813.742 7 -19927178.12923
 91  4 24 23 12 14.9950000  0  5G13G 2G15G19G 6
  20846140.5464  -11654610.20246  -8754890.00361
  19542302.0774    -548920.31948   -415479.84864
  22443459.038    -3997458.768 6  -3063039.85221
  22486252.8514    7862250.88245   6126392.77861
  19468058.819   -25812653.067 7 -19947312.65023
 91  4 24 23 12 29.9950000  0  5G13G 2G15G19G 6
  20834773.093   -11714339.870 6  -8801432.44721
  19541786.4604    -551624.34048   -417586.87864
  22440523.7414   -4012879.69546  -3075056.13061
  22492618.577     7895703.405 5   6152459.46721
  19463153.655   -25838418.804 7 -19967389.82423
 91  4 24 23 12 44.9950000  0  5G13G 2G15G19G 6
  20823422.1244  -11773985.74546  -8847909.58661
  19541281.9294    -554287.83348   -419662.31964
  22437612.194    -4028177.296 6  -3086976.32621
  22498988.819     7929200.928 5   6178561.30821
  19458263.327   -25864117.643 7 -19987414.87023
 91  4 24 23 12 59.9950000  0  5G13G 2G15G19G 6
  20812093.7654  -11833537.27246  -8894313.22061
  19540782.8904    -556900.56848   -421698.22064
  22434723.991    -4043341.211 6  -3098792.30721
  22505367.1014    7962753.52445   6204705.98461
  19453388.788   -25889738.897 7 -20007379.46223
 91  4 24 23 13 14.9950000  0  5G13G 2G15G19G 6
  20800777.437   -11892994.935 6  -8940643.70721
  19540294.8744    -559463.57047   -423695.36464
  22431868.843    -4058372.223 6  -3110504.77521
  22511774.5384    7996359.83845   6230892.58061
  19448527.538   -25915283.346 7 -20027284.21023
 91  4 24 23 13 29.9950000  0  5G13G 2G15G19G 6
  20789476.8664  -11952367.56246  -8986907.94361
  19539816.1714    -561986.05948   -425660.94364
  22429028.249    -4073279.190 6  -3122120.54921
  22518181.765     8030010.763 5   6257113.93021
  19443679.944   -25940759.775 7 -20047135.94923
 91  4 24 23 13 44.9950000  0  5G13G 2G15G19G 6
  20778199.1164  -12011645.40946  -9033098.31361
  19539344.3514    -564458.62147   -427587.61364
  22426216.163    -4088052.576 6  -3133632.26121
  22524586.4834    8063715.78445   6283377.38561
  19438846.616   -25966158.596 7 -20066927.21923
 91  4 24 23 13 59.9950000  0  5G13G 2G15G19G 6
  20766934.2884  -12070831.51646  -9079217.21161
  19538883.6244    -566884.51248   -429477.91464
  22423430.8434   -4102695.58246  -3145042.36361
  22531010.757     8097471.542 4   6309680.45921
  19434026.585   -25991482.913 7 -20086660.43423
 91  4 24 23 14 14.9950000  0  5G13G 2G15G19G 6
  20755692.163   -12129925.649 6  -9125264.43121
  19538430.2654    -569264.09548   -431332.13664
  22420667.8744   -4117208.15446  -3156350.82661
  22537441.366     8131277.529 5   6336022.56021
  19429220.710   -26016732.719 7 -20106335.58323
 91  4 24 23 14 29.9950000  0  5G13G 2G15G19G 6
  20744462.179   -12188927.964 6  -9171240.11121
  19537986.0694    -571597.98248   -433150.74964
  22417931.3584   -4131590.73446  -3167558.00761
  22543891.7884    8165133.05545   6362403.37261
  19424431.421   -26041908.247 7 -20125952.85723
 91  4 24 23 14 44.9950000  0  5G13G 2G15G19G 6
  20733250.4374  -12247841.48846  -9217146.61461
  19537550.6404    -573889.33648   -434936.22064
  22415220.866    -4145846.289 6  -3178666.19721
  22550337.491     8199035.001 5   6388820.24421
  19419653.046   -26067012.238 7 -20145514.38823
 91  4 24 23 14 59.9950000  0  5G13G 2G15G19G 6
  20722061.335   -12306660.111 6  -9262979.14721
  19537123.9994    -576132.65748   -436684.26664
  22412533.101    -4159969.032 6  -3189670.89821
  22556798.554     8232989.001 5   6415277.78221
  19414890.796   -26092039.070 7 -20165015.79823
 91  4 24 23 15 14.9950000  0  5G13G 2G15G19G 6
  20710884.8664  -12365388.27946  -9308741.21861
  19536704.8904    -578332.64048   -438398.53563
  22409869.9054   -4173963.56546  -3200575.69561
  22563268.8274    8266989.89245   6441771.76261
  19410143.921   -26116993.234 7 -20184460.58223
 91  4 24 23 15 29.9950000  0  5G13G 2G15G19G 6
  20699724.679   -12424021.774 6  -9354429.50821
  19536296.4524    -580485.51248   -440076.09664
  22407230.085    -4187826.108 5  -3211377.65921
  22569755.054     8301041.634 4   6468305.42021
  19405410.499   -26141870.395 7 -20203845.36223
 91  4 24 23 15 44.9950000  0  5G13G 2G15G19G 6
  20688590.9834  -12482555.36646  -9400039.95661
  19535896.2804    -582586.36948   -441713.13063
  22404620.405    -4201551.559 5  -3222072.76821
  22576237.655     8335148.954 4   6494882.39721
  19400691.280   -26166665.505 7 -20223166.21323
 91  4 24 23 15 59.9950000  0  5G13G 2G15G19G 6
  20677464.773   -12540990.984 6  -9445574.05921
  19535505.5154    -584637.46248   -443311.38164
  22402029.9374   -4215142.13245  -3232662.79661
  22582742.476     8369309.574 4   6521500.81121
  19395987.265   -26191380.570 7 -20242424.69023
 91  4 24 23 16 14.9950000  0  5G13G 2G15G19G 6
  20666364.3584  -12599332.37946  -9491034.74961
  19535121.0544    -586642.85048   -444874.01964
  22399471.8434   -4228601.43645  -3243150.51761
  22589249.327     8403519.315 4   6548157.62221
  19391298.179   -26216019.229 7 -20261623.62323
 91  4 24 23 16 29.9950000  0  5G13G 2G15G19G 6
  20655280.694   -12657579.393 6  -9536421.88121
  19534751.0624    -588602.86748   -446401.30164
  22396934.8044   -4241929.84945  -3253536.26061
  22595769.9444    8437777.75744   6574852.30261
  19386625.694   -26240581.598 7 -20280763.11023
 91  4 24 23 16 44.9950000  0  5G13G 2G15G19G 6
  20644216.140   -12715734.296 6  -9581737.25121
  19534386.8584    -590520.30648   -447895.41464
  22394422.8514   -4255130.07245  -3263822.11861
  22602295.1164    8472082.01844   6601582.70461
  19381966.780   -26265070.222 7 -20299845.13823
 91  4 24 23 16 59.9950000  0  5G13G 2G15G19G 6
  20633166.515   -12773787.712 6  -9626973.53521
  19534031.4374    -592385.93948   -449349.15764
  22391937.0854   -4268192.65445  -3274000.70461
  22608837.952     8506441.015 4   6628355.80621
  19377319.312   -26289475.473 7 -20318862.20323
 91  4 24 23 17 14.9950000  0  5G13G 2G15G19G 6
  20622137.460   -12831744.175 6  -9672134.27921
  19533686.2654    -594204.46348   -450766.19564
  22389482.9994   -4281121.86845  -3284075.37361
  22615383.0074    8540850.11944   6655167.87761
  19372693.030   -26313801.875 7 -20337817.81823
 91  4 24 23 17 29.9950000  0  5G13G 2G15G19G 6
  20611130.0854  -12889604.71346  -9717220.26561
  19533347.0624    -595977.52448   -452147.80164
  22387041.8194   -4293919.24245  -3294047.32861
  22621943.9054    8575307.49644   6682017.62661
  19368076.257   -26338050.764 7 -20356713.03723
 91  4 24 23 17 44.9950000  0  5G13G 2G15G19G 6
  20600138.898   -12947364.530 6  -9762227.78621
  19533017.5544    -597700.64448   -453490.48564
  22384631.0074   -4306580.10045  -3303912.89561
  22628499.491     8609817.659 4   6708908.46821
  19363477.780   -26362217.376 7 -20375544.14823
 91  4 24 23 17 59.9950000  0  5G13G 2G15G19G 6
  20589164.140   -13005026.595 6  -9807159.13321
  19532700.4374    -599377.25648   -454796.94164
  22382245.3584   -4319107.83145  -3313674.73761
  22635081.398     8644377.153 4   6735837.76221
  19358893.671   -26386304.730 7 -20394313.49823
 91  4 24 23 18 14.9950000  0  5G13G 2G15G19G 6
  20578212.663   -13062590.225 6  -9852013.76721
  19532391.7104    -601006.70648   -456066.64664
  22379889.991    -4331501.683 5  -3323332.23121
  22641668.2964    8678986.18744   6762805.69761
  19354322.491   -26410312.154 7 -20413020.57023
 91  4 24 23 18 29.9950000  0  5G13G 2G15G19G 6
  20567273.2104  -13120062.46246  -9896797.20261
  19532087.8664    -602596.82948   -457305.70064
  22377556.358    -4343769.083 5  -3332891.20521
  22648274.218     8713637.204 4   6789806.28621
  19349770.405   -26434246.915 7 -20431671.00723
 91  4 24 23 18 44.9950000  0  5G13G 2G15G19G 6
  20556352.2184  -13177431.61546  -9941500.30461
  19531795.0234    -604136.27748   -458505.27064
  22375243.4834   -4355898.81745  -3342342.90461
  22654870.179     8748341.388 5   6816848.33521
  19345232.780   -26458097.459 7 -20450255.82523
 91  4 24 23 18 59.9950000  0  5G13G 2G15G19G 6
  20545455.9994  -13234706.04646  -9986129.60961
  19531510.2804    -605633.45548   -459671.89964
  22372966.4214   -4367899.22245  -3351693.85061
  22661478.6714    8783090.23944   6843925.17361
  19340709.483   -26481871.922 7 -20468781.36823
 91  4 24 23 19 14.9950000  0  5G13G 2G15G19G 6
  20534575.694   -13291878.438 6 -10030679.38421
  19531235.1244    -607081.57348   -460800.29964
  22370704.273    -4379762.966 5  -3360938.28621
  22668105.5234    8817890.55044   6871042.09161
  19336199.616   -26505563.142 7 -20487242.04523
 91  4 24 23 19 29.9950000  0  5G13G 2G15G19G 6
  20523716.2804  -13348952.80646 -10075152.79161
  19530968.6014    -608485.14648   -461893.99164
  22368470.5624   -4391494.44246  -3370079.68461
  22674737.6944    8852737.76144   6898195.61761
  19331709.077   -26529175.321 7 -20505641.12723
 91  4 24 23 19 44.9950000  0  5G13G 2G15G19G 6
  20512875.648   -13405923.896 6 -10119545.71021
  19530711.9604    -609839.21648   -462949.11664
  22366267.827    -4403088.487 6  -3379113.97321
  22681380.241     8887636.835 4   6925389.50021
  19327231.694   -26552703.120 7 -20523974.46223
 91  4 24 23 19 59.9950000  0  5G13G 2G15G19G 6
  20502053.405   -13462794.182 6 -10163860.08921
  19530460.8354    -611146.63948   -463967.89264
  22364085.702    -4414548.060 6  -3388043.49221
  22688027.858     8922584.680 4   6952621.42021
  19322768.124   -26576149.285 7 -20542244.18723
 91  4 24 23 20 14.9950000  0  5G13G 2G15G19G 6
  20491253.1014  -13519563.07246 -10208095.46161
  19530221.835     -612407.077 8   -464950.06024
  22361927.476    -4425872.852 6  -3396867.98321
  22694687.616     8957581.586 4   6979891.56621
  19318322.952   -26599513.219 7 -20560449.83623
 91  4 24 23 20 29.9950000  0  5G13G 2G15G19G 6
  20480468.874   -13576232.824 6 -10252253.58021
  19529989.3904    -613622.84148   -465897.41664
  22359799.0774   -4437065.09246  -3405589.17961
  22701359.023     8992625.077 4   7007197.94921
  19313892.6164  -26622797.07747 -20578593.09263
 91  4 24 23 20 44.9950000  0  5G13G 2G15G19G 6
  20469701.523   -13632803.385 6 -10296334.40821
  19529767.9214    -614794.49748   -466810.39664
  22357695.2654   -4448124.91646  -3414207.22161
  22708030.3434    9027714.39844   7034540.12361
  19309475.0934  -26646001.00847 -20596674.06763
 91  4 24 23 20 59.9950000  0  5G13G 2G15G19G 6
  20458956.8514  -13689272.15946 -10340335.93261
  19529552.0934    -615919.91148   -467687.34464
  22355619.6714   -4459050.15446  -3422720.36061
  22714724.4374    9062851.72144   7061919.68861
  19305074.569   -26669122.602 7 -20614690.87623
 91  4 24 23 21 14.9950000  0  5G13G 2G15G19G 6
  20448226.9834  -13745642.71046 -10384260.90761
  19529345.4764    -617003.12048   -468531.40464
  22353565.4764   -4469844.33746  -3431131.40461
  22721413.1484    9098033.14344   7089333.57661
  19300692.796   -26692165.286 7 -20632646.20223
 91  4 24 23 21 29.9950000  0  5G13G 2G15G19G 6
  20437519.9524  -13801911.20146 -10428106.36261
  19529146.6554    -618040.47848   -469339.72764
  22351534.9054   -4480504.04146  -3439437.63161
  22728131.8904    9133262.00643   7116784.48661
  19296321.687   -26715125.332 7 -20650537.12523
 91  4 24 23 21 44.9950000  0  5G13G 2G15G19G 6
  20426832.882   -13858074.464 6 -10471869.81521
  19528957.8434    -619029.03448   -470110.02364
  22349528.749    -4491026.154 6  -3447636.65921
  22734828.9764    9168541.01644   7144274.42961
  19291970.929   -26737999.617 7 -20668361.22423
 91  4 24 23 21 59.9950000  0  5G13G 2G15G19G 6
  20416164.2964  -13914137.63946 -10515555.29361
  19528779.1404    -619974.51348   -470846.75564
  22347555.804    -4501416.319 6  -3455732.85721
  22741553.843     9203864.367 3   7171798.97221
  19287630.726   -26760793.497 7 -20686122.67423
 91  4 24 23 22 14.9950000  0  5G13G 2G15G19G 6
  20405516.187   -13970100.494 6 -10559162.57521
  19528609.4294    -620876.76848   -471549.80764
  22345605.9524   -4511674.37746  -3463726.11461
  22748284.960     9239232.164 4   7199358.09621
  19283310.804   -26783506.622 7 -20703821.19123
 91  4 24 23 22 29.9950000  0  5G13G 2G15G19G 6
  20394885.788   -14025958.417 6 -10602688.09621
  19528443.9684    -621731.72948   -472216.01364
  22343676.6554   -4521795.71745  -3471612.86161
  22755019.5544    9274648.44043   7226955.02961
  19279004.679   -26806134.597 7 -20721453.36223
 91  4 24 23 22 44.9950000  0  5G13G 2G15G19G 6
  20384275.7574  -14081713.63446 -10646133.60061
  19528293.0464    -622541.88348   -472847.29664
  22341777.273    -4531782.964 6  -3479395.07321
  22761763.593     9310110.636 4   7254587.71421
  19274712.296   -26828679.555 7 -20739020.83923
 91  4 24 23 22 59.9950000  0  5G13G 2G15G19G 6
  20373684.5774  -14137372.07346 -10689503.67961
  19528146.1714    -623313.29248   -473448.39864
  22339899.726    -4541642.046 5  -3487077.46421
  22768528.702     9345612.422 4   7282251.23721
  19270438.7804  -26851147.41247 -20756528.22963
 91  4 24 23 23 14.9950000  0  5G13G 2G15G19G 6
  20363109.6554  -14192929.21146 -10732794.83661
  19528007.0304    -624042.01348   -474016.23264
  22338046.468    -4551369.005 5  -3494656.85621
  22775293.8354    9381157.85544   7309948.80761
  19266177.827   -26873533.817 7 -20773972.16624
 91  4 24 23 23 29.9950000  0  5G13G 2G15G19G 6
  20352556.491   -14248375.809 6 -10775999.85021
  19527877.8434    -624719.02548   -474543.76664
  22336227.8194   -4560954.72145  -3502126.19661
  22782061.4374    9416755.68444   7337687.19161
  19261934.452   -26895829.642 7 -20791345.51624
 91  4 24 23 23 44.9950000  0  5G13G 2G15G19G 6
  20342029.2334  -14303717.89146 -10819123.41761
  19527757.7804    -625350.82548   -475036.07164
  22334426.757    -4570405.329 5  -3509490.25821
  22788847.718     9452399.305 4   7365461.25621
  19257709.968   -26918040.855 7 -20808652.93224
 91  4 24 23 23 59.9950000  0  5G13G 2G15G19G 6
  20331516.4994  -14358958.82646 -10862168.17561
  19527645.8354    -625941.04448   -475495.97764
  22332654.476    -4579724.327 5  -3516751.76821
  22795648.5934    9488084.93644   7393268.04861
  19253497.991   -26940170.896 7 -20825897.09724
 91  4 24 23 24 14.9950000  0  5G13G 2G15G19G 6
  20321026.3514  -14414095.54246 -10905131.73161
  19527541.7574    -626486.86248   -475921.28864
  22330910.429    -4588908.976 5  -3523908.57821
  22802442.507     9523815.425 4   7421109.83621
  19249301.101   -26962216.852 7 -20843075.74024
 91  4 24 23 24 29.9950000  0  5G13G 2G15G19G 6
  20310553.6014  -14469125.65846 -10948012.21461
  19527448.3584    -626986.19448   -476310.37464
  22329189.3274   -4597956.90345  -3530958.85761
  22809248.6164    9559592.70444   7448988.05361
  19245123.593   -26984176.221 7 -20860186.91824
 91  4 24 23 24 44.9950000  0  5G13G 2G15G19G 6
  20300101.4054  -14524050.21646 -10990810.43961
  19527359.0074    -627440.22448   -476664.16064
  22327488.194    -4606869.322 5  -3537903.54421
  22816066.4834    9595415.38044   7476901.64361
  19240960.663   -27006049.967 7 -20877231.36924
 91  4 24 23 24 59.9950000  0  5G13G 2G15G19G 6
  20289670.124   -14578869.512 6 -11033526.65921
  19527283.5154    -627849.70348   -476983.23664
  22325818.1794   -4615646.72245  -3544743.04361
  22822895.421     9631282.835 4   7504850.13621
  19236814.343   -27027838.488 7 -20894209.41924
 91  4 24 23 25 14.9950000  0  5G13G 2G15G19G 6
  20279257.1164  -14633583.68146 -11076160.94561
  19527210.9524    -628215.42248   -477268.20464
  22324176.2264   -4624289.92645  -3551477.94861
  22829726.265     9667194.252 4   7532832.86021
  19232685.538   -27049542.196 7 -20911121.37824
 91  4 24 23 25 29.9950000  0  5G13G 2G15G19G 6
  20268867.8434  -14688190.11946 -11118711.30161
  19527155.9444    -628535.06548   -477517.27964
  22322554.0304   -4632796.53846  -3558106.42261
  22836565.327     9703151.711 4   7560851.45921
  19228572.116   -27071158.495 7 -20927965.22223
 91  4 24 23 25 44.9950000  0  5G13G 2G15G19G 6
  20258495.7884  -14742687.71646 -11161176.84161
  19527098.7884    -628808.03748   -477729.98064
  22320961.413    -4641165.938 6  -3564627.99121
  22843420.5694    9739155.52444   7588906.19961
  19224471.648   -27092686.646 7 -20944740.38924
 91  4 24 23 25 59.9950000  0  5G13G 2G15G19G 6
  20248143.366   -14797074.470 6 -11203556.01721
  19527057.5544    -629032.29348   -477904.72764
  22319397.648    -4649395.918 6  -3571040.91021
  22850277.8124    9775207.66944   7616998.57161
  19220392.366   -27114124.327 7 -20961445.05624
 91  4 24 23 26 14.9950000  0  5G13G 2G15G19G 6
  20237815.7414  -14851353.21546 -11245851.02361
  19527020.4684    -629211.02848   -478043.99864
  22317855.7884   -4657489.23746  -3577347.33561
  22857148.4684    9811305.09244   7645126.22861
  19216334.702   -27135474.423 7 -20978081.47224
 91  4 24 23 26 29.9950000  0  5G13G 2G15G19G 6
  20227509.913   -14905527.617 6 -11288064.72621
  19526997.9214    -629348.42848
  22316342.937    -4665450.210 6  -3583550.64421
  22864022.483     9847443.371 4   7673285.73521
  19212285.265   -27156740.635 7 -20994652.53124
 91  4 24 23 26 44.9950000  0  5G13G 2G15G19G 6
  20217218.7414  -14959594.05346 -11330194.29261
  19526977.9834    -629440.95147
  22314853.249    -4673275.346 6  -3589648.09921
  22870907.132     9883625.807 4   7701479.68221
  19208255.062   -27177919.428 7 -21011155.46624
 91  4 24 23 26 59.9950000  0  5G13G 2G15G19G 6
  20206953.8044  -15013544.84746 -11372233.76661
  19526972.2184    -629481.37547
  22313390.608    -4680956.894 6  -3595633.69421
  22877809.241     9919859.649 4   7729713.65221
  19204244.507   -27199003.120 7 -21027584.29824
 91  4 24 23 27 14.9950000  0  4G13G 2G15G 6
  20196709.5234  -15067381.97546 -11414184.64861
  19526974.6794    -629472.12848
  22311953.2734   -4688497.38046  -3601509.32061
  19200248.710   -27219993.862 7 -21043940.70824
 91  4 24 23 27 29.9950000  0  4G13G 2G15G 6
  20186482.608   -15121112.836 6 -11456052.74921
  19526984.3984    -629420.40947
  22310544.3434   -4695904.36746  -3607280.97161
  19196270.187   -27240898.855 7 -21060230.29624
 91  4 24 23 27 44.9950000  0  4G13G 2G15G 6
  20176279.9134  -15174733.35046 -11497834.84861
  19527004.9134    -629322.73347
  22309157.257    -4703173.935 6  -3612945.52421
  19192308.601   -27261714.055 7 -21076449.91524
 91  4 24 23 27 59.9950000  0  4G13G 2G15G 6
  20166096.7804  -15228249.85046 -11539535.89861
  19527029.0074    -629185.93747
  22307803.140    -4710312.743 5  -3618508.17621
  19188364.9994  -27282446.02047 -21092604.68064
 91  4 24 23 28 14.9950000  0  4G13G 2G15G 6
  20155933.812   -15281659.014 7 -11581153.32921
  19527058.5694    -629006.92147
  22306471.569    -4717317.376 6  -3623966.29121
  19184436.4294  -27303091.53847 -21108692.09164
 91  4 24 23 28 29.9950000  0  4G13G 2G15G 6
  20145790.6404  -15334958.76647 -11622685.48261
  19527105.0464    -628783.87747
  22305161.640    -4724186.240 5  -3629318.59621
  19180522.0774  -27323648.50847 -21124710.49664
 91  4 24 23 28 44.9950000  0  4G13G 2G15G 6
  20135665.515   -15388144.800 6 -11664129.03421
  19527156.0774    -628512.61647   -477499.78864
  22303885.015    -4730915.238 5  -3634561.93421
  19176631.429   -27344112.552 7 -21140656.49424
 91  4 24 23 28 59.9950000  0  4G13G 2G15G 6
  20125569.468   -15441220.655 6 -11705486.73121
  19527218.2334    -628197.38447   -477254.15464
  22302628.2104   -4737508.56645  -3639699.54061
  19172751.265   -27364487.468 7 -21156533.03724
 91  4 24 23 29 14.9950000  0  4G13G 2G15G 6
  20115485.351   -15494186.646 6 -11746758.82421
  19527281.7414    -627838.67747   -476974.63864
  22301400.8194   -4743966.24045  -3644731.45161
  19168891.062   -27384773.490 7 -21172340.31624
 91  4 24 23 29 29.9950000  0  4G13G 2G15G 6
  20105429.648   -15547039.313 7 -11787942.60821
  19527360.3744    -627433.37447   -476658.82064
  22300198.0774   -4750285.28845  -3649655.31861
  19165050.437   -27404967.246 7 -21188075.69524
 91  4 24 23 29 44.9950000  0  4G13G 2G15G 6
  20095395.8434  -15599774.09047 -11829034.53061
  19527448.7804    -626977.10347   -476303.28364
  22299018.6944   -4756461.38045  -3654467.83461
  19161224.8664  -27425064.09747 -21203735.56663
 91  4 24 23 29 59.9950000  0  4G13G 2G15G 6
  20085380.101   -15652396.749 6 -11870039.08921
  19527541.0624    -626476.09247   -475912.89264
  22297871.913    -4762500.450 5  -3659173.54321
  19157416.7184  -27445069.91147 -21219324.50164
 91  4 24 23 30 14.9950000  0  4G13G 2G15G 6
  20075388.952   -15704908.185 7 -11910956.98221
  19527644.4444    -625931.31947   -475488.39864
  22296750.523    -4768403.584 5  -3663773.32321
  19153629.741   -27464985.485 7 -21234843.11823
 91  4 24 23 30 29.9950000  0  4G13G 2G15G 6
  20065419.2884  -15757305.93147 -11951786.27961
  19527758.1874    -625340.44347   -475027.97764
  22295653.319    -4774168.519 5  -3668265.44621
  19149855.921   -27484808.493 7 -21250289.59923
 91  4 24 23 30 44.9950000  0  4G13G 2G15G 6
  20055470.546   -15809592.448 7 -11992528.91921
  19527883.4294    -624706.54947   -474534.03464
  22294582.9374   -4779798.05945  -3672652.06161
  19146097.6874  -27504541.38247 -21265665.86963
 91  4 24 23 30 59.9950000  0  4G13G 2G15G 6
  20045537.194   -15861766.002 6 -12033183.52621
  19528007.6164    -624028.29147   -474005.51664
  22293536.046    -4785290.773 5  -3676932.05021
  19142362.952   -27524182.833 7 -21280970.88324
 91  4 24 23 31 14.9950000  0  4G13G 2G15G 6
  20035633.116   -15913824.492 7 -12073748.47521
  19528149.0624    -623303.66447   -473440.87464
  22292517.2024   -4790644.63645  -3681103.86561
  19138645.530   -27543730.269 7 -21296202.64123
 91  4 24 23 31 29.9950000  0  4G13G 2G15G 6
  20025750.507   -15965770.664 7 -12114225.90421
  19528295.0854    -622535.69647   -472842.46264
  22291528.7024   -4795862.72646  -3685169.85861
  19134941.749   -27563186.590 7 -21311363.39523
 91  4 24 23 31 44.9950000  0  4G13G 2G15G 6
  20015882.952   -16017605.420 7 -12154616.51721
  19528447.2104    -621725.46247   -472211.10564
  22290556.6794   -4800946.08246  -3689130.88961
  19131255.194   -27582552.838 7 -21326453.96423
 91  4 24 23 31 59.9950000  0  4G13G 2G15G 6
  20006042.265   -16069321.699 6 -12194914.80721
  19528610.4524    -620866.37947   -471541.69264
  22289616.687    -4805887.898 6  -3692981.59421
  19127588.898   -27601821.791 7 -21341468.71623
 91  4 24 23 32 14.9950000  0  4G13G 2G15G 6
  19996224.4294  -16120913.70146 -12235116.26261
  19528782.5154    -619953.02447   -470829.99764
  22288699.7264   -4810682.73046  -3696717.77461
  19123941.538   -27620987.872 7 -21356403.30823
 91  4 24 23 32 29.9950000  0  4G13G 2G15G 6
  19986425.273   -16172392.810 6 -12275229.74121
  19528964.8984    -618997.19747   -470085.19764
  22287816.218    -4815342.263 6  -3700348.53521
  19120313.593   -27640062.370 7 -21371266.53624
 91  4 24 23 32 44.9950000  0  4G13G 2G15G 6
  19976653.163   -16223760.664 6 -12315256.53821
  19529155.5854    -618000.79547   -469308.78064
  22286954.3744   -4819868.40346  -3703875.34761
  19116700.148   -27659047.191 7 -21386059.88723
 91  4 24 23 32 59.9950000  0  4G13G 2G15G 6
  19966899.702   -16275013.717 6 -12355193.87621
  19529354.0694    -616960.25347   -468497.96564
  22286120.140    -4824257.339 6  -3707295.24221
  19113105.062   -27677938.581 7 -21400780.43623
 91  4 24 23 33 14.9950000  0  4G13G 2G15G 6
  19957168.148   -16326150.740 6 -12395040.79421
  19529559.8124    -615874.49347   -467651.92164
  22285311.7334   -4828508.04846  -3710607.42461
  19109527.101   -27696735.210 7 -21415427.14723
 91  4 24 23 33 29.9950000  0  4G13G 2G15G 6
  19947458.0624  -16377170.52746 -12434796.37361
  19529774.6164    -614742.82447   -466770.11164
  22284526.866    -4832619.880 6  -3713811.40221
  19105970.054   -27715436.015 7 -21429999.18823
 91  4 24 23 33 44.9950000  0  4G13G 2G15G 6
  19937771.6084  -16428079.67646 -12474465.73861
  19529997.8354    -613572.23847   -465857.96864
  22283766.1164   -4836599.75946  -3716912.53961
  19102427.538   -27734047.757 7 -21444501.82023
 91  4 24 23 33 59.9950000  0  4G13G 2G15G 6
  19928107.991   -16478874.977 6 -12514046.38821
  19530231.1084    -612359.81147   -464913.22264
  22283034.616    -4840444.822 5  -3719908.65621
  19098904.413   -27752567.256 7 -21458932.57623
 91  4 24 23 34 14.9950000  0  4G13G 2G15G 6
  19918464.2104  -16529549.63346 -12553533.03161
  19530470.7574    -611099.14547   -463930.88564
  22282335.780    -4844148.498 5  -3722794.57921
  19095397.843   -27770987.870 7 -21473286.28223
 91  4 24 23 34 29.9950000  0  4G13G 2G15G 6
  19908840.507   -16580104.975 7 -12592926.70221
  19530715.6634    -609791.79747   -462912.17064
  22281656.741    -4847712.304 5  -3725571.52221
  19091911.218   -27789310.681 7 -21487563.77823
 91  4 24 23 34 44.9950000  0  4G13G 2G15G 6
  19899246.280   -16630544.015 7 -12632229.75121
  19530974.4374    -608440.89647   -461859.51364
  22281005.2184   -4851139.49345  -3728242.00661
  19088441.718   -27807538.806 7 -21501767.49123
 91  4 24 23 34 59.9950000  0  4G13G 2G15G 6
  19889669.515   -16680872.116 7 -12671446.35321
  19531241.4214    -607052.13347   -460777.36564
  22280379.702    -4854435.550 5  -3730810.30721
  19084989.085   -27825677.544 7 -21515901.55923
 91  4 24 23 35 14.9950000  0  4G13G 2G15G 6
  19880112.5544  -16731080.62646 -12710569.76561
  19531511.6874    -605617.10147   -459659.16064
  22279775.679    -4857592.092 5  -3733269.90821
  19081561.124   -27843718.365 7 -21529959.32523
 91  4 24 23 35 29.9950000  0  4G13G 2G15G 6
  19870582.757   -16781164.217 7 -12749595.84221
  19531796.5544    -604130.77448   -458500.98864
  22279209.116    -4860604.043 5  -3735616.84021
  19078143.280   -27861656.013 7 -21543936.70123
 91  4 24 23 35 44.9950000  0  4G13G 2G15G 6
  19861073.749   -16831133.436 7 -12788532.79221
  19532084.5624    -602603.78348   -457311.12764
  22278659.562    -4863482.111 5  -3737859.44621
  19074746.749   -27879500.875 7 -21557841.76823
 91  4 24 23 35 59.9950000  0  4G13G 2G15G 6
  19851588.2964  -16880985.09147 -12827378.13461
  19532386.4054    -601033.50748   -456087.53464
  22278136.8044   -4866223.46945  -3739995.54561
  19071371.405   -27897249.990 7 -21571672.23223
 91  4 24 23 36 14.9950000  0  4G13G 2G15G 6
  19842122.1324  -16930724.32647 -12866135.88661
  19532693.1874    -599425.23948   -454834.33964
  22277629.796    -4868833.481 5  -3742029.27421
  19068009.913   -27914908.320 7 -21585431.95823
 91  4 24 23 36 29.9950000  0  4G13G 2G15G 6
  19832680.874   -16980335.303 7 -12904793.68921
  19533006.6084    -597763.57248   -453539.53264
  22277166.2334   -4871296.50645  -3743948.49061
  19064674.491   -27932460.218 7 -21599108.73823
 91  4 24 23 36 44.9950000  0  4G13G 2G15G 6
  19823265.1404  -17029827.17847 -12943358.68861
  19533332.6554    -596057.56448   -452210.17564
  22276721.640    -4873621.916 5  -3745760.45421
  19061349.319   -27949914.595 7 -21612709.53623
 91  4 24 23 36 59.9950000  0  4G13G 2G15G 6
  19813867.8584  -17079204.50047 -12981834.43361
  19533664.1014    -594312.32348   -450850.23664
  22276303.999    -4875814.879 5  -3747469.23421
  19058045.507   -27967276.214 7 -21626238.05723
 91  4 24 23 37 14.9950000  0  4G13G 2G15G 6
  19804496.3124  -17128462.51347 -13020217.20361
  19534003.8824    -592523.34148   -449456.22364
  22275921.733    -4877870.641 6  -3749071.07621
  19054761.921   -27984540.444 7 -21639690.68623
 91  4 24 23 37 29.9950000  0  4G13G 2G15G 6
  19795143.2804  -17177600.65247 -13058506.56561
  19534354.655     -590690.196 8   -448027.78624
  22275553.4054   -4879788.86946  -3750565.78561
  19051491.593   -28001706.557 7 -21653066.86123
 91  4 24 23 37 44.9950000  0  4G13G 2G15G 6
  19785813.7104  -17226617.03147 -13096701.05561
  19534711.624     -588811.228 8   -446563.64824
  22275213.655    -4881567.847 6  -3751951.98521
  19048246.358   -28018772.678 7 -21666365.12023
 91  4 24 23 37 59.9950000  0  4G13G 2G15G 6
  19776508.6014  -17275518.48247 -13134805.98961
  19535074.8514    -586893.63048   -445069.40964
  22274903.273    -4883214.632 6  -3753235.13521
  19045017.108   -28035745.672 7 -21679590.81323
 91  4 24 23 38 14.9950000  0  4G13G 2G15G 6
  19767227.0774  -17324301.87047 -13172818.92361
  19535449.4524    -584934.50848   -443542.81464
  22274609.9054   -4884726.28745  -3754413.02261
  19041804.726   -28052622.359 7 -21692741.46423
 91  4 24 23 38 29.9950000  0  4G13G 2G15G 6
  19757965.6404  -17372960.95547 -13210734.99661
  19535832.1084    -582927.98948   -441979.28564
  22274347.280    -4886097.033 5  -3755481.10521
  19038613.319   -28069396.694 7 -21705812.36423
 91  4 24 23 38 44.9950000  0  4G13G 2G15G 6
  19748730.398   -17421496.439 7 -13248554.76621
  19536222.265     -580874.920 8   -440379.48224
  22274117.796    -4887327.675 5  -3756440.01221
  19035438.960   -28086069.320 7 -21718804.00423
 91  4 24 23 38 59.9950000  0  4G13G 2G15G 6
  19739518.210   -17469911.612 7 -13286280.77521
  19536620.437     -578778.682 8   -438746.04124
  22273911.7964   -4888421.67945  -3757292.45461
  19032285.046   -28102643.271 7 -21731718.75524
 91  4 24 23 39 14.9950000  0  4G13G 2G15G 6
  19730325.0854  -17518204.89047 -13323911.80261
  19537028.8664    -576638.11748   -437078.05864
  22273725.7804   -4889377.99545  -3758037.59561
  19029150.374   -28119117.179 7 -21744555.55223
 91  4 24 23 39 29.9950000  0  4G13G 2G15G 6
  19721160.3124  -17566375.66547 -13361447.38261
  19537443.351     -574452.870 8   -435375.25224
  22273569.1484   -4890196.08045  -3758675.02261
  19026036.507   -28135490.450 7 -21757313.93023
 91  4 24 23 39 44.9950000  0  4G13G 2G15G 6
  19712016.2414  -17614424.16447 -13398887.68461
  19537867.8354    -572223.53548   -433638.10164
  22273437.913    -4890876.366 5  -3759205.06921
  19022938.624   -28151763.381 7 -21769994.12223
 91  4 24 23 39 59.9950000  0  4G13G 2G15G 6
  19702899.0774  -17662348.30447 -13436231.08361
  19538301.3984    -569948.07348   -431865.01264
  22273341.5464   -4891417.51045  -3759626.69761
  19019861.812   -28167933.934 7 -21782594.54123
 91  4 24 23 40 14.9950000  0  4G13G 2G15G 6
  19693801.0154  -17710149.44447 -13473478.63961
  19538743.3904    -567628.00248   -430057.16264
  22273264.804    -4891820.520 5  -3759940.72121
  19016802.944   -28184003.270 7 -21795116.08323
 91  4 24 23 40 29.9950000  0  4G13G 2G15G 6
  19684727.7024  -17757833.29147 -13510634.79161
  19539190.9524    -565269.23948   -428219.16264
  22273209.468    -4892091.316 5  -3760151.68121
  19013765.983   -28199977.050 7 -21807563.17423
 91  4 24 23 40 44.9950000  0  4G13G 2G15G 6
  19675676.1554  -17805398.15247 -13547698.22861
  19539647.0694    -562870.58548   -426350.07364
  22273179.1714   -4892228.73845
  19010742.2574  -28215853.89847 -21819934.73663
 91  4 24 23 40 59.9950000  0  4G13G 2G15G 6
  19666646.9684  -17852834.74847 -13584661.71961
  19540112.9764    -560422.94848   -424442.81364
  22273185.2964   -4892223.70245
  19007740.2804  -28231624.43047 -21832223.44963
 91  4 24 23 41 14.9950000  0  4G13G 2G15G 6
  19657646.9374  -17900143.34847 -13621525.46861
  19540588.6164    -557926.98148   -422497.90264
  22273206.944    -4892076.645 5
  19004759.3044  -28247288.87547 -21844429.49963
 91  4 24 23 41 29.9950000  0  4G13G 2G15G 6
  19648668.4994  -17947328.57647 -13658293.09561
  19541071.5234    -555387.57648   -420519.14164
  22273273.4294   -4891792.63145
  19001801.343   -28262851.948 7 -21856556.55723
 91  4 24 23 41 44.9950000  0  4G13G 2G15G 6
  19639708.9604  -17994396.21047 -13694969.07661
  19541561.8434    -552810.57548   -418511.08664
  22273347.132    -4891377.775 5  -3759595.53121
  18998855.3044  -28278319.20647 -21868608.95563
 91  4 24 23 41 59.9950000  0  4G13G 2G15G 6
  19630778.0074  -18041341.65347 -13731549.85761
  19542061.1554    -550191.70148   -416470.40064
  22273450.593    -4890827.498 5  -3759166.73421
  18995930.163   -28293686.370 7 -21880583.35123
 91  4 24 23 42 14.9950000  0  4G13G 2G15G 6
  19621869.593   -18088155.473 7 -13768028.07821
  19542568.3124    -547522.00548   -414390.11964
  22273585.2264   -4890132.93045  -3758625.46461
  18993029.788   -28308944.030 7 -21892472.42623
 91  4 24 23 42 29.9950000  0  4G13G 2G15G 6
  19612987.7024  -18134846.02047 -13804410.23061
  19543087.0544    -544809.75948   -412276.68164
  22273739.460    -4889302.567 5  -3757978.43321
  18990145.2264  -28324100.44447 -21904282.60563
 91  4 24 23 42 44.9950000  0  4G13G 2G15G 6
  19604122.788   -18181408.682 7 -13840692.74221
  19543608.7104    -542050.59748   -410126.68464
  22273924.3984   -4888331.88845  -3757222.04961
  18987280.163   -28339150.798 7 -21916010.13823
 91  4 24 23 42 59.9950000  0  4G13G 2G15G 6
  19595286.4134  -18227850.06247 -13876880.74261
  19544142.9294    -539251.32348   -407945.42864
  22274136.288    -4887227.594 6  -3756361.54921
  18984433.218   -28354101.745 7 -21927660.21623
 91  4 24 23 43 14.9950000  0  4G13G 2G15G 6
  19586470.7734  -18274166.53847 -13912971.41761
  19544683.0774    -536408.36448   -405730.13464
  22274371.2184   -4885986.47746  -3755394.43461
  18981608.140   -28368949.716 7 -21939230.04823
 91  4 24 23 43 29.9950000  0  4G13G 2G15G 6
  19577681.5234  -18320359.31347 -13948965.70061
  19545233.1794    -533523.46948   -403482.16264
  22274634.7494   -4884610.11546  -3754321.94061
  18978802.843   -28383696.011 7 -21950720.65523
 91  4 24 23 43 44.9950000  0  4G13G 2G15G 6
  19568915.593   -18366424.681 7 -13984860.70821
  19545790.3584    -530592.89848   -401198.59864
  22274920.835    -4883095.016 6  -3753141.32321
  18976017.054   -28398336.685 7 -21962128.95923
 91  4 24 23 43 59.9950000  0  4G13G 2G15G 6
  19560173.4214  -18412367.48347 -14020660.21361
  19546353.5624    -527621.95648   -398883.58164
  22275239.163    -4881446.203 6  -3751856.51421
  18973248.4834  -28412876.81047 -21973458.91263
 91  4 24 23 44 14.9950000  0  4G13G 2G15G 6
  19551452.780   -18458183.313 7 -14056360.77421
  19546930.2104    -524606.31248   -396533.73164
  22275579.913    -4879659.687 6  -3750464.41421
  18970502.226   -28427311.895 7 -21984707.02023
 91  4 24 23 44 29.9950000  0  4G13G 2G15G 6
  19542761.5384  -18503869.66547 -14091960.43961
  19547508.4834    -521543.47148   -394147.10264
  22275943.6084   -4877732.84545  -3748962.97161
  18967776.273   -28441639.147 7 -21995871.10023
 91  4 24 23 44 44.9950000  0  4G13G 2G15G 6
  19534090.788   -18549424.180 7 -14127457.38121
  19548103.2414    -518431.37948   -391722.09464
  22276332.835    -4875663.553 5  -3747350.52021
  18965071.991   -28455856.443 7 -22006949.50023
 91  4 24 23 44 59.9940000  0  4G13G 2G15G 6
  19525448.502   -18594844.866 7 -14162850.03921
  19548703.7834    -515271.66148   -389259.98264
  22276755.9554   -4873453.50045  -3745628.37361
  18962386.7444  -28469963.95847 -22017942.35263
 91  4 24 23 45 14.9940000  0  4G13G 2G15G 6
  19516827.065   -18640145.315 7 -14198149.00321
  19549315.7524    -512071.85848   -386766.63164
  22277203.7834   -4871110.34745  -3743802.50161
  18959723.150   -28483971.132 7 -22028857.02023
 91  4 24 23 45 29.9940000  0  4G13G 2G15G 6
  19508227.275   -18685320.790 7 -14233350.59321
  19549931.9474    -508830.64148   -384241.00664
  22277671.5574   -4868632.78145  -3741871.90061
  18957076.869   -28497875.259 7 -22039691.38823
 91  4 24 23 45 44.9940000  0  4G13G 2G15G 6
  19499658.9864  -18730363.70247 -14268448.88261
  19550556.4864    -505540.36547   -381677.15664
  22278168.5654   -4866013.46745  -3739830.85961
  18954451.385   -28511668.676 7 -22050439.48923
 91  4 24 23 45 59.9940000  0  4G13G 2G15G 6
  19491114.8154  -18775277.85047 -14303446.82961
  19551190.0964    -502205.37147   -379078.46464
  22278699.244    -4863256.475 5  -3737682.50921
  18951847.455   -28525355.360 7 -22061104.42323
 91  4 24 23 46 14.9940000  0  4G13G 2G15G 6
  19482587.088   -18820067.709 7 -14338347.93721
  19551833.0804    -498830.06048   -376448.34764
  22279247.979    -4860366.397 5  -3735430.48721
  18949261.588   -28538939.474 7 -22071689.43023
 91  4 24 23 46 29.9940000  0  4G13G 2G15G 6
  19474090.315   -18864732.339 7 -14373151.46521
  19552485.0804    -495413.82348   -373786.34464
  22279823.1194   -4857342.62845  -3733074.27561
  18946696.440   -28552420.259 7 -22082193.91923
 91  4 24 23 46 44.9940000  0  4G13G 2G15G 6
  19465615.236   -18909267.268 7 -14407853.92421
  19553143.8694    -491952.26448   -371089.02664
  22280424.0184   -4854180.85546  -3730610.54161
  18944149.822   -28565793.223 7 -22092614.39423
 91  4 24 23 46 59.9940000  0  4G13G 2G15G 6
  19457163.143   -18953669.623 7 -14442453.08321
  19553811.6504    -488442.89448   -368354.45864
  22281053.4244   -4850878.59845  -3728037.30861
  18941627.658   -28579055.460 7 -22102948.59123
 91  4 24 23 47 14.9940000  0  4G13G 2G15G 6
  19448740.9244  -18997943.95547 -14476952.47161
  19554487.1504    -484890.28448
  22281709.057    -4847440.088 5
  18939123.580   -28592211.377 7 -22113199.93423
 91  4 24 23 47 29.9940000  0  4G13G 2G15G 6
  19440337.846   -19042091.172 7 -14511352.83121
  19555169.5334    -481295.57848
  22282390.932    -4843866.944 5
  18936639.479   -28605261.951 7 -22123369.19623
 91  4 24 23 47 44.9940000  0  4G13G 2G15G 6
  19431962.986   -19086108.344 7 -14545651.84221
  19555864.0804    -477656.11248   -359949.17264
  22283092.838    -4840156.344 5  -3719682.26921
  18934177.041   -28618204.256 7 -22133454.09223
 91  4 24 23 47 59.9940000  0  4G13G 2G15G 6
  19423614.557   -19129993.907 7 -14579848.30321
  19556562.5334    -473970.38348   -357077.17264
  22283826.229    -4836307.180 5  -3716682.89721
  18931736.861   -28631036.657 7 -22143453.34323
 91  4 24 23 48 14.9940000  0  4G13G 2G15G 6
  19415283.666   -19173752.806 7 -14613946.07122
  19557275.0574    -470243.50048   -354173.10764
  22284581.5494   -4832324.59945  -3713579.57761
  18929313.885   -28643764.061 7 -22153370.78323
 91  4 24 23 48 29.9940000  0  4G13G 2G15G 6
  19406981.455   -19217381.023 7 -14647941.99821
  19557991.4714    -466471.81648   -351234.13964
  22285364.4324   -4828204.90545  -3710369.40161
  18926912.455   -28656382.523 7 -22163203.33323
 91  4 24 23 48 44.9940000  0  4G13G 2G15G 6
  19398705.455   -19260880.673 7 -14681837.75121
  19558716.6504    -462657.47748   -348261.92664
  22286170.1904   -4823950.45045  -3707054.19861
  18924532.877   -28668894.000 7 -22172952.51423
 91  4 24 23 48 59.9940000  0  4G13G 2G15G 6
  19390451.924   -19304245.297 7 -14715628.29622
  19559453.0804    -458794.34248   -345251.69764
  22287008.8774   -4819555.12945  -3703629.28761
  18922170.182   -28681292.241 7 -22182613.46723
 91  4 24 23 49 14.9940000  0  4G13G 2G15G 6
  19382225.9404  -19347483.63047 -14749320.41861
  19560193.8774    -454891.46948   -342210.50164
  22287868.244    -4815027.751 5  -3700101.43421
  18919833.674   -28693585.972 7 -22192192.98023
 91  4 24 23 49 29.9940000  0  4G13G 2G15G 6
  19374023.658   -19390591.543 7 -14782910.92122
  19560948.1664    -450944.97148   -339135.31264
  22288759.900    -4810364.707 5  -3696467.87721
  18917512.494   -28705770.984 7 -22201687.77823
 91  4 24 23 49 44.9940000  0  4G13G 2G15G 6
  19365843.955   -19433567.074 7 -14816398.26822
  19561705.7364    -446952.62048   -336024.39364
  22289669.166    -4805563.993 5  -3692727.02721
  18915216.315   -28717844.978 7 -22211096.06723
 91  4 24 23 49 59.9940000  0  4G13G 2G15G 6
  19357689.408   -19476408.824 7 -14849781.37522
  19562472.1434    -442913.48048   -332877.01264
  22290614.0654   -4800624.53345  -3688878.07761
  18912940.721   -28729806.711 7 -22220416.87923
 91  4 24 23 50 14.9940000  0  4G13G 2G15G 6
  19349563.299   -19519116.619 7 -14883060.09922
  19563251.7754    -438827.41047   -329693.06464
  22291583.5254   -4795546.34045  -3684921.02561
  18910685.346   -28741656.080 7 -22229650.13423
 91  4 24 23 50 29.9940000  0  4G13G 2G15G 6
  19341462.486   -19561695.841 7 -14916238.63622
  19564038.5724    -434700.17147   -326477.03764
  22292572.3854   -4790335.19845  -3680860.34961
  18908452.775   -28753398.543 7 -22238800.09023
 91  4 24 23 50 44.9940000  0  4G13G 2G15G 6
  19333383.627   -19604141.540 7 -14949313.13622
  19564831.0334    -430526.92647   -323225.15664
  22293586.7994   -4784986.61145  -3676692.60061
  18906236.307   -28765029.062 7 -22247862.81723
 91  4 24 23 50 59.9940000  0  4G13G 2G15G 6
  19325333.869   -19646453.629 7 -14982283.51822
  19565633.9794    -426307.82748   -319937.54764
  22294635.7134   -4779500.53845  -3672417.70261
  18904042.5024  -28776547.49347 -22256838.21163
 91  4 24 23 51 14.9940000  0  4G13G 2G15G 6
  19317305.705   -19688630.764 7 -15015148.74122
  19566446.4794    -422041.70248   -316613.28964
  22295706.7294   -4773875.82145  -3668034.77661
  18901875.143   -28787952.618 7 -22265725.31023
 91  4 24 23 51 29.9940000  0  4G13G 2G15G 6
  19309306.182   -19730673.909 7 -15047909.55522
  19567268.2214    -417729.62548   -313253.22764
  22296805.4244   -4768113.55645  -3663544.68861
  18899727.322   -28799245.129 7 -22274524.65423
 91  4 24 23 51 44.9940000  0  4G13G 2G15G 6
  19301328.049   -19772589.413 7 -15080570.90822
  19568093.3614    -413378.06548   -309862.39664
  22297926.6044   -4762220.43345  -3658952.59361
  18897597.8934  -28810431.24847 -22283241.10063
 91  4 24 23 51 59.9940000  0  4G13G 2G15G 6
  19293377.377   -19814373.650 7 -15113129.98322
  19568931.0334    -408983.64348   -306438.16864
  22299073.4864   -4756193.25145  -3654256.06661
  18895490.5964  -28821507.61147 -22291872.02463
 91  4 24 23 52 14.9940000  0  4G13G 2G15G 6
  19285450.182   -19856028.979 7 -15145588.60422
  19569772.3934    -404549.05648   -302982.64864
  22300247.1504   -4750034.88245  -3649457.30761
  18893402.2294  -28832476.59147 -22300419.27463
 91  4 24 23 52 29.9940000  0  4G13G 2G15G 6
  19277549.150   -19897549.359 7 -15177942.07022
  19570625.6744    -400068.38248   -299491.21164
  22301442.2134   -4743739.17745  -3644551.52461
  18891335.4474  -28843332.00347 -22308878.02863
 91  4 24 23 52 44.9940000  0  4G13G 2G15G 6
  19269673.963   -19938930.221 7 -15210186.82022
  19571491.3384    -395537.21548   -295960.43464
  22302660.4634   -4737301.87545  -3639535.41561
  18889292.2214  -28854069.28147 -22317244.72963
 91  4 24 23 52 59.9940000  0  4G13G 2G15G 6
  19261825.049   -19980178.786 7 -15242328.48422
  19572361.6974    -390962.68948   -292395.86364
  22303917.5884   -4730730.62545  -3634414.94461
  18887270.1354  -28864695.56847 -22325524.94563
 91  4 24 23 53 14.9940000  0  4G13G 2G15G 6
  19254001.197   -20021295.712 7 -15274367.57622
  19573239.1744    -386345.70648   -288798.21164
  22305196.1584   -4724026.26645  -3629190.74661
  18885270.5184  -28875211.51447 -22333719.17863
 91  4 24 23 53 29.9940000  0  4G13G 2G15G 6
  19246202.893   -20062278.221 7 -15306301.91822
  19574125.6274    -381683.57648   -285165.37964
  22306490.760    -4717186.244 5  -3623860.84821
  18883291.4714  -28885614.31947 -22341825.25363
 91  4 24 23 53 44.9940000  0  4G13G 2G15G 6
  19238430.354   -20103133.553 7 -15338137.17022
  19575018.1354    -376983.73847   -281503.16364
  22307821.400    -4710218.033 5  -3618431.04921
  18881332.4244  -28895911.00047 -22349848.63763
 91  4 24 23 53 59.9940000  0  4G13G 2G15G 6
  19230680.229   -20143856.210 7 -15369869.03622
  19575925.1114    -372240.86548   -277807.42364
  22309166.1824   -4703116.23445  -3612897.13961
  18879392.6194  -28906096.12247 -22357785.09463
 91  4 24 23 54 14.9940000  0  4G13G 2G15G 6
  19222955.8224  -20184442.15047 -15401494.37662
  19576832.9714    -367451.49847   -274075.45064
  22310544.846    -4695877.324 5  -3607256.41321
  18877477.3854  -28916165.98847 -22365631.73563
 91  4 24 23 54 29.9940000  0  4G13G 2G15G 6
  19215257.557   -20224892.907 7 -15433014.37022
  19577756.0804    -362616.96748   -270308.28664
  22311946.369    -4688503.327 5  -3601510.41321
  18875582.7684  -28926121.82447 -22373389.52563
 91  4 24 23 54 44.9940000  0  4G13G 2G15G 6
  19207588.025   -20265204.346 7 -15464425.80722
  19578685.7914    -357733.07148   -266502.65864
  22313378.3614   -4680989.80445  -3595655.69761
  18873708.4944  -28935959.37847 -22381055.15163
 91  4 24 23 54 59.9940000  0  4G13G 2G15G 6
  19199939.182   -20305384.555 7 -15495734.98822
  19579620.7684    -352808.31248   -262665.18764
  22314832.1194   -4673345.41745  -3589699.00161
  18871859.6354  -28945686.65947 -22388634.84463
 91  4 24 23 55 14.9940000  0  4G13G 2G15G 6
  19192318.244   -20345430.978 7 -15526939.92522
  19580568.0334    -347840.76448   -258794.37764
  22316315.088    -4665568.192 5  -3583638.80521
  18870030.2754  -28955301.58447 -22396126.99363
 91  4 24 23 55 29.9940000  0  4G13G 2G15G 6
  19184725.658   -20385341.352 7 -15558038.84322
  19581517.5574    -342827.73748   -254888.12564
  22317825.6354   -4657655.53545  -3577473.06761
  18868221.3074  -28964801.40247 -22403529.44363
 91  4 24 23 55 44.9940000  0  4G13G 2G15G 6
  19177159.158   -20425112.929 7 -15589029.61222
  19582483.3224    -337766.37348   -250944.20564
  22319352.541    -4649604.995 5  -3571199.90921
  18866437.8854  -28974183.17547 -22410839.90963
 91  4 24 23 55 59.9940000  0  4G13G 2G15G 6
  19169612.713   -20464752.913 7 -15619917.84222
  19583454.9244    -332664.53648   -246968.75064
  22320914.947    -4641424.327 5  -3564825.32821
  18864671.5724  -28983454.34647 -22418064.19363
 91  4 24 23 56 14.9940000  0  4G13G 2G15G 6
  19162096.8854  -20504254.81647 -15650698.47562
  19584433.9324    -327515.68948   -242956.66864
  22322493.158    -4633107.242 5  -3558344.43521
  18862929.2214  -28992608.31847 -22425197.14963
 91  4 24 23 56 29.9940000  0  4G13G 2G15G 6
  19154604.8224  -20543622.65247 -15681374.63962
  19585423.4794    -322323.94248   -238911.15364
  22324099.088    -4624658.130 5  -3551760.69121
  18861209.9634  -29001649.08847 -22432241.90663
 91  4 24 23 56 44.9940000  0  4G13G 2G15G 6
  19147139.6434  -20582852.60247 -15711943.36262
  19586418.6194    -317085.55448   -234829.30364
  22325735.861    -4616073.046 5  -3545070.99821
  18859512.9004  -29010572.71147 -22439195.36963
 91  4 24 23 56 59.9940000  0  4G13G 2G15G 6
  19139701.018   -20621946.961 7 -15742406.43222
  19587425.3154    -311803.05848   -230713.08564
  22327396.190    -4607354.914 5  -3538277.61721
  18857835.5494  -29019381.52047 -22446059.37363
 91  4 24 23 57 14.9940000  0  4G13G 2G15G 6
  19132287.1504  -20660906.55247 -15772764.48462
  19588439.0494    -306477.60448   -226563.38464
  22329081.8384   -4598504.68745  -3531381.29161
  18856179.9164  -29028076.37247 -22452834.57663
 91  4 24 23 57 29.9940000  0  4G13G 2G15G 6
  19124899.1744  -20699735.91447 -15803021.06562
  19589457.1114    -301113.56748   -222383.62764
  22330792.6664   -4589527.05445  -3524385.71761
  18854545.7684  -29036661.73047 -22459524.45763
 91  4 24 23 57 44.9940000  0  4G13G 2G15G 6
  19117535.9474  -20738424.96347 -15833168.31062
  19590487.1434    -295700.93348   -218165.99964
  22332522.4084   -4580412.32445  -3517283.29461
  18852935.0254  -29045127.36747 -22466121.05563
 91  4 24 23 57 59.9940000  0  4G13G 2G15G 6
  19110201.1824  -20776970.50447 -15863203.72862
  19591526.9084    -290236.66748   -213908.13564
  22334280.6504   -4571157.46445  -3510071.67961
  18851348.6974  -29053470.07347 -22472621.85863
 91  4 24 23 58 14.9940000  0  4G13G 2G15G 6
  19102890.3694  -20815381.26747 -15893134.12762
  19592574.221     -284729.842 8   -209617.11824
  22336061.955    -4561771.648 5  -3502758.03721
  18849780.9404  -29061698.60847 -22479033.69763
 91  4 24 23 58 29.9940000  0  4G13G 2G15G 6
  19095609.1744  -20853649.25447 -15922953.26862
  19593637.1114    -279172.56348   -205286.77664
  22337882.7834   -4552247.14845  -3495336.32261
  18848241.2684  -29069804.88447 -22485350.27763
 91  4 24 23 58 44.9940000  0  4G13G 2G15G 6
  19088353.0574  -20891782.03947 -15952667.06562
  19594699.760     -273572.727 7   -200923.28023
  22339712.221    -4542591.829 5  -3487812.69221
  18846717.1434  -29077796.54947 -22491577.54463
 91  4 24 23 58 59.9940000  0  4G13G 2G15G 6
  19081122.5334  -20929779.07547 -15982275.08062
  19595773.6434    -267929.63847   -196526.06863
  22341575.932    -4532805.197 5  -3480186.70121
  18845219.7444  -29085672.86447 -22497714.93163
 91  4 24 23 59 14.9940000  0  4G13G 2G15G 6
  19073919.6664  -20967638.46847 -16011775.84062
  19596853.6974    -262241.50047   -192093.75963
  22343466.260    -4522885.556 5  -3472457.08521
  18843745.1194  -29093431.89647 -22503760.92763
 91  4 24 23 59 29.9940000  0  4G13G 2G15G 6
  19066738.0654  -21005363.48547 -16041171.89962
  19597942.7604    -256511.61747   -187628.92463
  22345381.0964   -4512836.51545  -3464626.61561
  18842290.8854  -29101076.80747 -22509717.99663
 91  4 24 23 59 44.9940000  0  4G13G 2G15G 6
  19059585.6354  -21042947.98847 -16070458.46062
  19599045.1664    -250734.22447   -183127.06163
  22347316.7914   -4502652.43045  -3456690.95661
  18840858.8774  -29108601.59447 -22515581.46163
 91  4 24 23 59 59.9940000  0  4G13G 2G15G 6
  19052459.0024  -21080396.07447 -16099638.73062
  19600153.0494    -244913.50947   -178591.44563
  22349279.5254   -4492337.42245  -3448653.28061
  18839449.9944  -29116010.43047 -22521354.57863
 91  4 25  0  0 14.9940000  0  4G13G 2G15G 6
  19045360.9324  -21117705.77847 -16128711.16662
  19601267.8074    -239047.49947   -174020.53763
  22351268.8694   -4481889.88945  -3440512.35761
  18838061.2444  -29123301.03647 -22527035.56463
 91  4 25  0  0 29.9940000  0  4G13G 2G15G 6
  19038286.4944  -21154875.91047 -16157674.83762
  19602392.8774    -233135.32247   -169413.64563
  22353282.4714   -4471308.94045  -3432267.44761
  18836695.7994  -29130472.44347 -22532623.67463
 91  4 25  0  0 44.9940000  0  4G13G 2G15G 6
  19031239.9554  -21191904.89847 -16186528.53462
  19603527.5334    -227175.30547   -164769.48663
  22355324.158    -4460592.893 5  -3423917.24921
  18835354.7754  -29137522.51747 -22538117.23163
 91  4 25  0  0 59.9940000  0  4G13G 2G15G 6
  19024219.5334  -21228798.17947 -16215276.49062
  19604671.0104    -221173.06947   -160092.42863
  22357385.0414   -4449747.78645  -3415466.50661
  18834033.1504  -29144457.07947 -22543520.78663
 91  4 25  0  1 14.9940000  0  4G13G 2G15G 6
  19017227.3614  -21265554.43247 -16243917.66062
  19605822.2604    -215127.26047   -155381.41263
  22359475.080    -4438772.457 5  -3406914.30621
  18832739.3614  -29151274.55347 -22548833.09963
 91  4 25  0  1 29.9940000  0  4G13G 2G15G 6
  19010255.7834  -21302176.00347 -16272453.89362
  19606979.6824    -209040.40347   -150638.41563
  22361585.8074   -4427669.40845  -3398262.58361
  18831460.3854  -29157977.48347 -22554056.15863
 91  4 25  0  1 44.9940000  0  4G13G 2G15G 6
  19003313.9244  -21338654.81847 -16300878.88462
  19608146.213     -202904.646 7   -145857.31924
  22363727.2604   -4416430.71645  -3389505.14861
  18830209.0334  -29164557.53847 -22559183.47463
 91  4 25  0  1 59.9940000  0  4G13G 2G15G 6
  18996400.7994  -21374996.43347 -16329196.96362
  19609322.6194    -196725.59047   -141042.48264
  22365887.8464   -4405062.33245  -3380646.66961
  18828981.4084  -29171020.15147 -22564219.27163
 91  4 25  0  2 14.9940000  0  4G13G 2G15G 6
  18989508.5574  -21411200.72547 -16357408.04062
  19610504.5654    -190503.13447   -136193.82064
  22368070.854    -4393564.628 5  -3371687.39021
  18827772.0724  -29177365.39947 -22569163.61963
 91  4 25  0  2 29.9940000  0  3G13G 2G 6
  18982646.3464  -21447269.38247 -16385513.42562
  19611698.6974    -184239.01247   -131312.69264
  18826586.3854  -29183594.73147 -22574017.64463
 91  4 25  0  2 44.9940000  0  3G13G 2G 6
  18975809.6904  -21483197.35447 -16413509.19562
  19612899.7364    -177928.61447   -126395.50963
  18825424.2754  -29189703.31947 -22578777.57963
 91  4 25  0  2 59.9940000  0  3G13G 2G 6
  18968998.6824  -21518982.54047 -16441393.69662
  19614109.4944    -171569.64647   -121440.47363
  18824285.5804  -29195688.69047 -22583441.50463
 91  4 25  0  3 14.9940000  0  3G13G 2G 6
  18962214.9714  -21554632.02347 -16469172.45462
  19615325.3304    -165169.26347   -116453.16664
  18823168.1274  -29201557.95347 -22588014.96263
 91  4 25  0  3 29.9940000  0  3G13G 2G 6
  18955460.947   -21590141.497 7 -16496842.11822
  19616554.3304    -158723.45747   -111430.47063
  18822073.6664  -29207306.95647 -22592494.70663
 91  4 25  0  3 44.9940000  0  3G13G 2G 6
  18948728.1664  -21625506.00747 -16524398.82062
  19617790.4244    -152227.36347   -106368.58363
  18821004.4714  -29212930.57947 -22596876.74963
 91  4 25  0  3 59.9940000  0  3G13G 2G 6
  18942026.4864  -21660735.39647 -16551850.23462
  19619033.7684    -145690.73547   -101275.11163
  18819956.2214  -29218438.55347 -22601168.67663
 91  4 25  0  4 14.9940000  0  3G13G 2G 6
  18935346.6274  -21695828.27547 -16579195.27862
  19620284.7914    -139112.25247    -96149.02263
  18818932.4164  -29223829.40547 -22605369.34663
 91  4 25  0  4 29.9940000  0  3G13G 2G 6
  18928694.3934  -21730782.31947 -16606432.13462
  19621547.6744    -132489.86847    -90988.73063
  18817927.0804  -29229100.93247 -22609477.03063
 91  4 25  0  4 44.9940000  0  3G13G 2G 6
  18922068.252   -21765601.966 7 -16633564.27422
  19622813.2604    -125827.88447    -85797.58163
  18816945.9554  -29234257.32447 -22613494.99663
 91  4 25  0  4 59.9940000  0  3G13G 2G 6
  18915471.6974  -21800276.99847 -16660583.72162
  19624090.6904    -119116.28647    -80567.76363
  18815989.6274  -29239288.25447 -22617415.19963
 91  4 25  0  5 14.9940000  0  3G13G 2G 6
  18908897.369   -21834813.759 7 -16687495.43122
  19625376.4164    -112361.74147    -75304.48763
  18815053.2754  -29244200.26547 -22621242.74063
 91  4 25  0  5 29.9940000  0  3G13G 2G 6
  18902354.065   -21869202.387 7 -16714291.70522
  19626670.4404    -105554.13347    -69999.86263
  18814143.6044  -29248983.40547 -22624969.85363
 91  4 25  0  5 44.9940000  0  3G13G 2G 6
  18895837.119   -21903444.498 7 -16740973.81422
  19627977.2294     -98695.19547    -64655.24263
  18813256.2604  -29253639.00947 -22628597.59763
 91  4 25  0  5 59.9940000  0  3G13G 2G 6
  18889347.815   -21937545.475 7 -16767545.95122
  19629291.1824     -91790.30547    -59274.81463
  18812396.0724  -29258172.44347 -22632130.14363
 91  4 25  0  6 14.9940000  0  3G13G 2G 6
  18882886.736   -21971508.317 7 -16794010.44422
  19630612.7364     -84842.56047    -53860.99263
  18811555.8854  -29262586.63947 -22635569.77563
 91  4 25  0  6 29.9940000  0  3G13G 2G 6
  18876445.7294  -22005337.99447 -16820371.17562
  19631943.7214     -77857.17847    -48417.83963
  18810736.3074  -29266886.47647 -22638920.29363
 91  4 25  0  6 44.9940000  0  3G13G 2G 6
  18870037.369   -22039027.668 7 -16846622.81222
  19633281.2524     -70827.52047    -42940.18964
  18809944.5724  -29271065.36047 -22642176.56663
 91  4 25  0  6 59.9940000  0  3G13G 2G 6
  18863653.1194  -22072574.37047 -16872763.04762
  19634626.5254     -63750.62447    -37425.73264
  18809171.8304  -29275120.00047 -22645336.02563
 91  4 25  0  7 14.9940000  0  3G13G 2G 6
  18857295.2444  -22105984.17647 -16898796.60262
  19635981.6744     -56632.26447    -31878.96664
  18808422.3544  -29279056.39547 -22648403.34563
 91  4 25  0  7 29.9940000  0  3G13G 2G 6
  18850963.9324  -22139253.77347 -16924720.91262
  19637343.283      -49469.389 7    -26297.51924
  18807696.4244  -29282871.22847 -22651375.94163
 91  4 25  0  7 44.9940000  0  3G13G 2G 6
  18844659.666   -22172386.042 7 -16950538.21022
  19638716.2524     -42264.93847    -20683.66663
  18806989.9634  -29286567.23647 -22654255.94463
 91  4 25  0  7 59.9940000  0  3G13G 2G 6
  18838380.346   -22205375.443 7 -16976244.17922
  19640094.9634     -35013.51947    -15033.21764
  18806311.2914  -29290139.07747 -22657039.19563
 91  4 25  0  8 14.9940000  0  3G13G 2G 6
  18832131.072   -22238220.774 7 -17001837.89122
  19641486.5104     -27713.99247     -9345.28663
  18805655.7684  -29293585.24547 -22659724.51963
 91  4 25  0  8 29.9940000  0  3G13G 2G 6
  18825908.3694  -22270927.11647 -17027323.29862
  19642881.065      -20371.520 7     -3623.88924
  18805023.4004  -29296911.00147 -22662316.01263
 91  4 25  0  8 44.9940000  0  3G13G 2G 6
  18819712.7914  -22303493.46447 -17052699.62062
  19644287.299      -12985.090 7      2131.75523
  18804416.6744  -29300115.14247 -22664812.74463
 91  4 25  0  8 59.9940000  0  3G13G 2G 6
  18813539.057   -22335925.343 7 -17077971.15822
  19645699.3934      -5560.40647      7917.21563
  18803827.0724  -29303203.12647 -22667218.95663
 91  4 25  0  9 14.9940000  0  3G13G 2G 6
  18807396.541   -22368213.994 7 -17103131.09422
  19647123.9474       1911.48147     13739.46063
  18803259.2834  -29306166.13747 -22669527.79663
 91  4 25  0  9 29.9940000  0  3G13G 2G 6
  18801279.166   -22400356.632 7 -17128177.25522
  19648555.4404       9433.32847     19600.62863
  18802723.5254  -29309001.21547 -22671736.94063
 91  4 25  0  9 44.9940000  0  3G13G 2G 6
  18795189.721   -22432358.247 7 -17153113.52622
  19649992.9714      17000.02247     25496.74464
  18802207.5654  -29311713.38147 -22673850.31163
 91  4 25  0  9 59.9940000  0  3G13G 2G 6
  18789127.049   -22464216.385 7 -17177937.99622
  19651445.0574      24613.77747     31429.52663
  18801712.7214  -29314300.14347 -22675865.96663
 91  4 25  0 10 14.9940000  0  3G13G 2G 6
  18783091.260   -22495937.539 7 -17202655.72822
  19652898.4944      32268.23647     37394.03463
  18801243.8934  -29316767.93447 -22677788.91263
 91  4 25  0 10 29.9940000  0  3G13G 2G 6
  18777082.572   -22527506.805 7 -17227255.10022
  19654362.658       39978.325 7     43401.88023
  18800800.6744  -29319101.50547 -22679607.27563
 91  4 25  0 10 44.9940000  0  3G13G 2G 6
  18771102.065   -22558938.115 7 -17251746.98822
  19655841.729       47729.846 7     49442.01023
  18800377.6194  -29321315.09647 -22681332.14363
